     2              OBSERVATION DATA    GPS                 RINEX VERSION / TYPE
teqc 2002Apr29 battag 20030505 23:08:56UTC                  PGM / RUN BY / DATE
                                                            COMMENT
L2: 1 -> 1; 5 -> 5; 60 -> 9                                 COMMENT
L2: 1 -> 1; 5 -> 5; 60 -> 9                                 COMMENT
L2: 1 -> 1; 5 -> 5; 60 -> 9                                 COMMENT
L2: 1 -> 1; 5 -> 5; 60 -> 9                                 COMMENT
L2: 1 -> 1; 5 -> 5; 60 -> 9                                 COMMENT
Original Marker Name: 15110150                              COMMENT
Campaign Name: UC Berkeley Central Calif 2003-2004          COMMENT
4-Character Station Name: 05UH                              COMMENT
6-Character Antenna Code: TRZEPH                            COMMENT
Vertical Measurement Point: MGP                             COMMENT
Vertical Offset to Rinex Ref. Point: 0.0443                 COMMENT
Radial Measurement Point: OGP                               COMMENT
Radial Offset to Rinex Ref. Point: 0.1698                   COMMENT
Antenna Height from Field Measurement: 1.3067 m             COMMENT
Original XYZ: -2646803.5581 -4405637.5900 3765192.6774      COMMENT
New XYZ position is based on association with SCEC monument COMMENT
E1F0Z5W8+0011. Position of that monument is believed to be  COMMENT
valid to within 1 m horizontally; vertical accuracy         COMMENT
should be no worse than 3-times this value.                 COMMENT
                                                            COMMENT
Revised Rinex header created by UCSD GPS archive for        COMMENT
GSAC on 04-Feb-2005 (2005:035) 16:33:34 GMT                 COMMENT
For assistance contact dagnew@ucsd.edu                      COMMENT
or anderson@python.ucsd.edu                                 COMMENT
                                                            COMMENT
SBT25 PN 9.7 1988 LS 3728                                   MARKER NAME
05uh                                                        MARKER NUMBER
-Unknown- UNIV CALIF BERKELEY                               OBSERVER / AGENCY
220281511 TRIMBLE 5700 NP 1.20 / SP 0.00                    REC # / TYPE / VERS
12337951 TRM41249.00                                        ANT # / TYPE
 -2646803.0000 -4405640.0000  3765192.0000                  APPROX POSITION XYZ
        1.2513        0.0000        0.0000                  ANTENNA: DELTA H/E/N
     1     1     0                                          WAVELENGTH FACT L1/2
     7    L1    L2    C1    P1    P2    S1    S2            # / TYPES OF OBSERV
    30                                                      INTERVAL
  2003     1    15    16    13   30.000000                  TIME OF FIRST OBS
  2003     1    16     0     6   45.000000                  TIME OF LAST OBS
                                                            END OF HEADER
 03  1 15 16 13 30.0000000  0  6G10G28G 8G13G27G31
    -48416.68059    -40883.34057  23544277.5944                   23544275.6054
        44.2504         26.2504
   -592486.95359   -456298.74557  21401755.1024                   21401751.3834
        50.5004         39.2504
   -494523.39559   -382776.84258  20449183.7344                   20449180.3594
        51.0004         40.2504
    476865.01259    352376.34157  21960577.0314                   21960574.2384
        49.5004         36.2504
   -277904.96559   -214897.71158  20591355.6724                   20591352.2704
        51.0004         40.5004
    113556.41459     83087.82257  22065748.7194                   22065745.8134
        48.5004         33.2504
 03  1 15 16 13 45.0000000  0  6G10G28G 8G13G27G31
    -50078.34849    -42178.19847  23543962.1884                   23543959.0704
        44.0004         26.7504
   -633547.06649   -488293.63747  21393941.1334                   21393938.2074
        50.5004         39.0004
   -522528.34049   -404598.88448  20443854.8364                   20443850.9734
        51.2504         40.0004
    505237.80549    374484.97247  21965976.3674                   21965973.9774
        50.2504         36.0004
   -292873.04349   -226561.16448  20588507.2424                   20588504.0124
        51.5004         40.7504
    121067.02049     88940.23847  22067177.7344                   22067175.6174
        47.7504         32.7504
 03  1 15 16 14  0.0000000  0  6G10G28G 8G13G27G31
    -51619.08649    -43378.79147  23543669.0634                   23543665.5004
        43.5004         26.2504
   -674521.80949   -520222.02347  21386144.1094                   21386140.7584
        51.0004         38.7504
   -550471.96149   -426373.16148  20438537.1334                   20438533.7814
        51.0004         40.0004
    533697.00849    396660.90347  21971391.7344                   21971389.3914
        50.5004         35.5004
   -307781.95749   -238178.53048  20585670.1724                   20585667.1024
        51.5004         40.7504
    128721.85549     94905.02647  22068634.4144                   22068632.3954
        48.0004         32.5004
 03  1 15 16 14 15.0000000  0  7G10G28G 8G13G27G29G31
    -53036.67649    -44483.48446  23543398.5634                   23543396.2114
        43.7504         25.5004
   -715408.65249   -552081.91447  21378363.3594                   21378360.0234
        50.7504         38.5004
   -578351.81249   -448097.73348  20433231.8134                   20433228.2344
        51.7504         40.7504
    562244.69149    418905.79247  21976824.5314                   21976821.9534
        49.7504         35.5004
   -322629.14149   -249747.77348  20582844.8204                   20582841.8524
        51.2504         41.0004
   -175814.37559   -131002.28256  24572688.3674                   24572685.1914
        39.5004         21.5004
    136523.19549    100983.99047  22070118.6644                   22070116.0904
        47.5004         32.5004
 03  1 15 16 14 30.0000000  0  7G10G28G 8G13G27G29G31
    -54336.89549    -45496.66947  23543151.0554                   23543149.7584
        42.7504         27.5004
   -756213.30149   -583877.75047  21370598.8364                   21370595.1174
        51.0004         39.2504
   -606173.57049   -469777.04448  20427937.6884                   20427934.2934
        51.2504         40.5004
    590874.92649    441215.01847  21982272.2894                   21982269.9654
        49.5004         35.2504
   -337420.07449   -261273.20148  20580030.1254                   20580026.8954
        50.5004         41.0004
   -241690.48849   -182334.34146  24560152.4224                   24560149.8014
        40.5004         22.0004
    144465.20749    107172.55447  22071630.1334                   22071627.8834
        47.7504         33.0004
 03  1 15 16 14 45.0000000  0  7G10G28G 8G13G27G29G31
    -55520.69949    -46419.14546  23542926.0634                   23542923.9494
        43.7504         25.5004
   -796936.54349   -615610.16047  21362849.1484                   21362846.1724
        50.5004         39.2504
   -633937.70349   -491411.44648  20422654.3284                   20422650.8674
        51.2504         40.5004
    619586.78149    463587.82647  21987736.1024                   21987733.6024
        49.0004         35.0004
   -352155.37949   -272755.27348  20577225.7194                   20577223.2344
        51.2504         41.0004
   -307539.51249   -233645.36746  24547622.2274                   24547619.1724
        39.0004         20.7504
    152546.81349    113469.89647  22073168.2664                   22073165.7424
        48.5004         33.5004
 03  1 15 16 15  0.0000000  0  7G10G28G 8G13G27G29G31
    -56587.82449    -47250.71247  23542723.6094                   23542720.6484
        43.5004         27.0004
   -837577.80149   -647278.67647  21355115.6804                   21355112.0434
        50.5004         39.0004
   -661643.46549   -513000.36948  20417382.4534                   20417378.8674
        51.5004         41.0004
    648380.44949    486024.39947  21993215.5164                   21993212.9804
        50.0004         35.0004
   -366834.45749   -284193.53248  20574432.3284                   20574429.8324
        50.5004         40.5004
   -373360.35549   -284934.39446  24535096.9924                   24535093.9104
        40.0004         22.0004
    160768.35249    119876.28047  22074732.9224                   22074730.1884
        48.0004         33.2504
 03  1 15 16 15 15.0000000  0  7G10G28G 8G13G27G29G31
    -57539.47749    -47992.31847  23542541.8674                   23542539.9494
        43.7504         27.2504
   -878137.96149   -678884.01347  21347397.4844                   21347393.4534
        50.7504         39.0004
   -689291.93049   -534544.66148  20412120.8984                   20412117.5434
        51.0004         40.2504
    677254.90649    508523.93547  21998710.0314                   21998707.6174
        49.5004         35.0004
   -381458.04349   -295588.56348  20571650.0234                   20571647.0984
        51.0004         40.0004
   -439153.80549   -336202.03446  24522576.8914                   24522574.1254
        40.7504         22.7504
    169128.85549    126390.96747  22076323.7504                   22076321.4804
        47.7504         33.2504
 03  1 15 16 15 30.0000000  0  7G10G28G 8G13G27G29G31
    -58373.04349    -48641.91147  23542383.8594                   23542381.4614
        44.5004         27.0004
   -918614.17249   -710423.92047  21339694.9384                   21339691.1484
        51.0004         39.2504
   -716880.04349   -556041.91048  20406870.8204                   20406867.3444
        51.5004         40.2504
    706212.70349    531088.40647  22004220.4694                   22004218.1764
        49.0004         35.0004
   -396023.31249   -306938.14448  20568877.9534                   20568875.4414
        50.5004         40.5004
   -504916.67649   -387445.86446  24510063.1334                   24510060.3714
        41.7504         22.0004
    177630.83649    133015.88447  22077941.0474                   22077938.8954
        47.0004         33.0004
 03  1 15 16 15 45.0000000  0  7G10G28G 8G13G27G29G31
    -59090.96549    -49201.39247  23542247.1254                   23542244.6914
        43.2504         28.0004
   -959008.75449   -741900.23048  21332008.3674                   21332004.7154
        50.7504         39.5004
   -744410.08249   -577493.90548  20401632.1564                   20401628.8834
        51.0004         40.5004
    735251.17649    553715.71647  22009746.5704                   22009743.6994
        49.5004         34.7504
   -410532.35249   -318243.89748  20566117.2424                   20566114.5514
        50.7504         40.7504
   -570651.00449   -438667.46846  24497553.6954                   24497551.0824
        41.0004         21.5004
    186271.77749    139749.07147  22079585.4614                   22079583.6484
        46.5004         32.0004
 03  1 15 16 16  0.0000000  0  7G10G28G 8G13G27G29G31
    -59692.14549    -49669.87747  23542132.0704                   23542131.1644
        42.2504         27.7504
   -999320.38349   -773311.91247  21324337.3364                   21324333.5274
        51.0004         39.0004
   -771880.46949   -598899.42148  20396404.7814                   20396401.6024
        51.5004         41.0004
    764371.50449    576406.82647  22015288.0004                   22015285.0984
        49.5004         34.7504
   -424983.76249   -329504.76548  20563367.2114                   20563364.2344
        50.5004         40.5004
   -636355.09849   -489865.53246  24485051.1484                   24485047.9734
        42.0004         22.5004
    195052.94949    146591.52047  22081256.4064                   22081254.7974
        46.0004         32.2504
 03  1 15 16 16 15.0000000  0  7G10G28G 8G13G27G29G31
    -60177.62149    -50048.22047  23542039.5634                   23542038.6684
        41.0004         26.2504
  -1039549.77349   -804659.48348  21316681.7664                   21316678.0704
        50.7504         39.7504
   -799291.96949   -620259.04248  20391188.3834                   20391185.2704
        50.7504         40.7504
    793572.80549    599161.03247  22020845.1724                   22020842.0594
        49.0004         34.2504
   -439378.15249   -340721.18348  20560628.0554                   20560625.1764
        50.5004         40.7504
   -702029.43049   -541040.37846  24472553.2894                   24472550.7584
        42.0004         22.0004
    203973.14549    153542.30647  22082954.7344                   22082952.5864
        47.2504         32.5004
 03  1 15 16 16 30.0000000  0  7G10G28G 8G13G27G29G31
    -60548.91849    -50337.63447  23541970.0704                   23541967.8284
        43.0004         26.5004
  -1079698.23849   -835944.01948  21309041.9304                   21309038.1294
        50.7504         39.5004
   -826645.73449   -641573.69048  20385983.3754                   20385980.0084
        51.5004         41.0004
    822853.41449    621977.05147  22026416.9844                   22026414.2584
        49.5004         35.5004
   -453716.73849   -351894.13348  20557899.7034                   20557896.6454
        50.5004         40.0004
   -767675.09849   -592192.92146  24460061.6414                   24460058.8164
        42.5004         22.2504
    213031.00049    160600.37747  22084677.7344                   22084675.5984
        47.5004         32.2504
 03  1 15 16 16 45.0000000  0  7G10G28G 8G13G27G29G31
    -60805.80549    -50537.82447  23541921.3284                   23541918.9924
        43.5004         26.2504
  -1119765.18749   -867165.02748  21301417.2034                   21301413.1564
        51.0004         39.5004
   -853941.06249   -662842.79448  20380789.2424                   20380786.0394
        51.0004         40.5004
    852213.51249    644854.98447  22032004.1094                   22032001.1254
        49.5004         35.5004
   -467998.77349   -363023.00948  20555182.1024                   20555178.7034
        51.0004         40.5004
   -833291.05549   -643322.28546  24447575.3204                   24447572.5704
        41.5004         22.2504
    222226.84849    167765.95847  22086428.1174                   22086425.8134
        47.5004         33.0004
 03  1 15 16 17  0.0000000  0  7G10G28G 8G13G27G29G31
    -60948.46149    -50649.02546  23541892.8674                   23541890.4844
        41.5004         24.5004
  -1159750.60249   -898322.50847  21293808.2664                   21293804.5984
        51.0004         39.2504
   -881177.90249   -684066.32348  20375606.0394                   20375603.3014
        51.5004         40.5004
    881652.88349    667794.71247  22037606.2034                   22037603.6214
        50.0004         35.0004
   -482224.22349   -374107.78748  20552474.7584                   20552471.7234
        50.7504         40.5004
   -898877.24649   -694428.49246  24435095.2814                   24435092.3364
        42.0004         21.7504
    231560.47349    175038.90147  22088204.0784                   22088201.6454
        47.5004         32.2504
 03  1 15 16 17 15.0000000  0  7G10G28G 8G13G27G29G31
    -60977.42649    -50671.63546  23541886.5554                   23541885.4654
        38.7504         24.5004
  -1199654.80949   -929416.70548  21286214.8524                   21286211.2464
        51.0004         39.7504
   -908356.43749   -705244.42348  20370434.5004                   20370431.1254
        51.5004         40.5004
    911171.12149    690795.88147  22043223.2114                   22043220.3834
        49.2504         35.0004
   -496393.25849   -385148.61048  20549778.5234                   20549775.3054
        51.0004         40.7504
   -964433.41849   -745511.22646  24422619.8834                   24422617.1994
        42.2504         22.7504
    241031.38349    182418.82747  22090006.4694                   22090003.1724
        46.2504         31.5004
 03  1 15 16 17 30.0000000  0  7G10G28G 8G13G27G29G31
    -60894.84849    -50607.35846  23541903.0004                   23541901.6374
        41.5004         24.7504
  -1239479.82449   -960449.19948  21278636.4064                   21278632.4454
        51.0004         39.5004
   -935478.57049   -726378.56648  20365273.0084                   20365270.0204
        51.0004         40.7504
    940765.89149    713856.67747  22048854.8914                   22048852.6374
        49.7504         34.0004
   -510507.78149   -396146.95648  20547092.8054                   20547089.5904
        51.5004         41.0004
  -1029961.50849   -796572.17846  24410150.2114                   24410147.6374
        43.0004         22.0004
    250637.20749    189903.85847  22091833.9774                   22091831.6024
        47.0004         32.2504
 03  1 15 16 17 45.0000000  0  7G10G28G 8G13G27G29G31
    -60698.33649    -50454.28946  23541940.5704                   23541938.8324
        40.5004         25.5004
  -1279222.97349   -991417.89447  21271073.3364                   21271069.7194
        50.7504         39.0004
   -962541.51649   -747466.59348  20360123.3524                   20360120.3134
        51.2504         40.7504
    970439.72749    736979.08847  22054501.8444                   22054499.5164
        48.7504         34.2504
   -524564.92249   -407100.60348  20544417.9064                   20544414.8714
        51.0004         41.0004
  -1095458.37549   -847608.66746  24397686.9694                   24397683.7704
        43.0004         22.7504
    260380.57049    197496.05547  22093687.9774                   22093685.9924
        46.5004         33.0004
 03  1 15 16 18  0.0000000  0  7G10G28G 8G13G27G29G31
    -60389.40649    -50213.58846  23541999.8444                   23541996.6914
        39.5004         23.2504
  -1318885.46949  -1022323.75548  21263526.0864                   21263522.2424
        51.2504         39.7504
   -989546.26649   -768509.28248  20354984.2814                   20354981.3484
        51.7504         41.0004
   1000191.19549    760162.00347  22060163.3754                   22060160.4844
        49.0004         34.5004
   -538565.75049   -418010.34848  20541753.3284                   20541750.7544
        50.7504         40.5004
  -1160925.01649   -898621.75046  24385229.3284                   24385226.4804
        42.7504         22.2504
    270259.97749    205194.27447  22095568.2274                   22095566.4104
        47.7504         33.2504
 03  1 15 16 18 15.0000000  0  7G10G28G 8G13G27G29G31
    -59965.43749    -49883.28846  23542080.0234                   23542077.7424
        39.5004         22.5004
  -1358464.48449  -1053164.55348  21255994.3674                   21255990.4384
        50.7504         39.5004
  -1016490.01649   -789504.41848  20349857.1724                   20349853.9654
        51.7504         41.0004
   1030022.58649    783407.19747  22065840.2114                   22065837.5204
        49.0004         34.7504
   -552507.41049   -428874.00448  20539100.6334                   20539097.7774
        50.5004         40.5004
  -1226358.23849   -949608.67746  24372777.5634                   24372774.4384
        42.7504         20.7504
    280278.08249    213000.57447  22097474.9384                   22097473.2384
        47.7504         33.0004
 03  1 15 16 18 30.0000000  0  7G10G28G 8G13G27G29G31
    -59430.51649    -49466.48846  23542181.9454                   23542179.8524
        39.7504         22.7504
  -1397963.80549  -1083943.26748  21248477.9144                   21248474.4024
        50.2504         40.2504
  -1043376.55549   -810454.99948  20344740.6954                   20344737.7384
        51.0004         41.0004
   1059929.83249    806711.47347  22071531.3754                   22071528.5044
        50.0004         34.5004
   -566393.68049   -439694.49948  20536458.1884                   20536455.2624
        50.5004         40.2504
  -1291761.66849  -1000572.46546  24360331.5004                   24360328.0944
        42.7504         21.0004
    290430.71549    220911.68947  22099406.8204                   22099404.5474
        47.7504         32.2504
 03  1 15 16 18 45.0000000  0  7G10G28G 8G13G27G29G31
    -58791.06249    -48968.29047  23542304.3284                   23542301.8714
        40.7504         25.7504
  -1437389.52349  -1114664.60848  21240975.1954                   21240971.6914
        51.0004         39.5004
  -1070211.75849   -831365.55948  20339634.0474                   20339630.9224
        51.5004         40.7504
   1089906.66849    830069.99547  22077235.5554                   22077232.8834
        48.7504         34.5004
   -580230.44549   -450476.41848  20533825.2424                   20533822.1954
        50.5004         41.0004
  -1357140.96549  -1051517.52046  24347890.2114                   24347886.5084
        43.0004         20.0004
    300711.52749    228922.68147  22101362.9774                   22101360.9344
        47.7504         32.5004
 03  1 15 16 19  0.0000000  0  7G10G28G 8G13G27G29G31
    -58024.21949    -48370.77647  23542450.0634                   23542447.9224
        40.7504         26.5004
  -1476718.42649  -1145310.52648  21233491.5944                   21233487.6954
        50.5004         39.5004
  -1096972.35549   -852217.99448  20334541.7274                   20334538.4414
        51.0004         40.5004
   1119976.07849    853500.65147  22082957.7664                   22082954.8554
        48.2504         35.0004
   -593994.37549   -461201.57248  20531206.0944                   20531202.7464
        50.0004         40.7504
  -1422472.83249  -1102425.45046  24335458.2974                   24335454.5044
        42.2504         19.7504
    311143.47349    237051.43147  22103348.6804                   22103346.0984
        47.7504         32.7504
 03  1 15 16 19 15.0000000  0  7G10G28G 8G13G27G29G31
    -57136.03149    -47678.74347  23542618.9924                   23542616.8834
        39.0004         26.0004
  -1515956.58249  -1175885.71848  21226024.6024                   21226020.7704
        50.7504         39.5004
  -1123664.14849   -873016.81248  20329462.6174                   20329459.6054
        51.0004         41.0004
   1150131.84849    876998.60947  22088696.4064                   22088694.0354
        48.7504         34.5004
   -607691.28549   -471874.50148  20528599.4614                   20528596.4024
        50.5004         41.0004
  -1487762.68049  -1153300.71746  24323033.8134                   24323030.5004
        43.0004         20.0004
    321720.59449    245293.34247  22105361.6254                   22105358.2894
        48.0004         33.0004
 03  1 15 16 19 30.0000000  0  7G10G28G 8G13G27G29G31
    -56135.13349    -46898.87546  23542809.6024                   23542807.3164
        39.2504         22.5004
  -1555112.39149  -1206396.75148  21218573.5314                   21218570.0864
        51.0004         39.5004
  -1150295.59449   -893768.61048  20324394.9064                   20324391.8324
        52.0004         41.2504
   1180365.20349    900557.00647  22094449.5314                   22094447.2934
        48.7504         34.7504
   -621329.64549   -482501.82748  20526004.2504                   20526001.1564
        49.5004         41.0004
  -1553018.86749  -1204149.75946  24310616.4144                   24310613.1254
        42.0004         20.7504
    332434.02749    253641.45247  22107399.6954                   22107397.0044
        48.0004         32.7504
 03  1 15 16 19 45.0000000  0  7G10G28G 8G13G27G29G31
    -55022.70349    -46032.04646  23543021.2664                   23543018.4774
        40.5004         25.0004
  -1594186.64849  -1236844.24448  21211138.0944                   21211134.2894
        51.0004         39.5004
  -1176867.27749   -914473.83448  20319338.6254                   20319335.4304
        51.5004         40.7504
   1210675.10549    924175.05247  22100217.3834                   22100214.9224
        49.2504         34.5004
   -634910.08649   -493084.00448  20523419.6484                   20523416.9734
        50.2504         40.2504
  -1618241.79349  -1254972.84746  24298204.4924                   24298200.7074
        41.7504         20.0004
    343282.81649    262095.00947  22109464.3754                   22109462.1804
        48.0004         33.5004
 03  1 15 16 20  0.0000000  0  7G10G28G 8G13G27G29G31
    -53792.38349    -45073.39646  23543255.2894                   23543253.2114
        39.5004         25.5004
  -1633172.68449  -1267222.98147  21203719.2734                   21203715.2854
        50.5004         39.0004
  -1203372.39549   -935127.18348  20314294.4924                   20314291.4064
        52.0004         40.5004
   1241068.00049    947857.78247  22106000.9224                   22105998.7234
        48.5004         34.5004
   -648425.77049   -503615.70948  20520847.7114                   20520845.0314
        50.0004         40.7504
  -1683424.39549  -1305764.54146  24285801.3204                   24285797.5124
        43.0004         19.7504
    354273.39149    270659.05847  22111555.7504                   22111553.5274
        48.5004         33.0004
 03  1 15 16 20 15.0000000  0  7G10G28G 8G13G27G29G31
    -52454.91049    -44031.29146  23543509.6024                   23543508.7464
        38.2504         25.0004
  -1672080.99649  -1297541.16247  21196315.3204                   21196311.3484
        51.2504         39.0004
  -1229821.46149   -955736.87148  20309261.5394                   20309258.4614
        51.7504         40.7504
   1271533.09449    971596.75947  22111798.2894                   22111795.9224
        48.5004         34.0004
   -661887.10249   -514105.08748  20518286.5314                   20518283.6884
        50.5004         40.5004
  -1748577.13749  -1356532.93046  24273402.6254                   24273399.4144
        40.0004         18.5004
    365395.00049    279325.19547  22113672.6334                   22113670.0084
        48.0004         33.5004
 03  1 15 16 20 30.0000000  0  7G10G28G 8G13G27G29G31
    -51043.81249    -42931.82346  23543778.6094                   23543776.8094
        40.0004         23.7504
  -1710944.96149  -1327824.80047  21188919.8444                   21188915.6294
        51.0004         38.5004
  -1256247.70349   -976328.77448  20304232.9844                   20304229.9414
        51.7504         40.2504
   1302036.71549    995365.76847  22117602.8914                   22117600.4964
        47.7504         33.7504
   -675327.35249   -524578.02148  20515728.7894                   20515725.8634
        50.2504         40.2504
  -1813732.82849  -1407303.66646  24261003.9924                   24261000.8204
        40.5004         18.5004
    376614.00049    288067.23547  22115807.2424                   22115804.9774
        48.5004         32.5004
 03  1 15 16 20 45.0000000  0  7G10G28G 8G13G27G29G31
    -49542.69549    -41762.16246  23544064.5944                   23544062.9144
        41.2504         24.5004
  -1749747.96549  -1358060.91647  21181535.8134                   21181531.9414
        50.7504         39.0004
  -1282634.35949   -996889.81448  20299211.3914                   20299208.5904
        51.0004         40.5004
   1332595.14149   1019177.47447  22123417.7424                   22123416.0274
        48.7504         33.5004
   -688729.75449   -535021.47048  20513178.1724                   20513175.5514
        50.7504         40.5004
  -1878874.60549  -1458063.51846  24248607.8674                   24248605.3594
        40.7504         19.2504
    387946.89549    296898.01747  22117963.8284                   22117961.5314
        47.7504         33.0004
 03  1 15 16 21  0.0000000  0  7G10G28G 8G13G27G29G31
    -47941.00049    -40514.12946  23544369.2814                   23544367.3794
        40.7504         24.0004
  -1788479.09849  -1388241.01547  21174165.1564                   21174161.8524
        50.5004         39.2504
  -1308970.41049  -1017411.43648  20294200.3284                   20294197.2814
        51.5004         41.5004
   1363219.21549   1043040.32747  22129245.5864                   22129243.4454
        47.0004         33.5004
   -702083.32049   -545426.87748  20510637.4844                   20510634.6684
        49.5004         40.5004
  -1943991.37149  -1508803.86946  24236216.4304                   24236214.0904
        41.0004         19.0004
    399404.18049    305825.72947  22120143.9844                   22120141.9144
        48.5004         32.0004
 03  1 15 16 21 15.0000000  0  7G10G28G 8G13G27G29G31
    -46230.77349    -39181.56846  23544694.4064                   23544692.3594
        39.2504         23.7504
  -1827130.36749  -1418358.90947  21166810.2584                   21166806.3484
        50.5004         39.2504
  -1335247.72349  -1037887.27648  20289199.7814                   20289196.6414
        51.0004         40.7504
   1393916.82049   1066960.48047  22135087.4614                   22135084.9694
        48.0004         33.0004
   -715379.86749   -555787.84248  20508107.0314                   20508104.5084
        50.0004         40.0004
  -2009074.58249  -1559518.14546  24223831.9224                   24223829.1724
        41.5004         22.5004
    410993.75449    314856.52747  22122349.6954                   22122346.2974
        47.7504         31.7504
 03  1 15 16 21 30.0000000  0  7G10G28G 8G13G27G29G31
    -44412.83249    -37765.01646  23545040.0634                   23545038.9694
        39.7504         24.0004
  -1865702.20749  -1448414.89647  21159470.4304                   21159466.0204
        51.5004         39.0004
  -1361466.53149  -1058317.53448  20284210.3524                   20284207.5864
        51.5004         40.5004
   1424687.07849   1090937.26847  22140942.6644                   22140940.3094
        48.0004         32.7504
   -728619.69549   -566104.62348  20505587.8834                   20505585.2464
        50.0004         40.2504
  -2074124.53149  -1610206.41546  24211453.1484                   24211450.7464
        42.0004         22.5004
    422714.93449    323989.88847  22124580.2114                   22124577.0514
        48.7504         31.7504
 03  1 15 16 21 45.0000000  0  7G10G28G 8G13G27G29G31
    -42485.91049    -36263.62946  23545406.6094                   23545405.6254
        38.7504         24.5004
  -1904192.96149  -1478407.71147  21152145.7114                   21152141.9654
        50.5004         39.2504
  -1387625.21949  -1078700.95248  20279232.7114                   20279229.6764
        51.7504         41.0004
   1455531.36349   1114971.71447  22146812.2274                   22146809.9734
        48.0004         33.0004
   -741801.05549   -576375.82648  20503079.3134                   20503076.6054
        50.7504         40.7504
  -2139139.25849  -1660867.30746  24199081.4064                   24199079.1254
        42.0004         21.7504
    434569.12949    333226.88747  22126835.7734                   22126833.6374
        47.5004         32.5004
 03  1 15 16 22  0.0000000  0  7G10G28G 8G13G27G29G31
    -40449.69549    -34677.01146  23545794.5474                   23545793.4694
        40.7504         25.2504
  -1942602.14149  -1508336.94548  21144836.6484                   21144833.0004
        50.5004         39.5004
  -1413723.09049  -1099036.96148  20274266.1094                   20274263.0904
        51.2504         41.0004
   1486449.98049   1139064.07747  22152695.7504                   22152693.5164
        48.0004         33.0004
   -754923.39849   -586601.04448  20500582.2344                   20500579.5784
        50.5004         40.7504
  -2204117.85949  -1711500.02646  24186716.9774                   24186714.4184
        42.5004         22.5004
    446556.68449    342567.78547  22129116.6884                   22129115.0554
        47.0004         32.2504
 03  1 15 16 22 15.0000000  0  7G10G28G 8G13G27G29G31
    -38302.52349    -33003.90246  23546203.0164                   23546201.3244
        39.0004         24.5004
  -1980927.84049  -1538201.13048  21137543.5234                   21137540.1724
        50.7504         39.5004
  -1439758.21149  -1119324.08348  20269312.0474                   20269309.2934
        51.7504         40.5004
   1517444.29749   1163215.44047  22158593.8594                   22158591.7584
        47.5004         33.0004
   -767984.66449   -596778.68248  20498096.4924                   20498093.9104
        50.0004         40.5004
  -2269058.14149  -1762102.88946  24174359.7274                   24174356.6484
        42.5004         22.7504
    458679.08649    352013.74747  22131423.3834                   22131421.7114
        47.0004         32.5004
 03  1 15 16 22 30.0000000  0  7G10G28G 8G13G27G29G31
    -36038.55549    -31239.86247  23546633.9304                   23546632.4264
        40.0004         25.7504
  -2019163.88749  -1567995.46848  21130267.6094                   21130263.9224
        50.7504         39.5004
  -1465724.21949  -1139557.35548  20264370.6804                   20264367.5984
        51.7504         40.5004
   1548520.31649   1187430.46947  22164507.2664                   22164504.9304
        47.2504         33.0004
   -780978.52349   -606903.78148  20495624.0944                   20495621.2664
        50.2504         40.5004
  -2333953.77749  -1812670.93946  24162009.5474                   24162007.9964
        42.7504         22.2504
    470942.20749    361569.36847  22133757.4454                   22133755.4224
        47.7504         32.5004
 03  1 15 16 22 45.0000000  0  7G10G28G 8G13G27G29G31
    -33656.64149    -29383.89547  23547087.5234                   23547085.8914
        42.0004         27.0004
  -2057308.92249  -1597718.87847  21123008.6024                   21123005.2074
        51.0004         39.0004
  -1491619.67249  -1159735.64548  20259443.2894                   20259440.0984
        51.2504         40.2504
   1579679.44949   1211710.24947  22170436.7114                   22170434.7034
        47.0004         32.5004
   -793903.53149   -616975.24248  20493164.8594                   20493161.8834
        49.7504         40.0004
  -2398802.93449  -1863202.78246  24149669.0634                   24149667.4494
        42.5004         22.7504
    483347.38749    371235.68347  22136118.2734                   22136116.0084
        47.5004         32.0004
 03  1 15 16 23  0.0000000  0  7G10G28G 8G13G27G29G31
    -31156.82049    -27436.02647  23547563.7894                   23547562.3914
        41.2504         27.5004
  -2095362.78549  -1627371.24048  21115767.0864                   21115764.0474
        50.5004         39.5004
  -1517444.26249  -1179858.72548  20254529.0554                   20254526.1954
        50.2504         40.2504
   1610921.40249   1236054.57847  22176382.1484                   22176380.2584
        47.2504         32.5004
   -806759.34449   -626992.78148  20490718.3204                   20490715.6484
        49.7504         40.5004
  -2463605.21149  -1913698.12246  24137337.6564                   24137335.6214
        41.2504         22.0004
    495894.50449    381012.61247  22138505.8524                   22138503.7074
        48.0004         32.2504
 03  1 15 16 23 15.0000000  0  7G10G28G 8G13G27G29G31
    -28539.06649    -25396.26147  23548061.3594                   23548059.9384
        41.0004         27.0004
  -2133325.18749  -1656952.34648  21108543.5474                   21108539.9024
        51.5004         39.5004
  -1543197.54749  -1199926.23748  20249628.1954                   20249625.4104
        51.0004         40.7504
   1642246.25849   1260463.50047  22182343.2114                   22182341.0744
        47.0004         33.2504
   -819545.62949   -636956.15448  20488285.2584                   20488282.3954
        49.7504         40.5004
  -2528360.04349  -1964156.47046  24125015.6484                   24125012.8444
        40.2504         21.5004
    508583.59049    390900.16747  22140920.4534                   22140917.7114
        47.5004         31.5004
 03  1 15 16 23 30.0000000  0  7G10G28G 8G13G27G29G31
    -25805.14849    -23265.96946  23548581.7894                   23548580.1844
        41.5004         24.0004
  -2171197.72749  -1686463.42848  21101336.6094                   21101333.0904
        51.0004         40.0004
  -1568881.11749  -1219939.41748  20244740.6174                   20244737.5634
        51.5004         40.5004
   1673652.08249   1284935.50747  22188319.6804                   22188317.3134
        47.7504         32.5004
   -832263.77349   -646866.41648  20485865.1564                   20485862.2584
        49.5004         40.2504
  -2593068.57849  -2014578.72346  24112701.4224                   24112699.0554
        41.2504         21.7504
    521412.82449    400896.91447  22143361.5004                   22143359.2774
        47.2504         31.0004
 03  1 15 16 23 45.0000000  0  7G10G28G 8G13G27G29G31
    -22955.55949    -21045.60746  23549123.5634                   23549123.0864
        41.2504         24.5004
  -2208980.64549  -1715904.66047  21094146.7424                   21094143.2194
        51.5004         39.2504
  -1594495.00849  -1239898.30248  20239866.5084                   20239863.6484
        51.5004         40.0004
   1705138.42249   1309470.26447  22194311.1484                   22194309.0434
        47.0004         32.5004
   -844913.90649   -656723.68548  20483457.5474                   20483454.9964
        49.7504         40.0004
  -2657730.78949  -2064964.87846  24100396.8284                   24100394.1374
        42.0004         21.7504
    534381.66049    411002.44747  22145829.3984                   22145827.2234
        47.5004         31.5004
 03  1 15 16 24  0.0000000  0  7G10G28G 8G13G27G29G31
    -19990.94549    -18735.56046  23549688.6804                   23549687.1764
        42.0004         24.7504
  -2246674.19549  -1745276.27448  21086973.9924                   21086970.3134
        50.7504         39.5004
  -1620039.34049  -1259803.01148  20235005.6644                   20235003.0164
        50.7504         40.5004
   1736704.78549   1334067.37047  22200318.4534                   22200316.1454
        47.7504         32.5004
   -857496.10549   -666528.03048  20481063.3754                   20481060.6844
        49.7504         40.0004
  -2722346.57849  -2115314.85846  24088101.0784                   24088098.6334
        41.5004         22.5004
    547489.66049    421216.41847  22148324.1174                   22148321.9964
        47.5004         32.0004
 03  1 15 16 24 15.0000000  0  7G10G28G 8G13G27G29G31
    -16910.48849    -16335.25747  23550274.8754                   23550273.9964
        41.2504         26.0004
  -2284277.37549  -1774577.45148  21079818.0704                   21079814.7854
        51.0004         39.7504
  -1645513.01649  -1279652.64148  20230158.2114                   20230155.1414
        51.5004         40.5004
   1768351.96149   1358727.45247  22206340.1024                   22206338.5204
        45.7504         32.5004
   -870009.36349   -676278.63748  20478682.2424                   20478679.6804
        49.5004         40.5004
  -2786914.51249  -2165627.55946  24075814.3594                   24075812.3204
        42.5004         23.5004
    560737.68049    431539.48747  22150844.7344                   22150843.3054
        47.5004         31.7504
 03  1 15 16 24 30.0000000  0  7G10G28G 8G13G27G29G31
    -13720.78549    -13849.82346  23550881.3754                   23550880.2854
        41.0004         23.0004
  -2321796.35249  -1803813.03448  21072678.7114                   21072674.8554
        51.5004         39.5004
  -1670922.06249  -1299451.91148  20225323.0394                   20225320.2194
        51.0004         40.5004
   1800073.41449   1383445.41047  22212376.5164                   22212374.7624
        46.2504         32.5004
   -882459.68449   -685980.20748  20476313.1724                   20476310.5394
        49.7504         40.0004
  -2851440.64849  -2215907.69046  24063535.5554                   24063533.7344
        41.7504         25.5004
    574119.18849    441966.59547  22153391.5944                   22153389.8914
        47.2504         31.7504
 03  1 15 16 24 45.0000000  0  7G10G28G 8G13G27G29G31
    -10424.10949    -11281.07846  23551508.3444                   23551507.7664
        39.5004         23.0004
  -2359233.25049  -1832984.64448  21065554.4144                   21065550.8834
        51.0004         39.7504
  -1696268.47349  -1319202.37548  20220499.7664                   20220496.8714
        51.0004         41.0004
   1831866.72749   1408219.37547  22218426.9534                   22218424.9144
        46.2504         32.5004
   -894848.94149   -695634.19048  20473955.2974                   20473952.7344
        50.2504         40.2504
  -2915926.76649  -2266156.65746  24051263.7584                   24051261.6054
        43.2504         22.0004
    587631.96549    452495.98747  22155963.0944                   22155960.7274
        47.5004         32.0004
 03  1 15 16 25  0.0000000  0  7G10G28G 8G13G27G29G31
     -7018.74649     -8627.54646  23552156.3444                   23552155.1724
        40.5004         23.7504
  -2396586.12149  -1862090.77548  21058446.5314                   21058442.9654
        50.5004         40.0004
  -1721550.14849  -1338902.39247  20215688.8984                   20215686.1884
        50.0004         38.2504
   1863733.73849   1433050.73147  22224491.2894                   22224488.3244
        47.5004         32.5004
   -907175.14549   -705239.04547  20471610.0704                   20471606.9884
        49.7504         38.0004
  -2980370.43049  -2316372.56746  24039000.4774                   24038998.3054
        42.5004         22.7504
    601277.52349    463128.83147  22158559.9454                   22158557.7854
        45.5004         28.7504
 03  1 15 16 25 14.9990000  0  7G10G28G 8G13G27G29G31
     -3504.53949     -5889.28746  23552825.2374                   23552823.9254
        42.0004         22.7504
  -2433851.82049  -1891128.98148  21051355.1594                   21051351.7574
        51.0004         40.0004
  -1746764.70349  -1358550.12248  20210890.7764                   20210888.1244
        51.2504         40.5004
   1895672.71149   1457938.18947  22230568.8474                   22230567.0774
        47.0004         32.5004
   -919436.74249   -714793.56948  20469276.6124                   20469273.5304
        49.7504         41.0004
  -3044766.53549  -2366551.34646  24026746.2374                   24026744.0624
        40.5004         22.0004
    615055.43849    473864.80047  22161181.1514                   22161179.9374
        47.0004         32.2504
 03  1 15 16 25 29.9990000  0  7G10G28G 8G13G27G29G31
       120.09849     -3064.93246  23553516.0034                   23553513.7414
        40.5004         24.0004
  -2471033.79749  -1920101.96148  21044279.5974                   21044276.0894
        50.5004         40.0004
  -1771913.92249  -1378146.93847  20206105.2764                   20206102.0424
        50.0004         38.5004
   1927689.09449   1482885.95247  22236661.3784                   22236659.7264
        47.0004         32.5004
   -931633.64849   -724297.67047  20466955.5114                   20466953.1444
        48.5004         37.7504
  -3109121.92649  -2416698.45646  24014500.3314                   24014497.9014
        42.0004         23.0004
    628968.69549    484706.25147  22163829.1904                   22163828.1944
        45.0004         27.2504
 03  1 15 16 25 44.9990000  0  7G10G28G 8G13G27G29G31
      3852.12149      -156.91846  23554226.7924                   23554223.5774
        42.0004         24.5004
  -2508132.43049  -1949009.98748  21037219.7304                   21037216.0154
        50.7504         39.7504
  -1796998.48849  -1397693.36247  20201331.6984                   20201328.9684
        50.7504         38.0004
   1959777.74649   1507890.02947  22242767.7694                   22242766.0544
        47.2504         33.0004
   -943767.73449   -733752.83747  20464646.8154                   20464643.9684
        49.0004         37.2504
  -3173434.43449  -2466812.13146  24002262.1904                   24002259.7184
        41.7504         22.7504
    643013.41449    495650.12847  22166501.7064                   22166500.3234
        45.5004         27.5004
 03  1 15 16 25 59.9990000  0  7G10G28G 8G13G27G29G31
      7688.98849      2832.74247  23554955.9954                   23554954.2804
        42.0004         27.0004
  -2545149.79749  -1977854.71148  21030175.9874                   21030172.5304
        50.2504         40.0004
  -1822020.73049  -1417191.23748  20196570.0504                   20196567.4524
        50.5004         41.0004
   1991936.04349   1532948.38647  22248887.4174                   22248885.5504
        47.2504         32.5004
   -955841.02749   -743160.61748  20462348.8394                   20462346.4094
        49.7504         40.0004
  -3237706.12949  -2516893.98446  23990031.3314                   23990028.6834
        40.2504         22.0004
    657187.04749    506694.45747  22169199.1834                   22169196.9374
        46.7504         30.5004
 03  1 15 16 26 14.9990000  0  7G10G28G 8G13G27G29G31
     11631.42649      5904.73247  23555706.8784                   23555705.2924
        42.5004         26.0004
  -2582084.94949  -2006635.36748  21023147.3554                   21023143.7414
        52.0004         40.2504
  -1846979.46149  -1436639.61648  20191820.4484                   20191817.5624
        51.5004         42.0004
   2024164.88749   1558061.71747  22255020.0654                   22255018.4994
        45.5004         30.7504
   -967852.44949   -752520.19947  20460063.5504                   20460060.8974
        49.5004         38.5004
  -3301935.77049  -2566943.02746  23977808.1514                   23977806.0974
        42.0004         22.2504
    671490.73449    517840.13147  22171920.8554                   22171919.0814
        48.0004         32.5004
 03  1 15 16 26 29.9990000  0  7G10G28G 8G13G27G29G31
     15680.32849      9059.67147  23556477.4484                   23556474.9444
        43.0004         25.7504
  -2618936.73849  -2035351.04148  21016134.5974                   21016131.1834
        51.7504         40.0004
  -1871873.37949  -1456037.49948  20187083.6054                   20187080.3124
        52.5004         42.0004
   2056465.18449   1583230.72347  22261166.8314                   22261164.9684
        45.0004         28.2504
   -979800.61349   -761830.48448  20457789.5974                   20457787.1904
        50.0004         39.5004
  -3366121.72749  -2616958.16146  23965595.2694                   23965591.9484
        42.0004         22.5004
    685925.19549    529087.69647  22174668.0264                   22174665.5074
        47.7504         32.7504
 03  1 15 16 26 44.9990000  0  7G10G28G 8G13G27G29G31
     19838.45349     12299.74747  23557268.3314                   23557265.8004
        44.2504         26.0004
  -2655702.03949  -2063999.33848  21009138.4724                   21009135.0114
        51.5004         39.7504
  -1896699.24249  -1475382.35648  20182359.1984                   20182356.5584
        53.0004         41.5004
   2088839.77349   1608457.61347  22267327.5504                   22267326.1444
        45.0004         30.0004
   -991682.28549   -771088.95447  20455528.6594                   20455526.1514
        49.5004         38.0004
  -3430260.65249  -2666936.53746  23953389.6674                   23953387.0654
        42.5004         23.2504
    700493.23449    540439.38247  22177439.9254                   22177438.2064
        47.7504         32.2504
 03  1 15 16 26 59.9990000  0  7G10G28G 8G13G27G29G31
     24102.95349     15622.67247  23558079.8554                   23558078.1794
        43.7504         26.2504
  -2692383.42249  -2092582.20548  21002158.1204                   21002154.4444
        50.5004         40.0004
  -1921459.50849  -1494676.07548  20177647.7064                   20177644.9804
        51.0004         40.2504
   2121285.91849   1633740.24147  22273502.0814                   22273499.7884
        46.7504         32.2504
  -1003500.01249   -780297.59648  20453279.9174                   20453277.3084
        49.7504         39.7504
  -3494354.63349  -2716879.90346  23941193.1594                   23941190.7724
        40.5004         22.5004
    715192.01649    551892.94947  22180237.1444                   22180235.4764
        45.2504         29.5004
 03  1 15 16 27 14.9990000  0  7G10G28G 8G13G27G29G31
     28473.23849     19028.06046  23558911.5264                   23558909.8514
        42.2504         25.5004
  -2728981.39549  -2121100.13748  20995193.4954                   20995190.1164
        50.7504         40.0004
  -1946154.40649  -1513918.85647  20172948.4334                   20172945.2924
        50.7504         38.5004
   2153802.84049   1659078.02547  22279689.7924                   22279687.7724
        47.0004         32.7504
  -1015254.01649   -789456.56147  20451043.2144                   20451040.6714
        49.0004         37.5004
  -3558403.87549  -2766788.45246  23929004.3004                   23929002.8154
        41.0004         22.7504
    730020.95749    563447.91447  22183059.2064                   22183057.2884
        46.0004         28.5004
 03  1 15 16 27 29.9990000  0  7G10G28G 8G13G27G29G31
     32948.37149     22515.10346  23559763.4954                   23559761.1634
        43.5004         24.2504
  -2765496.44949  -2149553.41848  20988245.1444                   20988241.2884
        51.0004         39.7504
  -1970784.43049  -1533111.12047  20168261.2924                   20168258.3824
        51.5004         39.0004
   2186389.68849   1684470.34047  22285890.9094                   22285888.8154
        45.5004         32.5004
  -1026944.67649   -798566.22247  20448818.7924                   20448815.7104
        49.7504         39.0004
  -3622408.59449  -2816662.30446  23916824.6834                   23916822.9174
        41.7504         24.5004
    744979.19549    575103.62947  22185905.6904                   22185903.8234
        45.5004         30.5004
 03  1 15 16 27 44.9990000  0  7G10G28G 8G13G27G29G31
     37529.56349     26084.87047  23560634.0734                   23560632.4994
        40.5004         25.7504
  -2801927.16049  -2177941.02648  20981312.8234                   20981309.0424
        51.5004         39.7504
  -1995348.02749  -1552251.60448  20163586.8784                   20163584.5034
        51.7504         41.0004
   2219047.68449   1709918.05647  22292105.4014                   22292104.2184
        45.5004         31.0004
  -1038570.56249   -807625.37047  20446606.1284                   20446603.6634
        49.7504         38.7504
  -3686367.08649  -2866500.09846  23904654.1054                   23904652.2264
        43.0004         24.5004
    760067.89849    586861.00947  22188776.7844                   22188774.9684
        48.0004         32.5004
 03  1 15 16 27 59.9990000  0  7G10G28G 8G13G27G29G31
     42216.71149     29737.11046  23561525.8234                   23561524.5464
        43.0004         23.2504
  -2838273.46149  -2206262.81248  20974396.3004                   20974393.0304
        50.5004         40.2504
  -2019844.84049  -1571340.04348  20158925.2924                   20158922.6364
        51.5004         40.7504
   2251776.69149   1735421.11747  22298333.7614                   22298332.3124
        46.7504         33.2504
  -1050131.32049   -816633.76648  20444406.3944                   20444403.7184
        50.0004         40.2504
  -3750278.97349  -2916301.55046  23892492.3704                   23892489.9724
        42.5004         25.5004
    775286.82049    598719.89147  22191673.3704                   22191671.6834
        47.5004         32.0004
 03  1 15 16 28 14.9990000  0  7G10G28G 8G13G27G29G31
     47007.98849     33470.50847  23562438.0194                   23562435.9834
        41.5004         25.7504
  -2874536.84049  -2234520.02448  20967495.6754                   20967492.0934
        51.7504         41.0004
  -2044276.41049  -1590377.62347  20154275.9174                   20154273.3124
        50.5004         38.7504
   2284574.83649   1760978.04947  22304574.9564                   22304573.3864
        46.0004         31.5004
  -1061628.34449   -825592.54648  20442218.8234                   20442216.0814
        51.7504         42.7504
  -3814145.21149  -2966067.46146  23880339.4804                   23880337.1674
        41.5004         22.2504
    790634.46949    610679.02847  22194594.1594                   22194592.0894
        47.2504         31.5004
 03  1 15 16 28 29.9990000  0  7G10G28G 8G13G27G29G31
     51902.52749     37284.38246  23563369.3864                   23563368.5154
        42.5004         25.5004
  -2910717.88749  -2262713.03948  20960610.6834                   20960606.9644
        51.7504         40.5004
  -2068643.16449  -1609364.74447  20149639.2304                   20149636.3974
        50.5004         38.5004
   2317441.33649   1786588.23547  22310829.5734                   22310827.3004
        46.0004         31.5004
  -1073062.20349   -834502.06248  20440042.8554                   20440040.0344
        51.5004         41.7504
  -3877966.26249  -3015798.23046  23868194.3704                   23868191.9294
        41.0004         22.7504
    806109.77749    622737.66947  22197538.9484                   22197536.8904
        47.7504         32.7504
 03  1 15 16 28 44.9990000  0  7G10G28G 8G13G27G29G31
     56900.88349     41179.16146  23564320.7694                   23564320.1364
        39.5004         24.0004
  -2946815.98849  -2290841.42747  20953741.3314                   20953737.8434
        51.5004         39.2504
  -2092944.23849  -1628300.67248  20145015.0034                   20145012.3044
        50.5004         40.7504
   2350376.66049   1812252.04647  22317097.1204                   22317095.1054
        46.5004         32.7504
  -1084431.86349   -843361.54548  20437879.4174                   20437876.7304
        49.7504         40.2504
  -3941740.90649  -3065492.75547  23856058.4804                   23856056.6324
        44.0004         27.7504
    821713.21549    634896.16147  22200508.1754                   22200506.0694
        47.0004         31.7504
 03  1 15 16 28 59.9990000  0  7G10G28G 8G13G27G29G31
     62004.27349     45155.80746  23565291.5654                   23565290.9604
        39.7504         24.0004
  -2982829.48849  -2318903.90048  20946888.5194                   20946884.3664
        50.7504         39.7504
  -2117177.86349  -1647184.03848  20140403.5504                   20140400.5894
        50.5004         40.7504
   2383382.13749   1837970.54047  22323377.6594                   22323375.7884
        46.7504         32.2504
  -1095735.77049   -852169.81548  20435728.3784                   20435725.6634
        50.2504         40.5004
  -4005467.25449  -3115149.68347  23843931.7694                   23843929.6054
        43.0004         26.5004
    837446.10949    647155.52947  22203501.7694                   22203500.1794
        47.0004         31.7504
 03  1 15 16 29 14.9990000  0  7G10G28G 8G13G27G29G31
     67213.74649     49215.08746  23566283.8944                   23566281.8394
        40.2504         23.7504
  -3018757.06649  -2346899.42848  20940051.3944                   20940047.8514
        52.0004         39.7504
  -2141342.57849  -1666013.71348  20135805.2924                   20135802.4294
        51.5004         42.0004
   2416458.85249   1863744.54047  22329672.2694                   22329670.8194
        44.7504         29.0004
  -1106972.32449   -860925.58848  20433590.2144                   20433587.3584
        50.0004         39.5004
  -4069143.78149  -3164767.75547  23831815.1444                   23831812.3704
        44.7504         26.0004
    853309.67249    659516.69547  22206520.1754                   22206518.4834
        47.7504         31.7504
 03  1 15 16 29 29.9990000  0  7G10G28G 8G13G27G29G31
     72526.22749     53354.57346  23567294.3154                   23567291.9404
        41.2504         23.0004
  -3054601.23449  -2374829.98148  20933230.5974                   20933226.8554
        51.5004         39.5004
  -2165441.05949  -1684791.76248  20131219.4174                   20131216.4214
        50.5004         40.2504
   2449603.76249   1889571.66047  22335979.7304                   22335977.3194
        46.7504         33.0004
  -1118144.22349   -869630.98148  20431464.1754                   20431461.7374
        50.7504         40.5004
  -4132772.80149  -3214348.86247  23819706.6984                   23819704.5504
        44.2504         27.2504
    869300.78949    671977.26847  22209563.3554                   22209561.8154
        46.5004         30.7504
 03  1 15 16 29 44.9990000  0  7G10G28G 8G13G27G29G31
     77943.40249     57575.77047  23568325.8784                   23568324.0264
        41.0004         26.5004
  -3090360.53549  -2402694.36448  20926425.9874                   20926422.0734
        53.0004         40.0004
  -2189471.39549  -1703516.72148  20126646.7614                   20126643.9994
        51.5004         41.5004
   2482818.42249   1915453.15947  22342299.9404                   22342298.4834
        45.0004         31.2504
  -1129249.43749   -878284.41647  20429350.9404                   20429348.0424
        49.5004         38.5004
  -4196352.25449  -3263891.30447  23807607.8944                   23807605.7064
        44.5004         26.5004
    885421.12949    684538.51547  22212630.6514                   22212629.0694
        47.7504         31.7504
 03  1 15 16 29 59.9990000  0  7G10G28G 8G13G27G29G31
     83463.54749     61877.12146  23569375.8394                   23569374.9444
        41.5004         25.5004
  -3126036.14849  -2430493.54548  20919636.7534                   20919632.9644
        51.2504         40.2504
  -2213434.59849  -1722189.36348  20122086.5504                   20122084.0584
        50.2504         40.7504
   2516101.39549   1941387.87447  22348633.5194                   22348631.8154
        46.7504         33.2504
  -1140289.14549   -886886.82248  20427250.0034                   20427247.4134
        50.0004         40.2504
  -4259882.92249  -3313395.70047  23795518.4094                   23795516.3394
        43.5004         26.0004
    901669.08649    697199.23947  22215722.9564                   22215721.0034
        48.0004         32.0004
 03  1 15 16 30 14.9990000  0  7G10G28G 8G13G27G29G31
     89086.81349     66258.78246  23570445.3784                   23570445.2534
        36.0004         21.2504
  -3161627.75849  -2458227.27847  20912864.0974                   20912860.0074
        50.5004         38.0004
  -2237330.27349  -1740809.38848  20117539.4724                   20117536.2884
        51.0004         41.0004
   2549452.59049   1967375.76347  22354980.5424                   22354978.2144
        46.0004         32.5004
  -1151262.88749   -895437.82548  20425161.7764                   20425159.4334
        50.5004         41.2504
  -4323364.29749  -3362861.75546  23783438.1204                   23783435.0304
        41.5004         22.5004
    918044.64149    709959.35447  22218839.7764                   22218838.1244
        46.5004         32.0004
 03  1 15 16 30 29.9990000  0  7G10G28G 8G13G27G29G31
     94812.96549     70720.61846  23571535.7844                   23571535.0624
        38.0004         19.2504
  -3197135.36349  -2485895.54747  20906107.1364                   20906103.6674
        50.2504         37.7504
  -2261158.30949  -1759376.71448  20113005.0264                   20113002.4214
        50.7504         41.2504
   2582871.83249   1993416.65047  22361339.7374                   22361337.5224
        46.0004         31.7504
  -1162170.45349   -903937.24748  20423086.4254                   20423083.7574
        50.5004         41.5004
  -4386796.08649  -3412289.14246  23771367.1754                   23771364.5464
        43.7504         25.2504
    934547.55149    722818.71447  22221979.5264                   22221978.2224
        46.2504         32.0004
 03  1 15 16 30 44.9990000  0  7G10G28G 8G13G27G29G31
    100641.48049     75262.30246  23572645.3154                   23572644.2264
        39.2504         21.7504
  -3232559.23849  -2513498.59247  20899366.3234                   20899362.8354
        50.5004         37.7504
  -2284918.80949  -1777891.41148  20108483.7064                   20108481.3664
        50.5004         41.5004
   2616358.53549   2019510.12347  22367712.1124                   22367709.8124
        45.0004         31.5004
  -1173012.16849   -912385.36948  20421023.3474                   20421020.7024
        51.0004         41.2504
  -4450178.07049  -3461677.72747  23759306.2224                   23759303.5544
        45.0004         27.0004
    951177.36749    735776.97847  22225144.2454                   22225142.8554
        46.7504         31.7504
 03  1 15 16 30 59.9990000  0  7G10G28G 8G13G27G29G31
    106572.83249     79884.12546  23573774.5264                   23573772.8194
        40.0004         21.5004
  -3267898.45749  -2541035.65747  20892641.5264                   20892638.1014
        49.7504         38.0004
  -2308610.76249  -1796352.68348  20103975.1984                   20103972.9014
        50.7504         41.2504
   2649913.29349   2045656.60947  22374097.3864                   22374095.2304
        46.0004         31.2504
  -1183786.93749   -920781.30348  20418972.7064                   20418970.3624
        51.2504         41.7504
  -4513509.06249  -3511026.58647  23747254.9404                   23747251.8944
        44.2504         27.5004
    967934.69549    748834.59247  22228333.5504                   22228331.8004
        46.7504         30.2504
 03  1 15 16 31 14.9990000  0  7G10G28G 8G13G27G29G31
    112604.00449     84583.77846  23574921.4484                   23574919.6634
        41.5004         23.0004
  -3303155.93749  -2568509.03648  20885932.4404                   20885928.9374
        50.7504         39.7504
  -2332236.92649  -1814762.68448  20099479.2144                   20099476.5424
        50.7504         40.5004
   2683533.20749   2071853.84747  22380495.2844                   22380493.0384
        46.0004         32.5004
  -1194497.33649   -929127.05348  20416934.9094                   20416932.4014
        49.5004         39.7504
  -4576791.55949  -3560337.68047  23735212.7924                   23735210.2924
        44.2504         26.2504
    984816.53149    761989.19147  22231545.5584                   22231543.5194
        46.5004         30.7504
 03  1 15 16 31 29.9990000  0  7G10G28G 8G13G27G29G31
    118737.76249     89363.26447  23576087.9804                   23576087.6164
        41.2504         26.5004
  -3338328.59449  -2595916.31348  20879239.0974                   20879235.6554
        51.5004         40.7504
  -2355794.00049  -1833118.88148  20094996.9254                   20094993.8394
        51.5004         41.0004
   2717220.89549   2098103.92747  22386905.9174                   22386903.8434
        47.7504         32.2504
  -1205140.30949   -937420.32648  20414908.9334                   20414907.0034
        50.5004         40.5004
  -4640022.35249  -3609608.40946  23723179.9174                   23723177.8824
        42.5004         25.0004
   1001825.51249    775242.92647  22234782.6514                   22234780.5074
        47.0004         30.0004
 03  1 15 16 31 44.9990000  0  7G10G28G 8G13G27G29G31
    124976.39849     94224.45046  23577275.7534                   23577275.7534
        42.0004         25.2504
  -3373413.82049  -2623255.46948  20872562.8624                   20872558.9684
        51.5004         41.0004
  -2379279.31649  -1851419.14548  20090527.5894                   20090524.5304
        51.2504         41.5004
   2750978.68049   2124408.62247  22393329.6754                   22393327.9834
        47.5004         32.2504
  -1215713.07049   -945658.85348  20412897.5584                   20412895.1984
        50.2504         40.0004
  -4703198.25849  -3658836.43346  23711157.8554                   23711156.3354
        43.5004         25.0004
   1018963.98849    788597.53147  22238044.0194                   22238042.4804
        46.5004         31.0004
 03  1 15 16 31 59.9990000  0  7G10G28G 8G13G27G29G31
    131314.77249     99163.30247  23578482.5734                   23578482.5264
        41.5004         26.0004
  -3408416.59049  -2650530.35548  20865901.8474                   20865898.3084
        52.5004         40.5004
  -2402697.56249  -1869667.14148  20086071.2534                   20086068.7694
        51.0004         41.0004
   2784801.37949   2150763.91147  22399766.5654                   22399764.0894
        46.7504         32.2504
  -1226220.45749   -953846.44348  20410897.9724                   20410895.5264
        49.7504         40.0004
  -4766324.04749  -3708025.37346  23699145.9094                   23699143.5114
        43.5004         22.0004
   1036226.75849    802048.99547  22241328.9954                   22241327.5224
        48.0004         31.7504
 03  1 15 16 32 14.9990000  0  7G10G28G 8G13G27G29G31
    137753.94549    104180.84146  23579707.1674                   23579706.6874
        40.2504         25.2504
  -3443335.35949  -2677739.80148  20859257.0814                   20859253.3354
        51.2504         40.2504
  -2426047.18449  -1887861.67648  20081628.1204                   20081625.2574
        49.7504         40.5004
   2818690.25049   2177170.75547  22406214.7144                   22406213.1594
        46.0004         32.0004
  -1236660.76649   -961981.75948  20408911.3704                   20408908.6984
        49.2504         40.0004
  -4829397.73849  -3757173.68846  23687142.8004                   23687140.9994
        43.2504         23.5004
   1053615.16449    815598.35647  22244638.0504                   22244636.2844
        47.5004         31.7504
 03  1 15 16 32 29.9990000  0  7G10G28G 8G13G27G29G31
    144290.55949    109274.25846  23580950.4484                   23580950.4254
        40.2504         23.5004
  -3478173.17649  -2704886.16448  20852627.7304                   20852623.8274
        51.0004         40.7504
  -2449331.19549  -1906005.06848  20077197.1984                   20077194.3124
        51.2504         41.0004
   2852642.04349   2203626.60747  22412675.3554                   22412673.7454
        45.7504         31.7504
  -1247036.94949   -970067.12648  20406936.8314                   20406934.1284
        49.7504         40.5004
  -4892422.03149  -3806283.58146  23675149.7844                   23675147.1874
        43.0004         25.0004
   1071125.82049    829242.97647  22247970.3864                   22247968.5584
        47.5004         32.0004
 03  1 15 16 32 44.9990000  0  7G10G28G 8G13G27G29G31
    150929.84849    114447.63646  23582213.3864                   23582213.9374
        37.7504         22.0004
  -3512924.68749  -2731965.26948  20846014.8234                   20846010.9134
        51.7504         41.0004
  -2472543.85249  -1924092.87548  20072779.8234                   20072776.7224
        50.7504         41.0004
   2886662.05549   2230135.64347  22419149.7224                   22419147.7454
        46.2504         31.5004
  -1257343.29749   -978098.05548  20404975.7844                   20404973.2654
        50.2504         40.5004
  -4955391.22749  -3855350.52546  23663167.5114                   23663164.4834
        44.0004         25.2504
   1088763.84449    842986.86947  22251326.3944                   22251325.1404
        47.5004         31.0004
 03  1 15 16 32 59.9990000  0  7G10G28G 8G13G27G29G31
    157669.35249    119699.17746  23583497.1444                   23583495.1284
        38.0004         21.2504
  -3547592.28949  -2758979.00348  20839417.5654                   20839413.9724
        51.0004         40.5004
  -2495687.44949  -1942126.86748  20068375.8864                   20068373.0584
        51.2504         41.0004
   2920747.44149   2256695.60047  22425635.6984                   22425634.2024
        46.7504         32.2504
  -1267582.19549   -986076.45048  20403027.4334                   20403024.8314
        51.0004         40.2504
  -5018307.31649  -3904376.03446  23651194.5654                   23651192.1874
        43.5004         23.7504
   1106526.83649    856828.10247  22254706.4724                   22254704.9804
        46.0004         30.2504
 03  1 15 16 33 14.9990000  0  7G10G28G 8G13G27G29G31
    164509.31349    125028.94646  23584798.0344                   23584797.8314
        37.2504         23.0004
  -3582175.30949  -2785926.83048  20832836.5894                   20832832.9644
        51.5004         40.7504
  -2518761.20349  -1960106.43148  20063985.1984                   20063982.4254
        51.2504         41.0004
   2954898.61749   2283306.83547  22432134.4174                   22432133.4214
        45.0004         31.5004
  -1277752.77749   -994001.59748  20401092.0734                   20401089.5074
        50.7504         40.5004
  -5081169.37149  -3953359.49946  23639232.3084                   23639230.5074
        43.2504         25.2504
   1124414.89549    870766.81047  22258110.4954                   22258109.6124
        45.7504         31.0004
 03  1 15 16 33 29.9990000  0  7G10G28G 8G13G27G29G31
    171448.72349    130436.21346  23586119.5114                   23586118.5654
        39.2504         25.0004
  -3616674.44549  -2812809.29248  20826272.0504                   20826268.0934
        51.7504         41.0004
  -2541765.66049  -1978031.99148  20059607.5264                   20059604.8554
        51.2504         41.0004
   2989114.65249   2309968.60347  22438645.7764                   22438644.5194
        45.0004         31.7504
  -1287855.68749  -1001874.00248  20399169.6984                   20399166.8584
        50.2504         40.5004
  -5143977.81649  -4002301.18047  23627280.4484                   23627278.7534
        43.5004         27.0004
   1142427.19949    884802.31447  22261537.9254                   22261536.8904
        45.7504         30.0004
 03  1 15 16 33 44.9990000  0  7G10G28G 8G13G27G29G31
    178488.20749    135921.45446  23587458.2764                   23587458.4874
        39.0004         23.2504
  -3651088.81649  -2839625.69048  20819722.9564                   20819719.3434
        51.2504         40.5004
  -2564699.83649  -1995902.80348  20055243.4724                   20055240.8234
        51.0004         41.7504
   3023396.14549   2336681.38847  22445169.3554                   22445168.1474
        45.5004         31.5004
  -1297889.86749  -1009692.86048  20397260.1364                   20397257.4604
        50.7504         40.5004
  -5206731.26249  -4051199.99247  23615339.0814                   23615336.6014
        44.0004         26.0004
   1160564.36749    898935.14747  22264989.7454                   22264987.8624
        46.0004         30.5004
 03  1 15 16 33 59.9990000  0  7G10G28G 8G13G27G29G31
    185627.48049    141484.48346  23588816.5974                   23588816.5934
        39.0004         22.5004
  -3685418.29749  -2866375.94048  20813190.5504                   20813186.8394
        52.0004         40.5004
  -2587563.35549  -2013718.54948  20050892.6594                   20050890.2724
        51.7504         41.0004
   3057742.97749   2363445.07947  22451705.4014                   22451704.0264
        46.2504         31.7504
  -1307855.11349  -1017458.01448  20395363.3004                   20395361.2654
        50.7504         40.5004
  -5269429.35249  -4100055.65847  23603407.8394                   23603405.7494
        44.5004         27.0004
   1178826.13749    913165.05847  22268464.5654                   22268462.7764
        46.0004         30.0004
 03  1 15 16 34 14.9990000  0  8G10G28G 7G 8G13G27G29G31
    192865.18449    147124.12046  23590195.5264                   23590192.6904
        37.5004         21.0004
  -3719664.18749  -2893061.06748  20806673.6514                   20806670.1474
        52.0004         40.7504
   -196240.43759   -138001.26656  23932497.8394                   23932498.3084
        40.0004         21.5004
  -2610357.49249  -2031480.23248  20046555.1674                   20046552.2494
        51.0004         41.0004
   3092153.71949   2390258.56947  22458253.3154                   22458252.2374
        45.0004         31.5004
  -1317752.35549  -1025170.17348  20393480.5734                   20393477.7724
        51.5004         40.2504
  -5332072.89549  -4148868.84947  23591487.4954                   23591485.2224
        44.0004         27.2504
   1197211.16849    927491.02347  22271963.3394                   22271961.8314
        45.7504         30.5004
 03  1 15 16 34 29.9990000  0  8G10G28G 7G 8G13G27G29G31
    200198.25849    152838.22546  23591591.7694                   23591588.2104
        40.5004         22.0004
  -3753829.09849  -2919683.07948  20800172.0034                   20800168.4014
        51.5004         40.5004
   -264678.98849   -191330.00146  23919474.9484                   23919474.6794
        41.5004         21.5004
  -2633084.54749  -2049189.64148  20042230.2144                   20042227.4684
        50.2504         41.0004
   3126625.40649   2417119.55847  22464813.4014                   22464812.2844
        45.0004         31.7504
  -1327584.21549  -1032831.38648  20391609.5584                   20391606.8194
        51.0004         40.5004
  -5394664.20749  -4197641.30046  23579576.2924                   23579574.7694
        43.7504         25.0004
   1215716.43449    941910.67347  22275484.3474                   22275483.1984
        44.5004         30.2504
 03  1 15 16 34 44.9990000  0  8G10G28G 7G 8G13G27G29G31
    207627.82449    158627.43646  23593005.6754                   23593002.4874
        42.5004         24.5004
  -3787911.69549  -2946240.95448  20793686.1904                   20793682.6244
        51.5004         40.5004
   -333107.09049   -244650.58246  23906452.7924                   23906453.0424
        40.5004         22.0004
  -2655743.11749  -2066845.68148  20037918.4484                   20037915.4874
        50.7504         40.7504
   3161159.09049   2444028.83847  22471384.5974                   22471384.0584
        46.0004         31.7504
  -1337349.12149  -1040440.42648  20389751.1834                   20389748.8584
        51.0004         40.7504
  -5457201.67249  -4246371.82046  23567676.4094                   23567673.5464
        44.0004         25.0004
   1234343.13749    956424.94547  22279029.0264                   22279027.4054
        44.7504         29.5004
 03  1 15 16 34 59.9990000  0  8G10G28G 7G 8G13G27G29G31
    215151.69949    164490.16847  23594436.3394                   23594435.1164
        42.0004         27.5004
  -3821913.75049  -2972736.07848  20787216.0584                   20787212.2144
        51.7504         40.5004
   -401526.35449   -297964.25646  23893432.7224                   23893434.4404
        39.2504         22.5004
  -2678334.84849  -2084449.64348  20033619.2374                   20033616.6404
        51.0004         41.2504
   3195752.66449   2470984.81247  22477968.3234                   22477966.8044
        45.7504         30.7504
  -1347048.78149  -1047998.61148  20387905.3624                   20387902.9724
        49.7504         41.0004
  -5519686.56649  -4295061.35946  23555785.6754                   23555783.2804
        44.5004         24.0004
   1253089.08649    971032.13847  22282596.6444                   22282595.1364
        44.2504         29.5004
 03  1 15 16 35 14.9990000  0  8G10G28G 7G 8G13G27G29G31
    222770.67649    170426.97246  23595885.9254                   23595885.3824
        41.5004         25.5004
  -3855834.47349  -2999167.82548  20780761.4484                   20780757.6084
        52.0004         40.5004
   -469935.35949   -351270.08446  23880414.9334                   23880416.9764
        39.2504         22.7504
  -2700858.71549  -2102000.71248  20029333.3554                   20029330.7574
        51.5004         41.5004
   3230406.88349   2497988.01347  22484562.4874                   22484561.0734
        45.0004         31.0004
  -1356682.18749  -1055505.18748  20386072.2924                   20386069.5384
        50.5004         40.5004
  -5582117.78549  -4343709.08946  23543905.2374                   23543902.9564
        43.7504         24.5004
   1271954.91449    985732.74347  22286186.6284                   22286185.1124
        44.2504         30.0004
 03  1 15 16 35 29.9990000  0  8G10G28G 7G 8G13G27G29G31
    230484.68449    176437.77547  23597353.7694                   23597353.3744
        40.5004         25.7504
  -3889673.54749  -3025535.94848  20774321.7144                   20774318.4644
        51.2504         40.0004
   -538333.70749   -404567.43146  23867399.9404                   23867401.8744
        41.0004         22.7504
  -2723314.43049  -2119498.69448  20025060.1904                   20025057.4334
        51.5004         41.5004
   3265121.78549   2525038.50847  22491168.2694                   22491167.2144
        44.5004         30.5004
  -1366248.92249  -1062959.80848  20384251.8784                   20384248.7414
        50.0004         40.2504
  -5644494.77349  -4392314.53046  23532035.1594                   23532033.3664
        43.2504         25.0004
   1290940.60949   1000526.76947  22289799.9484                   22289797.8474
        45.2504         29.5004
 03  1 15 16 35 44.9990000  0  8G10G28G 7G 8G13G27G29G31
    238295.23449    182523.86846  23598840.8474                   23598840.0504
        40.5004         24.2504
  -3923429.23449  -3051839.07848  20767898.4254                   20767894.9484
        51.0004         39.7504
   -606719.21949   -457854.85746  23854385.8314                   23854387.5074
        39.2504         22.5004
  -2745699.98049  -2136941.99548  20020800.3944                   20020797.3194
        50.7504         41.2504
   3299898.77049   2552137.39847  22497786.3084                   22497784.9524
        45.5004         30.2504
  -1375747.06249  -1070360.98248  20382444.4954                   20382441.5384
        51.0004         40.2504
  -5706815.41449  -4440876.10446  23520176.1284                   23520174.6444
        43.2504         25.2504
   1310047.67649   1015415.35147  22293435.6514                   22293434.1634
        45.7504         29.7504
 03  1 15 16 35 59.9990000  0  8G10G28G 7G 8G13G27G29G31
    246200.65249    188683.87347  23600345.4014                   23600343.8124
        41.2504         27.0004
  -3957102.75449  -3078078.19648  20761490.4724                   20761486.7024
        51.2504         40.7504
   -675092.66849   -511132.87746  23841374.7224                   23841377.0464
        40.7504         22.5004
  -2768016.41049  -2154331.43148  20016553.6124                   20016550.7064
        50.7504         41.5004
   3334736.40649   2579283.54647  22504415.8394                   22504414.5384
        45.0004         30.5004
  -1385177.58649  -1077709.45248  20380649.6594                   20380646.9214
        50.0004         40.2504
  -5769080.40249  -4489394.29847  23508327.4334                   23508325.3704
        43.7504         26.0004
   1329274.66449   1030397.38247  22297094.5584                   22297092.9914
        45.7504         30.7504
 03  1 15 16 36 14.9990000  0  8G10G28G 7G 8G13G27G29G31
    254199.09849    194916.39947  23601868.0424                   23601865.9834
        42.2504         27.2504
  -3990695.82449  -3104254.62248  20755097.9954                   20755094.2264
        51.5004         40.7504
   -743455.49649   -564402.65846  23828366.6054                   23828367.5034
        40.7504         22.0004
  -2790265.20749  -2171668.17648  20012319.6444                   20012316.9834
        51.2504         41.5004
   3369632.76249   2606475.42647  22511056.9804                   22511055.6324
        45.0004         30.0004
  -1394542.19549  -1085006.57748  20378867.7844                   20378865.2334
        50.5004         40.5004
  -5831291.22349  -4537870.25147  23496489.4484                   23496486.5584
        43.2504         25.7504
   1348619.66849   1045471.38647  22300775.7454                   22300774.7184
        43.7504         30.5004
 03  1 15 16 36 29.9990000  0  8G10G28G 7G 8G13G27G29G31
    262293.15249    201223.42047  23603407.5654                   23603405.8124
        42.5004         26.2504
  -4024205.65649  -3130366.18748  20748720.9404                   20748717.6554
        51.5004         40.7504
   -811804.63749   -617661.62046  23815359.7064                   23815360.6794
        40.5004         21.5004
  -2812443.49649  -2188949.97448  20008099.6514                   20008096.8824
        50.5004         41.7504
   3404590.32449   2633715.01347  22517708.4804                   22517707.2884
        45.2504         30.5004
  -1403837.85249  -1092249.97048  20377098.8314                   20377095.9804
        50.0004         40.5004
  -5893444.71149  -4586301.55746  23484661.9334                   23484658.9294
        43.2504         22.7504
   1368085.21149   1060639.30547  22304479.6204                   22304478.7304
        44.5004         30.7504
 03  1 15 16 36 44.9990000  0  8G10G28G 7G 8G13G27G29G31
    270485.76649    207607.20446  23604965.7534                   23604966.1794
        39.7504         25.5004
  -4057628.97349  -3156410.32648  20742360.8784                   20742357.0694
        51.5004         40.5004
   -880136.32449   -670907.09146  23802355.3084                   23802358.4334
        38.5004         23.0004
  -2834547.84849  -2206174.15948  20003893.4564                   20003890.8004
        50.5004         41.2504
   3439612.08249   2661004.63547  22524373.2304                   22524371.8784
        46.0004         30.2504
  -1413061.29349  -1099437.08048  20375343.9334                   20375341.2184
        50.5004         40.7504
  -5955537.19549  -4634685.35946  23472845.7694                   23472843.6514
        43.0004         22.5004
   1387674.10949   1075903.34947  22308207.3154                   22308206.5344
        45.5004         31.2504
 03  1 15 16 36 59.9990000  0  8G10G28G 7G 8G13G27G29G31
    278771.92649    214063.86746  23606541.6364                   23606542.9374
        38.7504         25.5004
  -4090970.49649  -3182390.75048  20736016.0974                   20736012.8514
        51.0004         40.5004
   -948455.10249   -724142.41846  23789355.7064                   23789357.1284
        41.5004         23.0004
  -2856582.79749  -2223344.27248  19999700.0504                   19999697.4134
        51.2504         41.5004
   3474693.05549   2688340.39847  22531048.9804                   22531047.3624
        45.5004         30.5004
  -1422216.84049  -1106571.31048  20373601.5264                   20373598.9764
        50.0004         40.5004
  -6017573.08249  -4683025.00646  23461041.2144                   23461038.6364
        43.0004         23.0004
   1407381.52049   1091259.73947  22311957.9874                   22311956.7494
        44.5004         31.5004
 03  1 15 16 37 14.9990000  0  8G10G28G 7G 8G13G27G29G31
    287153.48449    220594.79947  23608138.2694                   23608137.8314
        41.0004         26.0004
  -4124227.93749  -3208305.64648  20729687.6444                   20729683.9404
        51.5004         40.5004
  -1016758.31649   -777365.64546  23776358.3944                   23776359.6014
        41.5004         25.2504
  -2878546.16049  -2240458.58648  19995520.4334                   19995517.8554
        51.0004         41.0004
   3509835.26649   2715723.84147  22537736.3704                   22537734.6834
        46.0004         29.0004
  -1431302.27349  -1113650.89648  20371872.5894                   20371870.5224
        50.0004         41.0004
  -6079549.88349  -4731318.66946  23449247.3084                   23449244.9874
        43.0004         24.0004
   1427209.40649   1106709.99147  22315730.7614                   22315729.6164
        44.2504         31.2504
 03  1 15 16 37 29.9990000  0  8G10G28G 7G 8G13G27G29G31
    295628.08649    227198.30047  23609751.6204                   23609751.2534
        42.5004         28.0004
  -4157403.48449  -3234156.73048  20723374.5734                   20723370.6794
        51.2504         40.5004
  -1085047.80949   -830578.16946  23763363.9174                   23763364.6514
        41.5004         22.7504
  -2900439.58649  -2257518.40948  19991354.4094                   19991351.6514
        51.0004         41.2504
   3545036.46149   2743153.25947  22544435.2694                   22544433.0544
        45.2504         29.0004
  -1440319.54749  -1120677.36948  20370156.7614                   20370154.5384
        49.7504         41.0004
  -6141469.27749  -4779567.59846  23437464.6904                   23437461.6324
        42.7504         22.7504
   1447155.38749   1122252.27247  22319526.6054                   22319525.3314
        44.5004         31.5004
 03  1 15 16 37 44.9990000  0  8G10G28G 7G 8G13G27G29G31
    304196.90649    233875.24647  23611381.8944                   23611381.5194
        42.0004         26.5004
  -4190495.59449  -3259942.78848  20717076.9954                   20717073.8354
        51.0004         40.5004
  -1153321.60549   -883778.51546  23750369.9174                   23750372.9334
        38.5004         22.5004
  -2922261.59849  -2274522.59048  19987201.6124                   19987199.1244
        51.2504         41.5004
   3580297.74649   2770629.52947  22551144.9094                   22551142.7104
        45.7504         28.5004
  -1449266.91449  -1127649.36748  20368454.1204                   20368452.1244
        50.5004         41.0004
  -6203329.23849  -4827770.14246  23425692.7304                   23425690.2264
        42.5004         22.7504
   1467220.69549   1137887.53647  22323345.4094                   22323343.3974
        44.0004         31.5004
 03  1 15 16 37 59.9990000  0  8G10G28G 7G 8G13G27G29G31
    312858.58649    240624.58846  23613029.6984                   23613028.8154
        40.7504         23.0004
  -4223505.49649  -3285664.80548  20710795.8704                   20710792.1084
        51.0004         40.0004
  -1221580.59449   -936967.25646  23737381.6284                   23737383.0934
        41.2504         22.2504
  -2944013.19149  -2291471.89348  19983062.4484                   19983059.7024
        51.0004         40.7504
   3615617.70349   2798151.51247  22557866.1904                   22557864.3314
        46.5004         28.5004
  -1458145.46949  -1134567.75348  20366764.7764                   20366762.4684
        51.0004         41.5004
  -6265130.75449  -4875927.17246  23413932.3704                   23413930.0584
        42.0004         25.0004
   1487403.84049   1153614.63247  22327186.1594                   22327184.9724
        46.0004         30.5004
 03  1 15 16 38 14.9990000  0  8G10G28G 7G 8G13G27G29G31
    321613.72749    247446.74646  23614695.4644                   23614693.6514
        39.0004         22.2504
  -4256432.36349  -3311322.11248  20704529.6594                   20704526.4404
        51.5004         40.5004
  -1289823.66449   -990143.56046  23724395.8004                   23724396.3154
        40.2504         24.5004
  -2965693.27049  -2308365.48848  19978936.9094                   19978934.0384
        51.0004         40.7504
   3650996.94949   2825719.67747  22564598.9564                   22564597.2764
        44.2504         28.7504
  -1466954.23049  -1141431.74148  20365088.5194                   20365085.9174
        49.5004         41.5004
  -6326872.51649  -4924037.64146  23402183.5734                   23402181.8474
        42.2504         24.5004
   1507705.47349   1169434.04447  22331048.8004                   22331047.6014
        44.5004         30.0004
 03  1 15 16 38 29.9990000  0  8G10G28G 7G 8G13G27G29G31
    330462.27749    254341.64046  23616379.5814                   23616377.9294
        42.0004         22.7504
  -4289275.79349  -3336914.40048  20698280.1284                   20698276.6794
        51.0004         40.5004
  -1358050.11349  -1043306.94346  23711411.8944                   23711413.9254
        42.0004         25.0004
  -2987301.52349  -2325203.10148  19974824.7694                   19974822.2924
        51.2504         41.0004
   3686435.58249   2853334.13747  22571342.6834                   22571341.3354
        46.2504         29.5004
  -1475692.69949  -1148240.97348  20363425.2534                   20363422.9174
        50.5004         40.5004
  -6388554.03949  -4972101.20546  23390445.2374                   23390444.1014
        42.5004         24.5004
   1528125.56649   1185345.77147  22334934.8004                   22334934.1794
        44.2504         30.2504
 03  1 15 16 38 44.9990000  0  8G10G28G 7G 8G13G27G29G31
    339404.09449    261309.19647  23618081.6444                   23618081.1794
        41.0004         26.5004
  -4322035.72349  -3362441.62648  20692046.4484                   20692042.4724
        51.2504         41.0004
  -1426259.34849  -1096456.91146  23698432.5424                   23698433.8974
        40.2504         23.7504
  -3008837.55549  -2341984.44248  19970726.9014                   19970724.3974
        51.7504         41.0004
   3721933.41049   2880994.68147  22578097.6904                   22578096.5774
        46.2504         30.0004
  -1484360.59849  -1154995.20648  20361776.0654                   20361773.3664
        50.5004         40.0004
  -6450174.69149  -5020117.31146  23378719.9564                   23378717.7184
        42.5004         24.5004
   1548664.05549   1201349.75747  22338842.7924                   22338841.4994
        43.5004         29.5004
 03  1 15 16 38 59.9990000  0  8G10G28G 7G 8G13G27G29G31
    348438.58249    268348.96047  23619801.5504                   23619800.4404
        41.7504         27.5004
  -4354712.51249  -3387904.06548  20685828.0264                   20685824.4994
        52.0004         40.2504
  -1494451.58249  -1149593.64146  23685455.7304                   23685457.6634
        40.0004         23.7504
  -3030301.53549  -2358709.63048  19966642.6594                   19966639.8974
        50.0004         40.7504
   3757490.01249   2908701.06947  22584863.6984                   22584863.2844
        45.7504         29.5004
  -1492958.13349  -1161694.60548  20360140.1674                   20360137.5894
        49.7504         40.5004
  -6511734.38749  -5068085.87346  23367005.0654                   23367003.1204
        43.0004         23.5004
   1569320.26249   1217445.45247  22342773.5504                   22342772.9214
        43.2504         29.5004
 03  1 15 16 39 14.9990000  0  8G10G28G 7G 8G13G27G29G31
    357563.74249    275459.35047  23621537.6124                   23621536.5264
        41.0004         26.7504
  -4387307.92649  -3413303.09948  20679625.3084                   20679621.6904
        51.2504         40.2504
  -1562628.04749  -1202718.07747  23672482.4954                   23672483.5034
        40.2504         26.0004
  -3051695.03949  -2375379.90748  19962571.5974                   19962568.3124
        50.5004         41.5004
   3793103.20749   2936451.50847  22591641.2694                   22591639.9174
        45.5004         28.7504
  -1501486.80149  -1168340.35148  20358517.0734                   20358514.8784
        48.7504         40.5004
  -6573234.59049  -5116008.15446  23355302.1204                   23355299.8704
        43.5004         24.7504
   1590092.23449   1233631.36447  22346726.7534                   22346725.4054
        42.7504         28.7504
 03  1 15 16 39 29.9990000  0  8G10G28G 7G 8G13G27G29G31
    366782.60249    282642.81546  23623292.0034                   23623290.7454
        43.0004         23.5004
  -4419818.59449  -3438636.09748  20673438.5344                   20673435.1444
        51.2504         40.5004
  -1630785.20349  -1255827.46746  23659512.4094                   23659513.9564
        41.2504         22.7504
  -3073014.62549  -2391992.59748  19958514.3314                   19958511.7064
        50.5004         41.5004
   3828776.10549   2964248.51947  22598429.3704                   22598427.4254
        46.0004         28.5004
  -1509943.28149  -1174929.85648  20356907.9334                   20356905.8354
        50.5004         40.0004
  -6634671.63749  -5163881.22546  23343611.0344                   23343608.9834
        43.0004         25.0004
   1610983.01649   1249909.82647  22350702.0734                   22350701.4484
        43.5004         29.7504
 03  1 15 16 39 44.9990000  0  8G10G28G 7G 8G13G27G29G31
    376091.23449    289896.24146  23625063.3554                   23625061.4484
        41.5004         22.5004
  -4452248.09849  -3463905.85348  20667267.5264                   20667263.8004
        51.7504         40.5004
  -1698926.17249  -1308924.27946  23646545.6984                   23646547.1554
        40.0004         24.5004
  -3094263.71949  -2408550.34548  19954470.7144                   19954468.2304
        51.0004         41.0004
   3864504.84049   2992089.01147  22605228.0194                   22605226.3944
        44.2504         27.5004
  -1518330.90249  -1181465.68948  20355312.0194                   20355309.5654
        49.2504         40.5004
  -6696048.74649  -5211707.54747  23331931.5894                   23331930.0384
        42.5004         26.5004
   1631988.70749   1266277.84347  22354699.5814                   22354698.4684
        42.0004         30.2504
 03  1 15 16 39 59.9990000  0  8G10G28G 7G 8G13G27G29G31
    385492.60549    297221.95146  23626852.0654                   23626848.8274
        41.0004         19.7504
  -4484593.25449  -3489109.88348  20661112.6594                   20661109.2844
        51.0004         40.7504
  -1767047.35549  -1362005.66146  23633582.6204                   23633583.8864
        39.5004         24.7504
  -3115439.03949  -2425050.61248  19950441.4094                   19950438.6014
        51.5004         41.0004
   3900292.42249   3019975.37847  22612038.7304                   22612036.7574
        44.5004         27.7504
  -1526646.32849  -1187945.27348  20353729.2694                   20353727.5154
        50.0004         40.5004
  -6757362.28949  -5259484.33446  23320263.9254                   23320261.8904
        42.7504         25.5004
   1653112.29749   1282737.74147  22358719.0114                   22358717.4374
        42.5004         29.7504
 03  1 15 16 40 14.9990000  0  8G10G28G 7G 8G13G27G29G31
    394984.49249    304618.21246  23628658.6364                   23628654.4834
        43.0004         20.5004
  -4516855.87949  -3514249.59348  20654973.1514                   20654969.5424
        51.0004         41.0004
  -1835150.44949  -1415072.95647  23620622.5264                   23620624.6364
        41.5004         25.7504
  -3136542.11349  -2441494.57548  19946425.5114                   19946422.6124
        51.7504         41.7504
   3936136.87549   3047906.03647  22618859.6124                   22618858.0584
        44.5004         27.5004
  -1534891.15249  -1194369.82348  20352160.4094                   20352158.5624
        49.5004         40.2504
  -6818613.78149  -5307212.75347  23308608.3474                   23308606.6904
        43.0004         26.0004
   1674351.64549   1299287.83447  22362761.3394                   22362760.0894
        42.0004         29.7504
 03  1 15 16 40 29.9990000  0  8G10G28G 7G 8G13G27G29G31
    404568.53549    312086.23446  23630483.0894                   23630480.0504
        45.0004         24.5004
  -4549034.20349  -3539323.62848  20648849.7224                   20648846.1944
        51.0004         41.0004
  -1903233.12149  -1468124.26047  23607666.9804                   23607668.6794
        41.2504         25.7504
  -3157570.96549  -2457880.70548  19942424.1054                   19942421.4444
        51.0004         41.7504
   3972039.65649   3075882.12247  22625691.2534                   22625690.3944
        43.0004         28.0004
  -1543063.46549  -1200737.90348  20350605.5034                   20350603.0504
        50.2504         40.2504
  -6879800.93449  -5354891.06247  23296964.8314                   23296962.9134
        43.5004         26.0004
   1695708.36749   1315929.40947  22366825.3314                   22366824.1514
        43.0004         29.0004
 03  1 15 16 40 44.9990000  0  8G10G28G 7G 8G13G27G29G31
    414243.78149    319625.29947  23632324.3234                   23632322.4524
        42.2504         27.2504
  -4581128.77349  -3564332.38848  20642742.4874                   20642738.8314
        52.0004         41.0004
  -1971295.62949  -1521159.91546  23594714.3554                   23594716.5424
        38.0004         24.5004
  -3178526.03949  -2474209.35648  19938436.3474                   19938433.8044
        50.7504         41.2504
   4007999.91849   3103903.04747  22632535.0894                   22632533.6364
        44.5004         28.0004
  -1551163.67649  -1207049.77248  20349064.2614                   20349061.5544
        49.2504         40.0004
  -6940924.10249  -5402519.52347  23285334.1124                   23285331.5034
        43.7504         27.0004
   1717181.58249   1332661.72747  22370911.4724                   22370909.7304
        42.7504         28.7504
 03  1 15 16 40 59.9990000  0  8G10G28G 7G 8G13G27G29G31
    424009.93849    327235.22546  23634182.2064                   23634181.5464
        41.5004         25.5004
  -4613139.78549  -3589276.04848  20636651.1284                   20636647.3784
        51.7504         41.0004
  -2039337.80149  -1574179.73546  23581767.3004                   23581768.4764
        39.5004         23.7504
  -3199407.30149  -2490480.48748  19934462.9954                   19934460.1634
        51.2504         41.5004
   4044017.24649   3131968.43247  22639388.6444                   22639387.4014
        45.0004         27.5004
  -1559191.83649  -1213305.51348  20347536.2224                   20347533.8154
        49.5004         40.7504
  -7001982.98049  -5450097.89747  23273714.3394                   23273712.6754
        43.5004         26.0004
   1738770.84449   1349484.47747  22375019.4804                   22375017.8624
        43.2504         29.0004
 03  1 15 16 41 14.9990000  0  8G10G28G 7G 8G13G27G29G31
    433867.90649    334916.64746  23636057.9334                   23636057.8974
        41.0004         24.5004
  -4645066.06649  -3614153.69048  20630575.6204                   20630572.1554
        51.5004         40.5004
  -2107358.08249  -1627182.49546  23568824.2224                   23568823.7844
        41.2504         25.5004
  -3220213.59049  -2506693.20148  19930503.4254                   19930500.9994
        51.0004         42.0004
   4080092.57449   3160078.98047  22646253.6124                   22646252.3664
        43.5004         27.7504
  -1567146.50449  -1219503.98748  20346022.6674                   20346020.3194
        49.7504         41.0004
  -7062976.08249  -5497624.99747  23262107.5584                   23262105.7024
        43.2504         25.7504
   1760477.00049   1366398.31047  22379149.5344                   22379148.5384
        42.0004         29.0004
 03  1 15 16 41 29.9990000  0  8G10G28G 7G 8G13G27G29G31
    443814.91449    342667.51646  23637949.9334                   23637949.8944
        38.2504         22.5004
  -4676910.04349  -3638967.19248  20624515.6594                   20624512.5504
        50.7504         41.0004
  -2175358.72349  -1680169.97046  23555883.9564                   23555883.8824
        41.0004         23.7504
  -3240946.99649  -2522849.11748  19926558.2064                   19926555.2884
        51.0004         41.2504
   4116223.27349   3188232.70047  22653128.5814                   22653128.1244
        44.0004         28.0004
  -1575030.09449  -1225647.06948  20344522.4094                   20344520.3584
        49.5004         40.5004
  -7123905.48449  -5545102.47347  23250513.2144                   23250511.4174
        42.5004         27.2504
   1782297.42249   1383401.19247  22383302.1984                   22383301.1904
        42.5004         29.0004
 03  1 15 16 41 44.9990000  0  8G10G28G 7G 8G13G27G29G31
    453849.31649    350486.40546  23639859.8864                   23639859.4804
        39.7504         22.2504
  -4708673.01249  -3663717.55848  20618471.5584                   20618467.7694
        51.0004         40.7504
  -2243340.47749  -1733142.72946  23542946.5114                   23542947.1904
        39.2504         24.5004
  -3261608.73449  -2538949.18148  19922626.2924                   19922623.9874
        51.0004         41.2504
   4152407.64849   3216428.22847  22660014.6204                   22660013.6204
        44.7504         27.7504
  -1582843.73049  -1231735.65148  20343035.6594                   20343033.6084
        50.0004         40.5004
  -7184772.09849  -5592530.98447  23238931.0114                   23238928.6834
        42.0004         26.2504
   1804230.55149   1400491.87847  22387476.5424                   22387474.9484
        41.5004         28.0004
 03  1 15 16 41 59.9990000  0  8G10G28G 7G 8G13G27G29G31
    463972.05949    358374.20946  23641786.0504                   23641785.4094
        39.7504         22.0004
  -4740353.63349  -3688403.77148  20612442.9874                   20612439.5654
        51.0004         41.0004
  -2311301.77349  -1786099.52946  23530013.2374                   23530014.8904
        40.0004         23.7504
  -3282197.27049  -2554992.22848  19918708.4954                   19918705.8124
        51.0004         41.5004
   4188646.92649   3244666.55147  22666910.7924                   22666909.7884
        45.0004         28.0004
  -1590585.80549  -1237768.45648  20341562.3554                   20341560.2304
        49.5004         40.5004
  -7245574.23049  -5639909.31846  23227360.8004                   23227358.4644
        42.0004         25.2504
   1826277.33649   1417671.13547  22391671.4174                   22391669.8234
        42.5004         28.5004
 03  1 15 16 42 14.9990000  0  8G10G28G 7G 8G13G27G29G31
    474185.17249    366332.42946  23643730.2144                   23643728.3974
        41.5004         22.7504
  -4771949.77349  -3713024.15048  20606430.5584                   20606426.8824
        50.5004         41.0004
  -2379240.01249  -1839038.37346  23517085.2924                   23517086.6714
        41.2504         25.2504
  -3302710.33249  -2570976.44248  19914804.7924                   19914802.3974
        50.7504         41.2504
   4224943.01649   3272949.12747  22673818.1054                   22673816.7844
        45.0004         28.2504
  -1598254.10949  -1243743.77848  20340103.3394                   20340100.9334
        50.0004         40.2504
  -7306309.44149  -5687235.42247  23215802.5264                   23215801.2654
        40.0004         26.0004
   1848439.84049   1434940.51247  22395888.9564                   22395887.8624
        43.5004         29.5004
 03  1 15 16 42 29.9990000  0  8G10G28G 7G 8G13G27G29G31
    484486.94149    374359.70247  23645690.3154                   23645690.0854
        42.0004         26.5004
  -4803462.76649  -3737579.74548  20600433.8154                   20600430.5934
        52.0004         40.2504
  -2447156.33249  -1891960.18047  23504161.8864                   23504161.7224
        40.5004         26.0004
  -3323149.09049  -2586902.77748  19910916.0974                   19910913.2024
        51.0004         40.5004
   4261294.18849   3301274.64047  22680735.6834                   22680734.3314
        45.7504         28.2504
  -1605849.80949  -1249662.54848  20338657.7844                   20338655.4954
        49.2504         40.7504
  -7366978.60549  -5734510.09146  23204258.2694                   23204255.7924
        41.5004         25.2504
   1870716.18449   1452298.69047  22400128.2144                   22400126.9014
        43.5004         29.0004
 03  1 15 16 42 44.9990000  0  8G10G28G 7G 8G13G27G29G31
    494874.38349    382453.73246  23647666.6984                   23647667.2764
        41.2504         25.5004
  -4834895.41049  -3762072.72448  20594452.0424                   20594449.1714
        51.2504         40.5004
  -2515053.02349  -1944866.69246  23491241.1594                   23491241.5854
        40.2504         25.0004
  -3343516.06249  -2602773.15248  19907039.6284                   19907037.2654
        51.0004         41.5004
   4297697.41049   3329640.67547  22687662.5654                   22687661.6594
        45.0004         28.0004
  -1613375.56249  -1255526.79948  20337225.6754                   20337223.7494
        50.2504         40.7504
  -7427584.16449  -5781735.22147  23192725.0034                   23192722.6984
        42.0004         26.5004
   1893103.60249   1469743.35347  22404388.4484                   22404387.9874
        44.0004         28.7504
 03  1 15 16 42 59.9990000  0  8G10G28G 7G 8G13G27G29G31
    505349.32449    390615.98246  23649660.2374                   23649661.1444
        40.0004         25.5004
  -4866245.59849  -3786501.45948  20588486.4644                   20588482.8664
        51.0004         40.5004
  -2582927.60549  -1997755.89547  23478324.8624                   23478325.8154
        39.5004         25.7504
  -3363809.04749  -2618585.89848  19903178.4954                   19903175.5464
        51.0004         41.0004
   4334154.66049   3358048.85447  22694600.6594                   22694599.3704
        44.2504         28.2504
  -1620829.02049  -1261334.72348  20335807.3624                   20335805.2024
        50.0004         40.2504
  -7488123.66849  -5828908.86247  23181205.0814                   23181202.9644
        43.0004         26.0004
   1915603.80149   1487275.91847  22408670.0734                   22408669.2964
        42.5004         29.5004
 03  1 15 16 43 14.9990000  0  8G10G28G 7G 8G13G27G29G31
    515910.50449    398845.33247  23651670.5034                   23651670.9644
        40.5004         26.2504
  -4897514.20349  -3810866.62948  20582536.3784                   20582532.7884
        50.7504         40.7504
  -2650780.70349  -2050628.44147  23465412.7454                   23465413.9334
        40.0004         26.0004
  -3384028.83249  -2634341.58748  19899330.5504                   19899328.1284
        50.7504         40.5004
   4370664.76249   3386498.20347  22701548.0584                   22701547.5504
        45.0004         28.5004
  -1628210.92649  -1267086.87148  20334402.8704                   20334400.3704
        50.0004         40.5004
  -7548597.51249  -5876031.35347  23169697.1204                   23169694.5814
        42.7504         26.0004
   1938215.70349   1504895.49547  22412973.1674                   22412972.5304
        42.5004         27.7504
 03  1 15 16 43 29.9990000  0  8G10G28G 7G 8G13G27G29G31
    526558.14549    407142.09147  23653696.5194                   23653696.7724
        39.7504         26.0004
  -4928700.80549  -3835167.88148  20576601.6204                   20576598.1444
        50.5004         40.7504
  -2718611.41449  -2103483.50846  23452504.8394                   23452506.2844
        40.5004         25.0004
  -3404174.56649  -2650039.58148  19895497.0194                   19895494.5224
        51.0004         41.7504
   4407228.08649   3414989.01247  22708506.2374                   22708505.5974
        45.5004         28.7504
  -1635520.70349  -1272782.82948  20333011.7844                   20333009.4014
        50.0004         40.2504
  -7609004.93749  -5923102.07446  23158201.7144                   23158199.7334
        43.5004         25.5004
   1960939.35949   1522602.18247  22417297.2534                   22417296.0224
        44.0004         29.0004
 03  1 15 16 43 44.9990000  0  8G10G28G 7G 8G13G27G29G31
    537292.76249    415506.62446  23655739.6514                   23655739.5114
        40.2504         24.5004
  -4959804.54349  -3859404.57448  20570682.8154                   20570679.7574
        50.7504         41.0004
  -2786418.58749  -2156320.32446  23439602.1834                   23439603.0854
        40.7504         25.5004
  -3424245.45749  -2665679.24548  19891677.8474                   19891675.0814
        51.0004         41.0004
   4443844.99249   3443521.57847  22715474.1514                   22715473.4334
        45.5004         29.5004
  -1642757.34849  -1278421.79848  20331634.8234                   20331632.7334
        50.5004         40.5004
  -7669344.75049  -5970120.15546  23146719.7304                   23146717.0114
        41.7504         25.5004
   1983775.33649   1540396.36347  22421643.0734                   22421641.6714
        44.5004         28.2504
 03  1 15 16 43 59.9990000  0  8G10G28G 7G 8G13G27G29G31
    548112.25849    423937.32546  23657799.0654                   23657797.8314
        41.7504         22.5004
  -4990827.27749  -3883578.14748  20564779.3234                   20564775.9524
        50.7504         40.5004
  -2854203.77349  -2209139.89146  23426703.6594                   23426703.6514
        41.5004         24.7504
  -3444243.07849  -2681261.83248  19887872.4724                   19887869.5264
        51.0004         41.2504
   4480513.39849   3472094.26147  22722451.8004                   22722451.3044
        45.0004         28.0004
  -1649922.51649  -1284005.07748  20330271.2144                   20330269.1904
        50.0004         41.0004
  -7729618.41449  -6017086.64147  23135249.8314                   23135247.7574
        42.0004         26.7504
   2006721.47749   1558276.40847  22426009.8624                   22426008.4484
        42.5004         27.2504
 03  1 15 16 44 14.9990000  0  8G10G28G 7G 8G13G27G29G31
    559016.32049    432433.98646  23659873.9254                   23659871.9764
        42.5004         23.2504
  -5021769.08649  -3907688.64848  20558891.2614                   20558888.1474
        50.5004         41.0004
  -2921966.72749  -2261942.20246  23413808.0734                   23413809.1244
        41.0004         25.2504
  -3464167.39549  -2696787.29148  19884080.9874                   19884078.2104
        51.2504         41.5004
   4517233.02349   3500706.88847  22729439.4014                   22729438.6284
        45.5004         27.5004
  -1657016.18049  -1289532.63848  20328921.3234                   20328919.3864
        50.2504         40.5004
  -7789825.71549  -6064001.43247  23123792.2924                   23123790.9804
        39.7504         28.0004
   2029777.62549   1576242.15947  22430397.0654                   22430395.6674
        43.7504         29.0004
 03  1 15 16 44 29.9990000  0  8G10G28G 7G 8G13G27G29G31
    570005.49249    440996.93146  23661964.7454                   23661963.7304
        42.0004         22.5004
  -5052629.05549  -3931735.39148  20553018.9404                   20553015.5734
        51.0004         40.7504
  -2989706.02749  -2314726.07346  23400917.7924                   23400918.0624
        41.0004         25.2504
  -3484017.30149  -2712254.76148  19880303.4564                   19880300.9444
        51.0004         41.0004
   4554004.57849   3529359.94947  22736437.2224                   22736436.5344
        45.5004         28.5004
  -1664037.23049  -1295003.59848  20327585.2064                   20327582.9834
        50.0004         40.2504
  -7849965.26649  -6110863.40447  23112348.3234                   23112346.8514
        43.2504         28.2504
   2052944.35249   1594294.08247  22434805.0344                   22434804.6634
        43.2504         26.7504
 03  1 15 16 44 44.9990000  0  8G10G28G 7G 8G13G27G29G31
    581078.93049    449625.54046  23664072.4804                   23664070.8274
        42.0004         24.0004
  -5083407.85949  -3955718.88748  20547162.0584                   20547158.8004
        50.7504         41.0004
  -3057422.06249  -2367491.81747  23388032.6124                   23388032.8234
        42.2504         26.5004
  -3503793.39149  -2727664.71748  19876540.3154                   19876537.7414
        51.5004         41.0004
   4590827.21149   3558052.83047  22743444.1124                   22743443.3514
        45.5004         28.7504
  -1670986.18449  -1300418.39048  20326262.9724                   20326260.8904
        50.7504         40.2504
  -7910037.32449  -6157672.81947  23100917.2694                   23100914.9834
        43.5004         27.5004
   2076220.64549   1612431.39947  22439234.4014                   22439233.9524
        41.7504         27.5004
 03  1 15 16 44 59.9990000  0  8G10G28G 7G 8G13G27G29G31
    592235.20749    458318.64646  23666194.5974                   23666194.7024
        39.7504         24.2504
  -5114106.55949  -3979639.95748  20541320.1364                   20541316.8154
        50.5004         40.7504
  -3125115.54749  -2420240.01247  23375149.9014                   23375150.8974
        41.5004         25.7504
  -3523496.40249  -2743017.73148  19872790.8554                   19872788.3234
        51.0004         41.2504
   4627699.48449   3586784.36947  22750461.2534                   22750459.8274
        46.0004         28.5004
  -1677863.92249  -1305777.69548  20324954.1674                   20324951.8704
        50.5004         40.5004
  -7970042.64549  -6204430.19947  23089498.6124                   23089496.0344
        42.5004         26.7504
   2099605.14849   1630653.02147  22443684.5034                   22443683.7724
        43.5004         28.2504
 03  1 15 16 45 14.9990000  0  8G10G28G 7G 8G13G27G29G31
    603476.65249    467078.16146  23668333.9484                   23668334.3584
        39.5004         24.7504
  -5144722.62149  -4003496.63048  20535493.9254                   20535490.4404
        51.5004         41.0004
  -3192783.56649  -2472968.31046  23362272.8864                   23362273.7844
        42.7504         25.5004
  -3543123.70749  -2758311.75348  19869056.0034                   19869053.3274
        50.7504         41.5004
   4664623.79349   3615556.47747  22757487.4644                   22757486.5034
        45.5004         28.0004
  -1684667.72349  -1311079.38348  20323659.3624                   20323657.2024
        49.7504         40.5004
  -8029978.34049  -6251133.33647  23078093.1674                   23078091.0304
        43.5004         27.0004
   2123100.32049   1648960.89047  22448155.9174                   22448154.5384
        43.0004         27.5004
 03  1 15 16 45 29.9990000  0  8G10G28G 7G 8G13G27G29G31
    614804.05549    475904.60446  23670489.4094                   23670490.2804
        40.5004         23.2504
  -5175254.95749  -4027288.06848  20529684.0114                   20529680.6714
        51.0004         41.0004
  -3260424.67249  -2525675.69447  23349401.3234                   23349402.3194
        41.7504         26.5004
  -3562673.93749  -2773545.71148  19865335.7064                   19865333.2614
        51.5004         41.7504
   4701600.89849   3644369.68147  22764523.5974                   22764523.0694
        45.5004         27.7504
  -1691396.37549  -1316322.51548  20322379.1444                   20322376.6554
        50.2504         40.0004
  -8089843.00849  -6297781.14247  23066701.3234                   23066699.1164
        42.7504         26.2504
   2146706.74649   1667355.43247  22452648.1904                   22452646.2064
        45.0004         28.2504
 03  1 15 16 45 44.9990000  0  8G10G28G 7G 8G13G27G29G31
    626214.84849    484796.02046  23672661.0974                   23672661.7844
        41.0004         25.2504
  -5205705.74249  -4051015.95448  20523889.3784                   20523885.9174
        50.2504         41.0004
  -3328040.73849  -2578363.54846  23336534.1834                   23336536.2764
        41.0004         25.2504
  -3582149.33649  -2788721.36348  19861629.5734                   19861627.0154
        51.7504         41.5004
   4738628.45749   3673222.25947  22771569.9094                   22771569.2104
        45.2504         28.5004
  -1698052.02749  -1321508.75548  20321112.1054                   20321110.3824
        50.2504         40.5004
  -8149638.22749  -6344374.83747  23055322.6834                   23055320.0654
        42.5004         27.0004
   2170422.09849   1685834.86847  22457161.4564                   22457158.9374
        44.5004         28.0004
 03  1 15 16 45 59.9990000  0  8G10G28G 7G 8G13G27G29G31
    637707.93049    493751.57546  23674848.8864                   23674848.2724
        43.0004         24.2504
  -5236075.87149  -4074681.00748  20518110.0424                   20518106.3314
        50.5004         40.7504
  -3395632.15249  -2631032.17446  23323672.8004                   23323673.1674
        43.0004         25.2504
  -3601550.33649  -2803839.05448  19857938.0814                   19857935.1634
        51.0004         41.2504
   4775705.27749   3702113.19447  22778625.5344                   22778624.5654
        46.2504         28.0004
  -1704635.16849  -1326638.50348  20319859.7144                   20319857.7414
        49.7504         40.2504
  -8209364.66449  -6390914.95847  23043957.2534                   23043954.9994
        43.0004         27.2504
   2194245.23849   1704398.29847  22461694.8004                   22461692.9604
        45.0004         29.0004
 03  1 15 16 46 14.9990000  0  8G10G28G 7G 8G13G27G29G31
    649282.49649    502770.67946  23677051.5814                   23677050.5934
        41.0004         23.7504
  -5266365.89549  -4098283.61548  20512346.3154                   20512342.6514
        51.0004         40.5004
  -3463199.11749  -2683681.76147  23310815.2534                   23310816.2654
        42.5004         25.7504
  -3620877.32449  -2818899.04148  19854259.9644                   19854257.7184
        51.0004         41.2504
   4812830.53949   3731041.87247  22785690.0734                   22785689.6124
        46.0004         28.7504
  -1711146.21949  -1331712.07448  20318621.0194                   20318618.8624
        50.0004         40.2504
  -8269022.41449  -6437401.49147  23032604.5654                   23032602.8474
        41.5004         26.7504
   2218175.34049   1723045.06947  22466248.3154                   22466247.1594
        44.7504         28.5004
 03  1 15 16 46 29.9990000  0  8G10G28G 7G 8G13G27G29G31
    660938.59449    511853.25646  23679269.8704                   23679268.2104
        42.0004         22.7504
  -5296575.27749  -4121823.39948  20506597.4724                   20506594.0584
        51.0004         40.5004
  -3530740.85249  -2736311.67546  23297962.0194                   23297963.6984
        43.0004         24.7504
  -3640129.83649  -2833901.02548  19850596.2304                   19850594.0154
        51.5004         41.0004
   4850004.61349   3760008.58647  22792764.3084                   22792764.1794
        45.5004         28.5004
  -1717584.55949  -1336728.97848  20317395.5734                   20317393.2304
        50.0004         40.2504
  -8328610.63349  -6483833.89747  23021265.4254                   23021263.8084
        42.0004         26.5004
   2242212.65649   1741775.34747  22470822.8004                   22470822.0264
        43.7504         28.5004
 03  1 15 16 46 44.9990000  0  8G10G28G 7G 8G13G27G29G31
    672675.39149    520998.80546  23681502.5194                   23681502.2804
        42.0004         23.0004
  -5326704.63349  -4145300.82448  20500863.6984                   20500860.6514
        50.5004         40.0004
  -3598257.56249  -2788922.15446  23285114.0344                   23285114.7964
        44.0004         25.5004
  -3659308.10249  -2848845.14348  19846947.1984                   19846944.6284
        51.0004         41.2504
   4887226.64849   3789012.68047  22799847.7844                   22799847.3784
        45.5004         28.5004
  -1723950.61349  -1341689.56548  20316184.4644                   20316182.0694
        50.7504         40.5004
  -8388129.58249  -6530212.27347  23009939.2534                   23009937.3474
        41.2504         25.7504
   2266356.25449   1760588.46547  22475417.1054                   22475415.9404
        44.2504         29.5004
 03  1 15 16 46 59.9990000  0  8G10G28G 7G 8G13G27G29G31
    684492.39849    530206.74746  23683751.1594                   23683750.9294
        41.0004         22.7504
  -5356754.21949  -4168716.08648  20495146.0264                   20495142.5464
        50.7504         41.0004
  -3665749.12949  -2841513.00446  23272271.0194                   23272271.5264
        43.2504         24.7504
  -3678412.34049  -2863731.57548  19843311.5114                   19843308.9214
        50.5004         41.0004
   4924496.07049   3818053.68847  22806940.2224                   22806939.5584
        46.5004         28.2504
  -1730244.48049  -1346593.91048  20314986.7144                   20314984.5154
        50.2504         40.2504
  -8447579.10249  -6576536.58747  22998626.1514                   22998624.4724
        41.2504         26.7504
   2290605.61349   1779483.99047  22480032.0584                   22480031.3584
        45.5004         29.5004
 03  1 15 16 47 14.9990000  0  8G10G28G 7G 8G13G27G29G31
    696390.07049    539477.63746  23686015.3394                   23686015.5504
        41.0004         24.0004
  -5386723.32849  -4192068.65148  20489442.6754                   20489439.4374
        50.5004         40.5004
  -3733214.41849  -2894083.34747  23259432.9644                   23259434.4764
        45.0004         26.2504
  -3697441.51649  -2878559.51648  19839690.4874                   19839687.8154
        50.0004         41.0004
   4961813.28949   3847131.94647  22814041.1754                   22814040.8434
        45.7504         28.0004
  -1736465.15249  -1351441.21248  20313802.7694                   20313800.5264
        49.7504         40.0004
  -8506958.18449  -6622806.04247  22987326.9564                   22987325.2844
        41.7504         28.0004
   2314961.23849   1798462.30647  22484666.3394                   22484666.4764
        43.5004         28.7504
 03  1 15 16 47 29.9990000  0  8G10G28G 7G 8G13G27G29G31
    708366.48049    548809.83346  23688294.5814                   23688295.0774
        41.0004         23.7504
  -5416613.65649  -4215359.81348  20483754.8944                   20483751.4994
        51.0004         41.0004
  -3800654.87149  -2946634.34946  23246599.1514                   23246600.1754
        44.0004         24.5004
  -3716397.24249  -2893330.22548  19836083.2534                   19836080.7694
        51.7504         41.0004
   4999176.53149   3876246.06947  22821151.1054                   22821150.9524
        46.2504         28.2504
  -1742614.41849  -1356232.87448  20312632.9874                   20312630.4954
        50.5004         40.2504
  -8566267.92249  -6669021.43047  22976040.9174                   22976038.5894
        42.0004         28.2504
   2339421.16849   1817521.93447  22489321.0264                   22489321.3514
        42.0004         29.0004
 03  1 15 16 47 44.9990000  0  8G10G28G 7G 8G13G27G29G31
    720423.83249    558205.08746  23690589.0114                   23690588.9644
        40.7504         23.7504
  -5446422.65249  -4238587.61448  20478082.5814                   20478078.9644
        50.2504         41.2504
  -3868067.43449  -2999163.60246  23233770.2844                   23233772.0154
        42.2504         25.0004
  -3735276.82849  -2908041.61548  19832490.6204                   19832488.0734
        51.0004         41.0004
   5036587.96549   3905397.73747  22828269.5504                   22828270.5504
        45.5004         28.5004
  -1748689.32049  -1360966.59548  20311476.9954                   20311474.2694
        51.0004         40.7504
  -8625505.55149  -6715180.63947  22964768.4094                   22964766.8944
        43.2504         28.0004
   2363987.61349   1836664.55147  22493995.8784                   22493995.2334
        43.5004         27.2504
 03  1 15 16 47 59.9990000  0  8G10G28G 7G 8G13G27G29G31
    732560.34449    567662.02246  23692898.3394                   23692898.5224
        41.0004         22.7504
  -5476151.85949  -4261753.22848  20472425.1594                   20472422.0654
        51.0004         41.2504
  -3935453.33249  -3051672.11547  23220947.4644                   23220949.1944
        42.5004         26.0004
  -3754081.41049  -2922694.55548  19828912.1284                   19828909.5384
        51.5004         41.2504
   5074045.88749   3934585.63347  22835398.1444                   22835398.4874
        45.5004         28.7504
  -1754691.37149  -1365643.53648  20310334.7304                   20310332.7374
        51.5004         40.7504
  -8684672.07449  -6761284.42747  22953509.3084                   22953507.9684
        41.7504         27.7504
   2388658.84449   1855888.81947  22498690.5814                   22498689.9914
        43.0004         28.5004
 03  1 15 16 48 14.9990000  0  8G10G28G 7G 8G13G27G29G31
    744775.97749    577180.63546  23695223.6054                   23695222.4914
        40.7504         22.5004
  -5505800.98449  -4284856.44048  20466783.1674                   20466779.9054
        51.5004         41.2504
  -4002811.97349  -3104159.38247  23208129.9874                   23208131.1014
        43.7504         26.0004
  -3772810.71149  -2937288.82648  19825348.1054                   19825345.3784
        51.0004         41.2504
   5111550.42649   3963809.84547  22842535.0974                   22842535.2304
        46.0004         27.7504
  -1760620.05949  -1370263.32548  20309206.4804                   20309204.4484
        50.5004         40.0004
  -8743766.96149  -6807332.40347  22942263.8004                   22942262.0654
        43.5004         28.5004
   2413434.78949   1875194.67847  22503405.1054                   22503405.2454
        43.0004         29.5004
 03  1 15 16 48 29.9990000  0  8G10G28G 7G 8G13G27G29G31
    757073.74649    586763.24046  23697563.1674                   23697562.7844
        40.5004         21.0004
  -5535366.74649  -4307894.70548  20461157.0504                   20461153.4914
        51.0004         40.5004
  -4070139.57049  -3156622.42647  23195318.5584                   23195318.9564
        43.7504         25.7504
  -3791461.18749  -2951821.68248  19821799.0114                   19821797.0344
        50.5004         41.0004
   5149104.60949   3993072.72947  22849681.4094                   22849681.9094
        45.7504         27.7504
  -1766471.84849  -1374823.17948  20308093.1904                   20308091.0194
        50.7504         40.5004
  -8802786.43049  -6853321.61547  22931033.0034                   22931030.7964
        43.0004         27.2504
   2438318.35949   1894584.42547  22508140.3394                   22508140.0154
        44.2504         29.7504
 03  1 15 16 48 44.9990000  0  8G10G28G 7G 8G13G27G29G31
    769449.04749    596406.27746  23699918.4804                   23699917.2724
        38.2504         19.7504
  -5564853.45349  -4330871.36948  20455546.1444                   20455542.6634
        50.2504         40.5004
  -4137440.15649  -3209064.43747  23182511.2144                   23182512.8744
        43.7504         26.0004
  -3810036.96949  -2966296.34148  19818264.3864                   19818261.6124
        51.7504         41.0004
   5186703.85249   4022370.75447  22856836.7534                   22856836.7024
        45.5004         28.2504
  -1772251.00449  -1379326.44848  20306993.4874                   20306991.1794
        51.5004         40.5004
  -8861734.41849  -6899255.15047  22919815.6204                   22919813.6794
        42.5004         27.7504
   2463305.26249   1914054.62347  22512895.8154                   22512894.7414
        44.5004         28.5004
 03  1 15 16 48 59.9990000  0  8G10G28G 7G 8G13G27G29G31
    781903.67249    606111.06046  23702287.3864                   23702287.4374
        36.7504         20.0004
  -5594258.94149  -4353784.73148  20449950.1834                   20449946.7224
        50.5004         40.2504
  -4204711.31249  -3261483.44947  23169709.5504                   23169711.3474
        44.5004         25.7504
  -3828535.93049  -2980711.12648  19814744.2064                   19814741.8784
        50.5004         41.0004
   5224349.94549   4051705.28247  22864000.6754                   22864000.7414
        45.5004         28.0004
  -1777955.18749  -1383771.28048  20305907.8234                   20305905.8824
        51.5004         41.5004
  -8920608.55149  -6945131.10347  22908612.4094                   22908610.2454
        43.7504         27.5004
   2488397.15649   1933606.68947  22517670.5654                   22517669.6364
        44.5004         28.7504
 03  1 15 16 49 14.9990000  0  8G10G28G 7G 8G13G27G29G31
    794436.77749    615877.07646  23704673.2614                   23704672.0074
        38.7504         19.0004
  -5623583.86749  -4376635.31448  20444369.6754                   20444366.5624
        50.5004         40.5004
  -4271953.25049  -3313879.74246  23156914.0194                   23156914.8514
        44.0004         25.2504
  -3846958.35549  -2995066.27348  19811238.4254                   19811235.9174
        51.5004         41.0004
   5262042.20749   4081075.75147  22871172.9724                   22871173.0974
        45.7504         27.7504
  -1783584.93049  -1388158.12548  20304836.6054                   20304834.4644
        51.2504         40.7504
  -8979409.04749  -6990949.69247  22897422.7454                   22897420.7264
        41.2504         27.2504
   2513593.15649   1953239.87047  22522465.1054                   22522464.3434
        43.0004         27.7504
 03  1 15 16 49 29.9990000  0  8G10G28G 7G 8G13G27G29G31
    807046.88749    625703.07046  23707072.9644                   23707071.8664
        39.7504         19.5004
  -5652829.30949  -4399423.98648  20438804.6284                   20438801.0074
        50.5004         41.0004
  -4339166.64149  -3366253.76846  23144123.3234                   23144124.5154
        44.5004         24.5004
  -3865305.10549  -3009362.46748  19807747.2374                   19807745.1794
        51.2504         41.0004
   5299779.10249   4110481.03947  22878354.6754                   22878354.8554
        46.0004         28.2504
  -1789141.03949  -1392487.58948  20303779.3624                   20303777.3194
        51.0004         41.0004
  -9038136.48449  -7036711.32747  22886247.1054                   22886245.1634
        42.7504         28.0004
   2538892.00049   1972953.15147  22527279.5654                   22527278.5694
        44.5004         28.2504
 03  1 15 16 49 44.9990000  0  9G10G28G 7G26G 8G13G27G29G31
    819733.07849    635588.35246  23709487.8944                   23709487.0624
        41.0004         22.5004
  -5681996.01249  -4422151.29248  20433254.6204                   20433251.1474
        50.7504         41.0004
  -4406351.82849  -3418605.82946  23131338.9644                   23131338.9644
        44.0004         25.2504
   -182064.62159   -128320.57556  23596245.5194                   23596245.5854
        36.7504         22.0004
  -3883576.85949  -3023600.21748  19804270.2304                   19804267.7064
        51.0004         41.0004
   5337559.76249   4139920.41047  22885543.6754                   22885543.8124
        46.2504         27.5004
  -1794624.14849  -1396760.16848  20302735.8704                   20302733.6164
        51.2504         41.0004
  -9096791.32049  -7082416.39847  22875085.9724                   22875083.9644
        42.5004         28.2504
   2564292.66849   1992745.79947  22532113.8154                   22532111.7694
        45.5004         28.7504
 03  1 15 16 49 59.9980000  0  9G10G28G 7G26G 8G13G27G29G31
    832494.78149    645532.44646  23711916.2644                   23711915.9674
        41.5004         25.5004
  -5711081.46949  -4444815.29248  20427719.6934                   20427716.3614
        50.5004         41.0004
  -4473503.33649  -3470931.64047  23118560.2484                   23118561.1784
        45.2504         27.0004
   -245458.80149   -177718.70546  23584183.1544                   23584181.4474
        37.7504         22.0004
  -3901771.46149  -3037777.84748  19800807.8114                   19800805.4514
        51.7504         41.0004
   5375382.00049   4169392.17847  22892741.5844                   22892741.4794
        46.0004         27.0004
  -1800033.16049  -1400975.01248  20301706.4434                   20301704.3304
        50.2504         40.7504
  -9155368.62949  -7128061.05247  22863938.7874                   22863937.4754
        43.7504         28.5004
   2589793.56649   2012616.59147  22536966.0534                   22536964.8694
        45.2504         29.0004
 03  1 15 16 50 14.9980000  0  9G10G28G 7G26G 8G13G27G29G31
    845330.74249    655534.43647  23714359.3344                   23714359.2054
        42.2504         27.0004
  -5740092.17649  -4467421.05248  20422199.1394                   20422195.7134
        50.0004         40.7504
  -4540632.55949  -3523240.06246  23105785.4364                   23105786.9004
        44.0004         25.5004
   -308800.60549   -227075.95846  23572129.6074                   23572128.4044
        37.5004         21.5004
  -3919893.90249  -3051899.24648  19797359.3894                   19797356.6154
        51.5004         41.5004
   5413247.91849   4198897.99347  22899946.5534                   22899947.1894
        45.5004         27.5004
  -1805371.22749  -1405134.57248  20300690.8734                   20300688.8974
        51.0004         41.0004
  -9213878.40649  -7173653.10447  22852805.0064                   22852803.1784
        42.0004         28.5004
   2615395.44549   2032566.02147  22541837.9514                   22541836.6354
        45.0004         28.0004
 03  1 15 16 50 29.9980000  0  9G10G28G 7G26G 8G13G27G29G31
    858238.98849    665592.75347  23716815.5374                   23716815.6504
        41.5004         26.5004
  -5769026.96949  -4489967.64948  20416692.9904                   20416689.5804
        51.0004         40.7504
  -4607735.32449  -3575527.86447  23093016.0224                   23093016.8074
        45.0004         25.7504
   -372086.35249   -276389.56746  23560085.9204                   23560085.3224
        38.2504         22.0004
  -3937943.59849  -3065963.96348  19793924.6864                   19793922.1044
        51.2504         41.0004
   5451154.10249   4228435.16647  22907160.8184                   22907160.0104
        44.7504         26.5004
  -1810638.57849  -1409239.02848  20299688.4984                   20299686.6274
        51.5004         41.0004
  -9272317.39849  -7219190.01347  22841683.9594                   22841682.4244
        43.2504         28.2504
   2641095.35249   2052591.82847  22546728.5614                   22546727.6974
        45.0004         28.5004
 03  1 15 16 50 44.9980000  0  9G10G28G 7G26G 8G13G27G29G31
    871219.78549    675707.52246  23719285.7484                   23719285.9394
        41.5004         24.2504
  -5797885.44149  -4512454.77948  20411201.6234                   20411197.9944
        50.5004         40.7504
  -4674810.97349  -3627794.52947  23080252.1474                   23080253.2294
        44.5004         27.0004
   -435314.96549   -325658.61146  23548054.7484                   23548053.1154
        38.5004         22.5004
  -3955920.02749  -3079971.58248  19790503.6624                   19790501.2214
        51.0004         41.2504
   5489100.60949   4258003.74547  22914381.5684                   22914381.5374
        45.5004         27.0004
  -1815834.66849  -1413287.95248  20298699.7094                   20298697.4394
        51.0004         40.7504
  -9330684.58249  -7264670.94447  22830577.3114                   22830575.4004
        43.5004         27.7504
   2666893.64849   2072694.33547  22551637.8184                   22551636.6744
        44.5004         27.7504
 03  1 15 16 50 59.9980000  0  9G10G28G 7G26G 8G13G27G29G31
    884276.32849    685881.36246  23721770.2724                   23721769.9124
        39.5004         23.2504
  -5826664.07049  -4534879.69348  20405725.2404                   20405721.7294
        51.2504         41.0004
  -4741855.44949  -3680036.90147  23067494.3504                   23067494.8544
        44.5004         26.0004
   -498482.75849   -374880.27446  23536033.5924                   23536032.9514
        38.2504         21.0004
  -3973819.35549  -3093919.12848  19787097.8424                   19787095.1274
        50.5004         40.7504
   5527090.69949   4287606.31847  22921611.2874                   22921611.0574
        46.2504         27.2504
  -1820955.80149  -1417278.47548  20297724.8574                   20297722.8574
        50.5004         40.7504
  -9388976.05149  -7310092.89547  22819484.9364                   22819482.7444
        45.2504         29.2504
   2692793.42649   2092875.91147  22556566.2404                   22556565.5924
        44.5004         29.0004
 03  1 15 16 51 14.9980000  0  9G10G28G 7G26G 8G13G27G29G31
    897406.19949    696112.33846  23724268.7094                   23724268.4594
        40.7504         22.7504
  -5855365.01649  -4557244.06548  20400263.5844                   20400260.4364
        50.2504         41.2504
  -4808870.61349  -3732256.42447  23054741.3734                   23054742.6074
        44.2504         26.7504
   -561591.19949   -424055.78646  23524025.0454                   23524023.8774
        39.5004         20.5004
  -3991643.52749  -3107808.10148  19783705.6474                   19783703.5924
        51.7504         41.2504
   5565122.12949   4317241.09847  22928847.8424                   22928848.1974
        45.5004         27.5004
  -1826003.97349  -1421212.13048  20296764.3974                   20296762.3974
        51.5004         40.2504
  -9447193.57849  -7355457.20747  22808406.2324                   22808404.5454
        41.7504         28.0004
   2718792.18049   2113134.59547  22561513.8504                   22561513.4004
        44.5004         28.5004
 03  1 15 16 51 29.9980000  0  9G10G28G 7G26G 8G13G27G29G31
    910608.46949    706399.74546  23726781.0764                   23726780.6934
        41.5004         22.7504
  -5883989.02349  -4579548.49848  20394816.4204                   20394813.1894
        50.7504         40.5004
  -4875856.68449  -3784453.24647  23041994.5064                   23041995.9164
        44.7504         27.7504
   -624640.84049   -473185.32546  23512026.6154                   23512025.7174
        40.2504         20.5004
  -4009393.03149  -3121638.91248  19780328.4824                   19780326.1864
        50.7504         40.7504
   5603194.03149   4346907.42447  22936093.2324                   22936093.0574
        46.0004         27.5004
  -1830979.52349  -1425089.21348  20295817.7014                   20295815.5224
        50.5004         40.2504
  -9505337.59449  -7400764.23547  22797341.5294                   22797340.7094
        43.5004         29.0004
   2744889.26249   2133469.89347  22566479.7874                   22566479.4284
        44.5004         28.5004
 03  1 15 16 51 44.9980000  0  9G10G28G 7G26G 8G13G27G29G31
    923884.93849    716744.99646  23729306.6784                   23729306.6744
        39.5004         21.7504
  -5912533.92649  -4601791.28848  20389384.6784                   20389381.1664
        49.5004         41.2504
  -4942811.21549  -3836625.52747  23029253.5764                   23029254.2684
        44.7504         25.7504
   -687629.09049   -522267.12046  23500040.5144                   23500038.0804
        41.0004         20.7504
  -4027065.63749  -3135409.77748  19776965.2254                   19776963.0254
        51.0004         41.2504
   5641308.10549   4376606.57247  22943346.4594                   22943346.5184
        45.0004         26.7504
  -1835880.49249  -1428908.18848  20294885.4984                   20294883.1004
        51.0004         40.2504
  -9563405.39549  -7446011.90147  22786291.9204                   22786290.4594
        42.5004         29.2504
   2771086.31349   2153883.10547  22571465.6624                   22571464.7174
        44.5004         28.2504
 03  1 15 16 51 59.9980000  0  9G10G28G 7G26G 8G13G27G29G31
    937235.73449    727148.11146  23731847.9594                   23731847.7834
        39.0004         22.2504
  -5940999.01649  -4623971.89248  20383968.1704                   20383964.6074
        49.5004         41.0004
  -5009733.32849  -3888772.51947  23016518.1474                   23016519.4324
        45.0004         26.5004
   -750554.93049   -571300.29946  23488066.1784                   23488063.4434
        40.0004         21.7504
  -4044660.53949  -3149120.11348  19773617.0534                   19773614.2444
        50.7504         41.5004
   5679464.79749   4406338.94247  22950606.6474                   22950606.8734
        45.2504         26.7504
  -1840705.85549  -1432668.22248  20293966.9204                   20293964.7054
        51.0004         40.0004
  -9621396.23049  -7491199.56447  22775256.3734                   22775254.9904
        40.7504         28.2504
   2797383.53949   2174374.40747  22576468.8424                   22576468.6004
        44.5004         28.2504
 03  1 15 16 52 14.9980000  0  9G10G28G 7G26G 8G13G27G29G31
    950658.73049    737607.54546  23734401.9204                   23734402.2294
        41.0004         22.7504
  -5969386.43749  -4646091.97048  20378565.8504                   20378562.6784
        49.7504         41.0004
  -5076624.73049  -3940895.60647  23003789.4284                   23003790.4084
        45.0004         26.2504
   -813420.08249   -620286.15346  23476103.6234                   23476101.6354
        41.2504         22.0004
  -4062179.60249  -3162771.33848  19770283.4044                   19770281.0844
        51.5004         41.0004
   5717661.68049   4436102.62647  22957875.5684                   22957876.0924
        45.0004         26.5004
  -1845457.63349  -1436370.94648  20293062.9044                   20293060.3974
        50.5004         40.5004
  -9679311.57849  -7536328.43947  22764235.6314                   22764233.6974
        42.2504         29.2504
   2823778.74649   2194942.02347  22581492.2324                   22581491.0224
        43.7504         27.5004
 03  1 15 16 52 29.9980000  0  9G10G28G 7G26G 8G13G27G29G31
    964154.55949    748123.66946  23736970.4904                   23736970.8734
        40.0004         22.2504
  -5997695.12149  -4668150.69848  20373179.0684                   20373175.8654
        51.0004         40.7504
  -5143483.92249  -3992993.53847  22991066.5764                   22991067.0254
        45.2504         26.5004
   -876223.03549   -669223.56946  23464152.4904                   23464151.4904
        42.0004         21.5004
  -4079621.66449  -3176362.58048  19766964.1934                   19766961.7994
        50.7504         41.2504
   5755899.69549   4465898.37647  22965151.9594                   22965152.3184
        45.2504         26.5004
  -1850134.58649  -1440015.35348  20292172.5374                   20292170.6744
        50.5004         40.0004
  -9737150.06249  -7581397.40647  22753229.8424                   22753228.5614
        44.5004         29.7504
   2850272.75449   2215586.63347  22586534.2954                   22586533.2484
        43.5004         27.7504
 03  1 15 16 52 44.9980000  0  9G10G28G 7G26G 8G13G27G29G31
    977723.40249    758696.69346  23739552.4044                   23739552.7874
        38.5004         22.0004
  -6025924.54749  -4690147.65648  20367806.9674                   20367803.7254
        50.7504         41.0004
  -5210309.89549  -4045065.63547  22978350.2874                   22978350.9324
        45.5004         27.2504
   -938962.83649   -718111.70946  23452213.0064                   23452211.9474
        41.0004         21.5004
  -4096985.99249  -3189893.24248  19763659.9204                   19763657.4324
        51.0004         41.5004
   5794179.17649   4495726.45847  22972436.8894                   22972436.2014
        45.0004         27.5004
  -1854735.95349  -1443600.85948  20291297.0374                   20291294.8344
        51.0004         39.7504
  -9794910.81249  -7626405.76447  22742238.3574                   22742236.6664
        44.5004         29.7504
   2876865.79749   2236308.45046  22591594.5064                   22591594.0724
        42.5004         25.5004
 03  1 15 16 52 59.9980000  0  9G10G28G 7G26G 8G13G27G29G31
    991365.73049    769327.00046  23742148.3814                   23742148.7324
        38.7504         20.0004
  -6054074.20349  -4712082.46948  20362450.4674                   20362447.0184
        50.7504         40.7504
  -5277101.85949  -4097111.24847  22965639.6154                   22965640.6154
        44.7504         25.7504
  -1001638.62949   -766949.97846  23440286.5224                   23440285.4004
        41.2504         20.5004
  -4114271.79349  -3203362.70748  19760370.2324                   19760368.2914
        51.2504         41.5004
   5832500.35249   4525587.00947  22979729.0224                   22979728.8974
        45.2504         26.0004
  -1859260.99249  -1447126.89048  20290436.3034                   20290434.3464
        51.5004         40.5004
  -9852592.71549  -7671352.73047  22731261.7404                   22731260.1434
        44.7504         29.0004
   2903558.09449   2257107.56547  22596673.7324                   22596673.8264
        42.5004         26.2504
 03  1 15 16 53 14.9980000  0  9G10G28G 7G26G 8G13G27G29G31
   1005078.76649    780012.41046  23744756.5064                   23744758.4004
        36.0004         19.7504
  -6082146.51249  -4733957.00348  20357108.4364                   20357105.1154
        50.5004         41.0004
  -5343861.93049  -4149131.98547  22952934.9204                   22952936.5294
        44.7504         26.5004
  -1064252.46949   -815740.05946  23428371.7404                   23428370.1354
        40.5004         19.0004
  -4131481.28549  -3216772.70648  19757095.6074                   19757093.3694
        51.0004         41.5004
   5870860.57449   4555477.98547  22987028.5374                   22987029.2364
        44.2504         26.2504
  -1863712.11749  -1450595.33248  20289589.5144                   20289587.4754
        51.0004         40.7504
  -9910198.05549  -7716240.00547  22720299.5614                   22720297.5964
        43.0004         28.7504
   2930346.92649   2277981.88447  22601771.6074                   22601771.9514
        42.5004         26.5004
 03  1 15 16 53 29.9980000  0  9G10G28G 7G26G 8G13G27G29G31
   1018862.11349    790752.66346  23747380.5224                   23747381.2524
        36.5004         19.0004
  -6110141.42249  -4755771.24248  20351781.1394                   20351777.9594
        50.2504         40.7504
  -5410589.60549  -4201127.44146  22940237.7324                   22940238.8224
        44.7504         25.2504
  -1126803.80949   -864481.40546  23416468.6074                   23416467.1784
        40.7504         19.2504
  -4148614.25049  -3230123.09948  19753835.3114                   19753832.7094
        50.7504         41.5004
   5909259.74249   4585399.30047  22994336.1474                   22994336.2404
        45.0004         25.7504
  -1868089.07449  -1454005.96448  20288756.3264                   20288754.0924
        50.0004         40.2504
  -9967726.30949  -7761067.21747  22709352.2564                   22709350.7754
        44.2504         28.7504
   2957232.16849   2298931.35047  22606887.7174                   22606887.5414
        42.5004         26.7504
 03  1 15 16 53 44.9980000  0  9G10G28G 7G26G 8G13G27G29G31
   1032718.61749    801549.75846  23750018.0454                   23750017.4044
        38.2504         19.5004
  -6138056.05149  -4777522.90748  20346469.1234                   20346466.1394
        51.0004         41.2504
  -5477281.63349  -4253095.16747  22927546.5374                   22927547.2214
        45.7504         27.2504
  -1189289.41449   -913171.49146  23404578.2484                   23404576.8034
        39.5004         20.0004
  -4165667.71949  -3243411.51748  19750589.9594                   19750588.0334
        50.7504         41.0004
   5947700.45749   4615352.98747  23001651.1154                   23001651.4244
        45.5004         26.5004
  -1872388.76649  -1457356.39748  20287938.1864                   20287935.9434
        51.2504         40.2504
 -10025174.09449  -7805831.73847  22698420.2874                   22698419.1434
        43.0004         28.7504
   2984216.45349   2319958.01447  22612022.9824                   22612022.3144
        43.5004         27.0004
 03  1 15 16 53 59.9980000  0  9G10G28G 7G26G 8G13G27G29G31
   1046646.09049    812402.26046  23752668.7644                   23752668.5684
        40.0004         19.7504
  -6165892.08649  -4799213.33248  20341172.1624                   20341169.1824
        50.2504         40.7504
  -5543939.37949  -4305036.19247  22914861.9824                   22914861.9864
        45.0004         27.5004
  -1251710.66849   -961811.42146  23392699.5064                   23392699.0764
        40.7504         19.7504
  -4182643.03949  -3256639.06148  19747359.7564                   19747357.8544
        50.5004         40.7504
   5986180.75449   4645337.51547  23008973.5064                   23008973.9984
        45.0004         25.7504
  -1876612.58249  -1460647.71248  20287134.6864                   20287132.4944
        50.7504         40.5004
 -10082542.83249  -7850534.66747  22687503.8114                   22687502.1864
        43.7504         29.2504
   3011297.65249   2341060.18047  22617176.1704                   22617175.4004
        44.2504         26.2504
 03  1 15 16 54 14.9980000  0  9G10G28G 7G26G 8G13G27G29G31
   1060644.02349    823309.69346  23755332.1314                   23755331.9794
        39.5004         21.5004
  -6193649.80549  -4820842.74748  20335889.9514                   20335887.0254
        50.5004         41.0004
  -5610562.68049  -4356950.34747  22902183.9044                   22902184.1974
        46.0004         27.5004
  -1314067.24649  -1010400.99646  23380834.0144                   23380833.1744
        41.0004         21.0004
  -4199540.44949  -3269805.88848  19744144.3344                   19744141.8854
        51.0004         41.2504
   6024700.06349   4675352.46847  23016303.4514                   23016304.4944
        43.7504         26.0004
  -1880760.85949  -1463880.15348  20286344.7564                   20286343.0574
        50.7504         40.5004
 -10139832.39149  -7895175.89347  22676601.6154                   22676599.7724
        43.5004         29.5004
   3038475.18849   2362237.43047  22622347.5534                   22622347.4554
        44.0004         26.5004
 03  1 15 16 54 29.9980000  0  9G10G28G 7G26G 8G13G27G29G31
   1074713.43449    834272.81446  23758010.4514                   23758010.0684
        40.2504         21.7504
  -6221327.78949  -4842410.02548  20330622.9904                   20330619.8894
        50.7504         40.5004
  -5677149.80549  -4408836.34047  22889512.5534                   22889513.2174
        45.0004         26.5004
  -1376357.51649  -1058938.90446  23368980.4204                   23368979.0104
        42.7504         21.5004
  -4216358.28549  -3282910.70748  19740943.9204                   19740941.6664
        50.7504         41.5004
   6063259.57049   4705398.70146  23023641.8894                   23023641.4794
        44.0004         25.2504
  -1884831.96149  -1467052.46848  20285570.1624                   20285568.1114
        51.0004         40.5004
 -10197040.94149  -7939753.97547  22665715.1704                   22665714.2524
        44.2504         29.0004
   3065750.42649   2383490.80547  22627538.1544                   22627538.3774
        43.5004         26.7504
 03  1 15 16 54 44.9980000  0  9G10G28G 7G26G 8G13G27G29G31
   1088852.53149    845290.22646  23760700.5224                   23760700.5104
        40.5004         22.5004
  -6248927.69149  -4863916.45148  20325371.1314                   20325367.7954
        51.0004         41.2504
  -5743702.06249  -4460695.17347  22876848.2724                   22876848.5414
        46.0004         27.0004
  -1438582.73449  -1107426.12446  23357139.0294                   23357138.5764
        42.0004         22.7504
  -4233098.01649  -3295954.67448  19737758.4044                   19737756.4944
        50.0004         40.5004
   6101857.33249   4735474.76946  23030986.9904                   23030986.2994
        45.2504         24.7504
  -1888827.28149  -1470165.72648  20284809.8344                   20284808.0104
        51.5004         40.0004
 -10254169.78149  -7984269.95447  22654844.5844                   22654842.8544
        44.5004         28.5004
   3093121.27049   2404818.66147  22632746.6864                   22632747.3074
        43.5004         27.0004
 03  1 15 16 54 59.9980000  0  9G10G28G 7G26G 8G13G27G29G31
   1103061.07849    856361.76146  23763404.3814                   23763404.5144
        39.7504         22.7504
  -6276449.47749  -4885362.00348  20320134.0534                   20320130.4084
        50.5004         40.7504
  -5810218.98449  -4512526.45547  22864190.3114                   22864190.6934
        45.2504         28.0004
  -1500742.35249  -1155862.13546  23345310.6074                   23345310.3974
        41.2504         22.7504
  -4249759.42249  -3308937.59648  19734588.0614                   19734585.9514
        50.2504         41.0004
   6140493.30949   4765580.60747  23038338.9284                   23038339.2994
        44.5004         26.5004
  -1892746.66849  -1473219.81848  20284064.2484                   20284062.0104
        51.0004         39.7504
 -10311218.47749  -8028723.49047  22643988.5144                   22643986.3144
        45.0004         29.0004
   3120587.55549   2426220.88547  22637974.0614                   22637974.0454
        44.2504         27.2504
 03  1 15 16 55 14.9980000  0  9G10G28G 7G26G 8G13G27G29G31
   1117339.03149    867487.33046  23766120.8424                   23766121.9864
        39.2504         22.7504
  -6303892.94549  -4906746.54948  20314911.2874                   20314908.4284
        50.0004         41.0004
  -5876700.00049  -4564329.77247  22851538.8734                   22851539.5494
        45.0004         27.2504
  -1562835.73049  -1204246.62646  23333494.6314                   23333493.8184
        41.0004         22.5004
  -4266342.03549  -3321859.13348  19731432.5144                   19731430.0964
        51.0004         41.2504
   6179167.43049   4795716.13847  23045698.5924                   23045698.6314
        44.2504         26.5004
  -1896589.69149  -1476214.40148  20283332.7794                   20283330.6864
        51.0004         40.0004
 -10368186.38749  -8073114.08747  22633147.1704                   22633145.6864
        43.7504         28.5004
   3148149.24649   2447697.49047  22643218.7484                   22643218.4794
        44.5004         26.7504
 03  1 15 16 55 29.9980000  0  9G10G28G 7G26G 8G13G27G29G31
   1131685.09449    878665.96946  23768850.6154                   23768851.8464
        38.5004         22.5004
  -6331258.98849  -4928070.74348  20309703.8574                   20309700.6354
        50.5004         41.5004
  -5943145.63349  -4616105.52447  22838895.3974                   22838895.9004
        45.2504         27.0004
  -1624863.46949  -1252579.94446  23321690.8814                   23321690.2254
        40.7504         22.7504
  -4282846.63349  -3334719.87948  19728291.6234                   19728289.4474
        51.0004         40.7504
   6217878.54749   4825880.54346  23053064.9204                   23053065.4634
        43.5004         25.0004
  -1900357.17649  -1479150.13048  20282615.8504                   20282613.7094
        51.0004         40.0004
 -10425074.13749  -8117442.22647  22622321.5454                   22622320.8304
        43.5004         28.7504
   3175805.11749   2469247.46647  22648481.3504                   22648480.5804
        44.0004         27.5004
 03  1 15 16 55 44.9980000  0  9G10G28G 7G26G 8G13G27G29G31
   1146099.88349    889898.19746  23771593.5844                   23771595.0224
        37.7504         22.0004
  -6358546.69549  -4949333.90648  20304511.2724                   20304507.8654
        50.5004         41.5004
  -6009554.48849  -4667852.62247  22826258.1864                   22826258.6504
        45.0004         26.2504
  -1686824.24249  -1300861.06746  23309900.4674                   23309899.2994
        40.2504         22.7504
  -4299272.08649  -3347518.94248  19725166.2254                   19725163.6744
        49.7504         41.2504
   6256627.48449   4856074.39246  23060438.7174                   23060438.9794
        43.0004         24.2504
  -1904047.94149  -1482026.07748  20281913.7794                   20281911.6154
        51.0004         40.5004
 -10481880.23449  -8161706.69147  22611511.8654                   22611511.1004
        42.7504         29.7504
   3203555.80149   2490871.33047  22653761.8654                   22653761.5494
        42.5004         26.0004
 03  1 15 16 55 59.9980000  0  9G10G28G 7G26G 8G13G27G29G31
   1160583.06349    901183.67546  23774349.4674                   23774351.1864
        36.7504         21.5004
  -6385756.38749  -4970536.28648  20299333.5454                   20299330.4244
        50.7504         41.0004
  -6075926.63349  -4719571.11247  22813627.4434                   22813628.6154
        45.5004         26.5004
  -1748717.87949  -1349089.92346  23298122.6394                   23298120.9394
        41.5004         22.2504
  -4315618.50049  -3360256.42848  19722055.8424                   19722053.3854
        50.0004         41.0004
   6295413.57449   4886297.17746  23067820.0924                   23067820.4364
        44.2504         25.2504
  -1907662.06649  -1484842.30748  20281226.0064                   20281223.8694
        51.2504         40.5004
 -10538604.66449  -8205907.56247  22600717.4904                   22600716.3074
        43.5004         29.5004
   3231400.89149   2512568.72146  22659059.9434                   22659060.4944
        42.2504         25.5004
 03  1 15 16 56 14.9980000  0  9G10G28G 7G26G 8G13G27G29G31
   1175134.62149    912522.41846  23777119.4984                   23777120.5254
        37.2504         19.7504
  -6412887.66449  -4991677.55148  20294170.7954                   20294167.2914
        50.5004         41.0004
  -6142261.19549  -4771260.36347  22801004.6544                   22801005.7754
        45.5004         26.2504
  -1810543.59849  -1397265.83546  23286357.5764                   23286356.3734
        40.7504         22.5004
  -4331885.23849  -3372931.82748  19718960.2324                   19718957.7754
        51.0004         41.2504
   6334237.01249   4916549.06846  23075207.3184                   23075207.8694
        43.7504         23.5004
  -1911199.08249  -1487598.44348  20280553.1864                   20280550.9864
        52.5004         40.2504
 -10595246.60549  -8250044.14247  22589939.7874                   22589937.4674
        43.7504         29.2504
   3259340.39149   2534339.68846  22664377.2094                   22664377.2684
        42.0004         25.5004
 03  1 15 16 56 29.9980000  0  9G10G28G 7G26G 8G13G27G29G31
   1189754.94949    923914.73746  23779902.3344                   23779903.4284
        38.7504         22.5004
  -6439939.59849  -5012756.99048  20289023.1004                   20289019.6824
        50.2504         41.2504
  -6208557.09049  -4822919.47447  22788388.1864                   22788389.6234
        45.0004         27.0004
  -1872300.11349  -1445387.77946  23274605.3574                   23274604.7484
        39.7504         22.0004
  -4348071.40649  -3385544.43948  19715880.1624                   19715877.4554
        50.7504         41.0004
   6373098.39549   4946830.57446  23082603.3974                   23082602.9364
        43.7504         22.7504
  -1914658.00849  -1490293.74348  20279894.8504                   20279892.6434
        51.0004         40.0004
 -10651804.86749  -8294115.52847  22579176.7094                   22579175.1934
        42.5004         29.2504
   3287374.78949   2556184.62846  22669712.3184                   22669712.2324
        42.0004         25.2504
 03  1 15 16 56 44.9980000  0  9G10G28G 7G26G 8G13G27G29G31
   1204441.66849    935358.91846  23782697.0374                   23782698.1744
        39.5004         22.2504
  -6466914.30549  -5033776.25248  20283889.5144                   20283886.5224
        49.7504         40.7504
  -6274815.92249  -4874549.67647  22775780.2404                   22775780.7524
        46.0004         27.2504
  -1933989.16849  -1493457.20446  23262866.4284                   23262865.6354
        38.5004         21.5004
  -4364178.77049  -3398095.65348  19712814.6934                   19712812.3574
        50.5004         41.0004
   6411995.58249   4977139.92746  23090004.7094                   23090005.4044
        44.0004         24.5004
  -1918040.67649  -1492929.60348  20279250.9204                   20279249.1314
        50.7504         40.0004
 -10708281.14149  -8338122.99647  22568429.5374                   22568428.4474
        43.5004         29.7504
   3315501.85949   2578101.76046  22675064.8264                   22675064.4474
        43.0004         24.5004
 03  1 15 16 56 59.9980000  0  9G10G28G 7G26G 8G13G27G29G31
   1219195.94149    946855.67446  23785504.7564                   23785504.8734
        40.2504         22.2504
  -6493810.33649  -5054734.21348  20278771.3734                   20278768.2604
        50.5004         41.5004
  -6341035.85949  -4926149.61047  22763179.1154                   22763179.4244
        44.5004         26.7504
  -1995608.98449  -1541472.68046  23251140.5764                   23251139.8304
        40.0004         22.0004
  -4380205.76649  -3410584.21548  19709764.9514                   19709762.4754
        50.0004         40.7504
   6450929.42649   5007477.86046  23097413.6784                   23097414.4084
        44.2504         23.5004
  -1921345.41049  -1495504.75048  20278622.2404                   20278619.9554
        50.7504         40.0004
 -10764673.59049  -8382065.18947  22557698.6544                   22557696.9824
        44.2504         29.7504
   3343722.58649   2600091.89346  22680435.2564                   22680434.9364
        42.0004         23.2504
 03  1 15 16 57 14.9980000  0  9G10G28G 7G26G 8G13G27G29G31
   1234016.21949    958403.84046  23788325.6154                   23788324.9824
        41.7504         21.7504
  -6520629.05949  -5075631.92648  20273668.1704                   20273665.0024
        51.0004         41.5004
  -6407217.92249  -4977720.05547  22750584.8504                   22750585.4284
        44.5004         27.0004
  -2057160.48449  -1589434.90046  23239428.3034                   23239427.3654
        39.0004         22.5004
  -4396153.55149  -3423011.08548  19706730.5534                   19706728.0844
        50.5004         41.0004
   6489898.46549   5037843.21546  23104828.4044                   23104830.3424
        43.0004         24.2504
  -1924573.59849  -1498020.23948  20278007.7644                   20278005.8074
        51.5004         40.0004
 -10820983.34849  -8425942.92747  22546982.8894                   22546981.7954
        44.0004         29.5004
   3372035.50449   2622153.88846  22685823.1544                   22685822.1274
        42.5004         25.5004
 03  1 15 16 57 29.9980000  0  9G10G28G 7G26G 8G13G27G29G31
   1248903.03149    970003.94046  23791158.7484                   23791157.8034
        43.0004         22.5004
  -6547369.73449  -5096468.81848  20268579.1934                   20268576.2684
        50.0004         41.0004
  -6473361.00049  -5029260.09047  22737998.4674                   22737999.1434
        46.0004         27.7504
  -2118642.44549  -1637342.91046  23227727.9284                   23227728.0294
        41.0004         23.0004
  -4412021.17649  -3435375.48348  19703710.8344                   19703708.5614
        50.5004         40.7504
   6528903.28949   5068236.46646  23112251.2014                   23112252.4944
        42.7504         23.5004
  -1927724.32449  -1500475.37048  20277408.3894                   20277406.2754
        51.2504         39.7504
 -10877209.04349  -8469755.14247  22536283.8734                   22536282.4864
        43.7504         30.2504
   3400441.07849   2644288.05846  22691228.5374                   22691227.6474
        41.5004         24.7504
 03  1 15 16 57 44.9980000  0  9G10G28G 7G26G 8G13G27G29G31
   1263853.60949    981653.65646  23794003.2014                   23794002.2644
        40.0004         22.0004
  -6574034.82049  -5117246.81348  20263505.1864                   20263502.1744
        50.7504         41.0004
  -6539467.08249  -5080771.31047  22725418.8814                   22725419.7684
        45.7504         28.0004
  -2180056.89549  -1685198.34046  23216042.1624                   23216041.4474
        40.0004         23.0004
  -4427810.95349  -3447679.21148  19700706.2564                   19700703.7214
        50.0004         41.5004
   6567941.12949   5098655.42046  23119680.8264                   23119680.5574
        43.5004         23.5004
  -1930799.60249  -1502871.72848  20276823.1474                   20276821.2134
        50.7504         40.2504
 -10933352.85949  -8513503.57247  22525600.2094                   22525598.0104
        44.2504         31.0004
   3428936.52349   2666492.18246  22696650.8034                   22696650.4514
        42.0004         24.5004
 03  1 15 16 57 59.9980000  0  9G10G28G 7G26G 8G13G27G29G31
   1278870.16049    993354.77646  23796860.5534                   23796860.2754
        40.5004         20.7504
  -6600621.75449  -5137963.92948  20258445.6234                   20258442.3774
        50.0004         41.2504
  -6605533.34849  -5132251.51847  22712846.3894                   22712847.3384
        45.0004         26.7504
  -2241400.90249  -1732998.87746  23204368.0684                   23204367.8894
        40.7504         23.0004
  -4443520.06649  -3459920.10548  19697717.1154                   19697714.3144
        49.7504         41.2504
   6607014.38749   5129101.97646  23127116.7014                   23127116.6314
        44.0004         23.0004
  -1933796.86749  -1505207.28248  20276252.7954                   20276250.6894
        51.0004         40.0004
 -10989411.71149  -8557185.80447  22514932.2874                   22514930.4364
        44.0004         29.5004
   3457524.04749   2688768.12746  22702090.3424                   22702090.0764
        42.2504         24.5004
 03  1 15 16 58 14.9980000  0  9G10G28G 7G26G 8G13G27G29G31
   1293951.72349   1005106.54646  23799730.1544                   23799730.4394
        40.0004         21.2504
  -6627131.39849  -5158620.79048  20253401.2644                   20253398.1114
        50.5004         41.0004
  -6671560.14549  -5183700.98447  22700281.6474                   22700282.6074
        44.7504         28.2504
  -2302674.86349  -1780744.82146  23192707.5844                   23192707.3734
        39.7504         24.5004
  -4459149.08649  -3472098.58048  19694742.8974                   19694740.4394
        51.0004         41.0004
   6646122.01249   5159575.33646  23134557.9434                   23134558.6894
        43.0004         24.0004
  -1936716.77349  -1507482.55848  20275697.1234                   20275694.9124
        51.5004         40.0004
 -11045386.08249  -8600802.19947  22504280.5844                   22504278.3694
        43.5004         29.7504
   3486202.64549   2711115.01146  22707547.8894                   22707547.6504
        41.5004         22.5004
 03  1 15 16 58 29.9980000  0  9G10G28G 7G26G 8G13G27G29G31
   1309097.40649   1016908.33346  23802611.8034                   23802612.1894
        37.5004         19.5004
  -6653564.19549  -5179217.77348  20248371.4284                   20248368.4824
        49.5004         41.2504
  -6737547.55949  -5235119.74147  22687725.6154                   22687725.5884
        45.2504         27.2504
  -2363878.84449  -1828436.25646  23181061.3974                   23181060.0964
        41.0004         22.5004
  -4474698.39549  -3484214.94148  19691783.9284                   19691781.6314
        51.2504         41.0004
   6685263.34849   5190074.94146  23142006.9824                   23142007.2054
        44.5004         22.5004
  -1939559.60249  -1509697.77548  20275156.1154                   20275154.5104
        51.0004         40.5004
 -11101276.06649  -8644352.84647  22493644.7014                   22493643.0024
        41.5004         29.7504
   3514971.77349   2733532.46546  22713023.3814                   22713022.4904
        41.0004         22.7504
 03  1 15 16 58 44.9980000  0  9G10G28G 7G26G 8G13G27G29G31
   1324307.25049   1028760.14946  23805506.4904                   23805506.4674
        37.2504         18.5004
  -6679919.84849  -5199754.65848  20243356.1784                   20243353.1934
        50.7504         41.2504
  -6803494.99649  -5286507.38547  22675175.5684                   22675176.7604
        45.2504         28.5004
  -2425012.25449  -1876072.68246  23169428.4124                   23169426.8894
        40.5004         22.7504
  -4490167.53149  -3496268.82648  19688840.2794                   19688837.7404
        50.7504         41.5004
   6724438.44949   5220600.86346  23149461.2794                   23149462.6314
        43.7504         24.0004
  -1942324.88349  -1511852.56048  20274629.8344                   20274628.1504
        50.7504         40.0004
 -11157080.99249  -8687837.20847  22483025.9754                   22483024.3074
        44.7504         29.7504
   3543831.25449   2756020.31346  22718514.9754                   22718514.5414
        41.7504         25.2504
 03  1 15 16 58 59.9980000  0  9G10G28G 7G26G 8G13G27G29G31
   1339580.59449   1040661.27346  23808413.9904                   23808413.2404
        37.7504         20.7504
  -6706198.72349  -5220231.70448  20238354.9984                   20238352.3384
        51.0004         41.0004
  -6869402.40649  -5337863.82447  22662634.1154                   22662634.5764
        45.0004         28.0004
  -2486074.95749  -1923654.00046  23157808.0454                   23157807.3504
        39.7504         23.5004
  -4505556.62149  -3508260.34848  19685911.8114                   19685909.8504
        50.5004         41.2504
   6763646.62149   5251152.60346  23156922.2724                   23156923.7834
        42.7504         24.2504
  -1945012.82449  -1513947.07848  20274118.1544                   20274116.5064
        50.2504         40.2504
 -11212800.87149  -8731255.29547  22472422.5614                   22472420.7604
        44.2504         29.7504
   3572780.43449   2778578.08146  22724023.9284                   22724024.2174
        42.0004         25.2504
 03  1 15 16 59 14.9980000  0  9G10G28G 7G26G 8G13G27G29G31
   1354917.44949   1052612.01446  23811331.2794                   23811333.4434
        38.7504         22.2504
  -6732400.50849  -5240648.68948  20233369.3734                   20233366.1704
        50.7504         41.0004
  -6935269.11749  -5389188.52847  22650099.7644                   22650100.5804
        46.2504         27.7504
  -2547066.27749  -1971179.72946  23146201.9204                   23146201.5494
        41.2504         24.5004
  -4520865.09849  -3520189.05148  19682998.4904                   19682996.1864
        50.7504         41.5004
   6802888.02049   5281730.13046  23164389.7644                   23164391.3184
        43.5004         24.5004
  -1947623.01649  -1515981.02948  20273621.7324                   20273619.5414
        51.0004         40.2504
 -11268434.94949  -8774606.53447  22461836.0924                   22461834.2324
        43.5004         29.7504
   3601819.39549   2801205.80747  22729549.4044                   22729549.9944
        41.2504         26.0004
 03  1 15 16 59 29.9980000  0  9G10G28G 7G26G 8G13G27G29G31
   1370316.98449   1064611.54946  23814262.5144                   23814263.7254
        39.2504         24.0004
  -6758525.71549  -5261005.99348  20228397.7324                   20228394.5724
        49.7504         41.5004
  -7001095.21949  -5440481.58147  22637573.9124                   22637574.5534
        45.7504         28.2504
  -2607986.32449  -2018649.93946  23134608.9904                   23134608.7754
        40.2504         24.7504
  -4536093.32049  -3532055.20148  19680101.0224                   19680098.6274
        50.5004         41.0004
   6842161.83249   5312332.96746  23171864.1074                   23171864.6114
        44.5004         23.5004
  -1950155.68449  -1517954.55148  20273139.9364                   20273138.1934
        50.5004         39.7504
 -11323983.35949  -8817891.01447  22451264.9824                   22451263.9124
        43.0004         30.0004
   3630947.43449   2823902.91547  22735092.1544                   22735093.2094
        43.0004         26.7504
 03  1 15 16 59 44.9980000  0  9G10G28G 7G26G 8G13G27G29G31
   1385777.81649   1076658.84746  23817204.7564                   23817205.4364
        40.5004         22.2504
  -6784575.28549  -5281304.34948  20223441.1074                   20223437.4364
        50.5004         40.7504
  -7066881.34849  -5491743.52047  22625055.0064                   22625055.7014
        45.5004         27.7504
  -2668835.64849  -2066064.95346  23123029.6934                   23123029.6154
        39.5004         24.7504
  -4551242.12949  -3543859.47548  19677218.2874                   19677216.0614
        50.7504         41.2504
   6881466.96149   5342960.21746  23179344.0374                   23179344.8424
        45.0004         25.2504
  -1952611.68749  -1519868.33348  20272672.6394                   20272670.7014
        50.7504         40.2504
 -11379446.65649  -8861109.17647  22440711.0844                   22440709.0614
        44.2504         29.7504
   3660163.03949   2846668.25747  22740652.9284                   22740652.7444
        42.5004         28.2504
 03  1 15 16 59 59.9980000  0  9G10G28G 7G26G 8G13G27G29G31
   1401302.34849   1088755.79446  23820159.4594                   23820159.7364
        37.5004         22.7504
  -6810546.68749  -5301541.83448  20218498.5144                   20218495.4164
        51.0004         41.0004
  -7132624.59049  -5542972.03147  22612544.5454                   22612545.5574
        45.2504         28.5004
  -2729611.26249  -2113422.58946  23111464.8114                   23111464.2994
        39.5004         24.5004
  -4566308.81649  -3555599.78348  19674351.1864                   19674348.6504
        50.5004         41.0004
   6920805.67649   5373613.61646  23186829.0064                   23186830.7094
        44.5004         24.0004
  -1954988.35549  -1521720.32748  20272220.3344                   20272218.4204
        51.0004         40.0004
 -11434821.99249  -8904258.81047  22430173.6234                   22430171.7874
        45.2504         30.0004
   3689468.72749   2869503.79947  22746228.9364                   22746228.9904
        43.0004         28.7504
 03  1 15 17  0 14.9980000  0  9G10G28G 7G26G 8G13G27G29G31
   1416887.31649   1100899.82846  23823124.9594                   23823125.5764
        39.0004         22.0004
  -6836442.96149  -5321720.74748  20213570.8734                   20213567.1784
        50.5004         41.0004
  -7198327.52049  -5594169.11147  22600041.5764                   22600042.3614
        46.0004         28.0004
  -2790315.80149  -2160724.86346  23099912.5764                   23099912.2564
        39.2504         23.0004
  -4581296.11749  -3567278.21048  19671499.1074                   19671496.5374
        51.7504         41.0004
   6960174.73449   5404290.66446  23194321.4044                   23194322.6004
        43.7504         24.2504
  -1957288.53549  -1523512.69248  20271782.6704                   20271780.9244
        51.0004         40.0004
 -11490111.91449  -8947341.86147  22419652.1784                   22419650.6664
        45.0004         30.2504
   3718861.09449   2892406.87347  22751822.6784                   22751822.1194
        43.7504         28.2504
 03  1 15 17  0 29.9980000  0  9G10G28G 7G26G 8G13G27G29G31
   1432534.68449   1113092.50646  23826102.5684                   23826103.6744
        39.0004         22.5004
  -6862261.83649  -5341839.35448  20208657.2564                   20208654.4514
        49.5004         40.7504
  -7263987.60549  -5645332.80247  22587546.9364                   22587547.6194
        45.2504         29.2504
  -2850946.68049  -2207969.70346  23088375.1394                   23088375.0454
        40.0004         23.2504
  -4596201.52349  -3578892.81648  19668662.8034                   19668660.3854
        51.0004         41.0004
   6999576.19949   5434992.95446  23201819.3264                   23201820.2294
        44.0004         25.0004
  -1959509.61349  -1525243.42848  20271360.0064                   20271357.6784
        51.0004         39.7504
 -11545313.70749  -8990356.23947  22409147.5924                   22409146.2254
        43.5004         30.5004
   3748342.25049   2915379.14847  22757432.5614                   22757432.3464
        42.2504         28.5004
 03  1 15 17  0 44.9980000  0  9G10G28G 7G26G 8G13G27G29G31
   1448241.28549   1125331.37046  23829091.6474                   23829092.5764
        39.0004         21.5004
  -6888006.10949  -5361899.83148  20203758.7564                   20203755.4714
        50.2504         41.0004
  -7329607.13349  -5696464.90347  22575060.1004                   22575060.8114
        45.2504         28.0004
  -2911506.18849  -2255158.92446  23076851.2324                   23076850.5224
        38.0004         22.0004
  -4611027.71549  -3590445.71148  19665841.5684                   19665839.0064
        51.2504         41.5004
   7039006.98449   5465718.10947  23209322.9984                   23209323.8384
        44.5004         25.7504
  -1961654.41049  -1526914.72548  20270951.7174                   20270949.8224
        51.5004         39.7504
 -11600429.88749  -9033303.93747  22398659.4514                   22398657.4164
        44.5004         29.7504
   3777909.11349   2938418.19647  22763058.5534                   22763059.0884
        41.7504         28.0004
 03  1 15 17  0 59.9980000  0  9G10G28G 7G26G 8G13G27G29G31
   1464009.53549   1137618.21046  23832091.8424                   23832093.2684
        37.2504         19.5004
  -6913673.13749  -5381900.11048  20198874.3114                   20198871.0024
        50.0004         40.7504
  -7395183.04349  -5747563.01147  22562581.4514                   22562582.0644
        45.0004         27.2504
  -2971991.25449  -2302290.11946  23065341.1784                   23065340.1704
        39.7504         22.7504
  -4625771.76249  -3601934.60148  19663035.8344                   19663033.1434
        50.7504         41.0004
   7078469.51249   5496467.99046  23216832.8264                   23216833.9984
        45.0004         25.0004
  -1963720.09449  -1528524.36448  20270558.7724                   20270557.0884
        51.5004         40.0004
 -11655457.44549  -9076182.55647  22388188.0844                   22388186.1274
        43.7504         29.5004
   3807563.91849   2961525.76747  22768701.7724                   22768701.8614
        40.7504         27.2504
 03  1 15 17  1 14.9980000  0  9G10G28G 7G26G 8G13G27G29G31
   1479836.94149   1149951.20846  23835103.1704                   23835105.1864
        37.5004         19.2504
  -6939265.09049  -5401841.90148  20194004.3654                   20194001.0844
        50.5004         40.7504
  -7460717.27049  -5798628.61947  22550110.3814                   22550110.9514
        45.7504         29.0004
  -3032403.71949  -2349364.80846  23053845.6394                   23053843.8734
        40.5004         22.5004
  -4640435.89549  -3613361.20248  19660244.8424                   19660242.9754
        50.2504         40.7504
   7117961.34049   5527240.70546  23224347.5844                   23224348.7444
        45.2504         25.0004
  -1965708.62549  -1530073.89548  20270180.3184                   20270178.2364
        51.5004         39.7504
 -11710398.05149  -9118993.41947  22377732.8114                   22377731.5844
        43.5004         29.0004
   3837304.22949   2984699.96246  22774361.0684                   22774361.6974
        39.0004         25.2504
 03  1 15 17  1 29.9980000  0  9G10G28G 7G26G 8G13G27G29G31
   1495724.73849   1162331.17646  23838126.8184                   23838128.6744
        37.5004         19.0004
  -6964780.42249  -5421723.98448  20189148.6784                   20189145.4864
        49.5004         41.0004
  -7526208.00049  -5849660.34147  22537647.8034                   22537648.6394
        46.0004         28.7504
  -3092741.69549  -2396381.39146  23042363.0764                   23042362.9984
        40.7504         22.0004
  -4655018.28549  -3624724.13148  19657470.1004                   19657468.1114
        50.0004         41.2504
   7157483.84849   5558037.31247  23231868.5224                   23231869.6784
        45.0004         26.2504
  -1967618.36349  -1531562.02148  20269817.0924                   20269815.0144
        50.5004         40.0004
 -11765249.93049  -9161735.15147  22367295.2794                   22367293.5184
        44.5004         29.0004
   3867131.32049   3007941.83047  22780036.7484                   22780037.3464
        39.7504         26.0004
 03  1 15 17  1 44.9980000  0  9G10G28G 7G26G 8G13G27G29G31
   1511671.95349   1174757.56646  23841161.4364                   23841162.9864
        36.5004         19.5004
  -6990219.77049  -5441546.85148  20184307.9124                   20184304.7294
        50.5004         41.2504
  -7591655.20749  -5900658.13847  22525193.9594                   22525194.3574
        46.0004         29.0004
  -3153005.25049  -2443340.00346  23030895.6394                   23030894.7404
        40.2504         21.7504
  -4669519.32849  -3636023.66048  19654710.7644                   19654708.4864
        51.2504         42.0004
   7197036.20749   5588857.23146  23239395.2724                   23239396.6664
        45.0004         25.5004
  -1969449.64849  -1532989.02848  20269468.1784                   20269466.5924
        51.0004         40.0004
 -11820013.13349  -9204407.80347  22356873.7484                   22356872.0644
        45.2504         30.0004
   3897044.46549   3031250.69546  22785728.8574                   22785730.0534
        41.2504         25.0004
 03  1 15 17  1 59.9980000  0  9G10G28G 7G26G 8G13G27G29G31
   1527676.66849   1187228.65246  23844207.8344                   23844208.5254
        37.0004         20.0004
  -7015585.02049  -5461311.98048  20179481.1934                   20179478.0144
        49.7504         41.0004
  -7657060.49649  -5951623.24547  22512748.0924                   22512748.5644
        47.0004         29.5004
  -3213195.86349  -2490241.82746  23019441.6704                   23019440.8224
        40.0004         22.2504
  -4683940.51249  -3647260.96048  19651966.5534                   19651964.3264
        50.7504         41.5004
   7236616.33649   5619698.72147  23246927.0454                   23246928.5614
        45.0004         25.7504
  -1971204.23849  -1534356.26248  20269134.8894                   20269132.9824
        50.7504         39.7504
 -11874689.20749  -9247012.52347  22346469.3974                   22346467.8614
        44.5004         29.5004
   3927041.38349   3054624.84047  22791437.4044                   22791438.5844
        42.0004         26.5004
 03  1 15 17  2 14.9980000  0  9G10G28G 7G26G 8G13G27G29G31
   1543738.66449   1199744.38146  23847264.2484                   23847265.7604
        39.5004         20.5004
  -7040875.87949  -5481019.14548  20174668.6004                   20174665.3424
        50.7504         41.2504
  -7722423.28949  -6002555.26647  22500309.4364                   22500310.3854
        46.2504         29.0004
  -3273312.92249  -2537086.26946  23008001.5144                   23008001.3264
        38.2504         24.7504
  -4698281.61749  -3658435.86648  19649237.5614                   19649235.4794
        50.5004         41.2504
   7276224.19149   5650561.84446  23254464.2644                   23254465.7724
        44.7504         24.7504
  -1972881.68049  -1535663.38947  20268815.4824                   20268814.0534
        51.0004         39.2504
 -11929277.55949  -9289548.91147  22336082.2564                   22336079.9634
        44.5004         30.0004
   3957122.07449   3078064.26447  22797161.9044                   22797162.4434
        41.5004         26.7504
 03  1 15 17  2 29.9980000  0  9G10G28G 7G26G 8G13G27G29G31
   1559858.80549   1212305.54946  23850332.2404                   23850332.7444
        38.0004         20.7504
  -7066091.13749  -5500667.40448  20169870.1004                   20169866.8114
        50.2504         41.0004
  -7787741.92649  -6053452.87047  22487879.6474                   22487881.1974
        46.2504         28.5004
  -3333354.84849  -2583872.17046  22996576.6474                   22996575.7914
        40.2504         25.2504
  -4712541.23449  -3669547.26848  19646524.0144                   19646521.8074
        50.7504         41.2504
   7315860.75449   5681447.31646  23262006.8184                   23262008.2684
        44.5004         25.2504
  -1974480.63349  -1536909.34348  20268511.1074                   20268509.0454
        50.2504         39.5004
 -11983776.48049  -9332015.62847  22325710.9824                   22325709.6824
        46.0004         29.7504
   3987287.51249   3101569.72147  22802902.1004                   22802902.9514
        42.0004         26.2504
 03  1 15 17  2 44.9980000  0  9G10G28G 7G26G 8G13G27G29G31
   1576035.94549   1224910.99146  23853410.8574                   23853411.5064
        38.2504         20.5004
  -7091231.73449  -5520257.48648  20165086.0764                   20165082.7014
        50.2504         41.0004
  -7853016.89849  -6104316.45447  22475459.2324                   22475459.4324
        46.7504         29.5004
  -3393322.04349  -2630599.86946  22985165.4044                   22985164.1274
        42.0004         25.5004
  -4726719.93049  -3680595.62248  19643826.0064                   19643823.6154
        51.5004         41.0004
   7355524.95749   5712354.36047  23269554.7404                   23269556.4944
        44.0004         26.5004
  -1976001.74249  -1538094.65047  20268221.7254                   20268220.0724
        50.5004         39.0004
 -12038186.48449  -9374413.02547  22315357.3734                   22315356.0884
        44.7504         30.0004
   4017536.50849   3125140.29947  22808658.6784                   22808659.1044
        41.7504         27.5004
 03  1 15 17  2 59.9980000  0  9G10G28G 7G26G 8G13G27G29G31
   1592271.10249   1237561.67946  23856500.5064                   23856500.5534
        40.5004         21.0004
  -7116296.41049  -5539788.39948  20160316.3424                   20160313.2214
        51.0004         41.5004
  -7918246.69149  -6155144.78647  22463045.5684                   22463046.4674
        46.5004         29.0004
  -3453212.86349  -2677268.04247  22973768.4594                   22973767.6474
        41.5004         26.5004
  -4740816.36749  -3691579.86648  19641143.2094                   19641140.9324
        50.2504         41.0004
   7395217.73049   5743283.64347  23277108.7484                   23277109.6114
        45.0004         25.7504
  -1977443.75049  -1539218.31748  20267947.4514                   20267945.6934
        50.2504         39.5004
 -12092506.07849  -9416739.99347  22305020.5144                   22305019.8144
        45.0004         31.0004
   4047870.01649   3148776.74847  22814430.8504                   22814431.3894
        40.2504         28.0004
 03  1 15 17  3 14.9980000  0  9G10G28G 7G26G 8G13G27G29G31
   1608563.37549   1250256.90346  23859600.0144                   23859601.1004
        38.7504         20.2504
  -7141285.79749  -5559260.66548  20155561.2794                   20155558.0844
        51.0004         41.2504
  -7983431.48449  -6205938.08947  22450641.0224                   22450641.5144
        46.5004         29.5004
  -3513027.57849  -2723876.90246  22962385.6234                   22962385.0724
        41.5004         25.0004
  -4754830.95749  -3702500.34348  19638476.5374                   19638474.1704
        51.2504         41.0004
   7434938.31649   5774234.59346  23284667.1864                   23284667.9594
        45.0004         24.2504
  -1978806.88749  -1540280.52147  20267687.8504                   20267686.6314
        51.0004         39.2504
 -12146735.20749  -9458996.46747  22294700.9284                   22294699.4124
        45.2504         30.5004
   4078287.13349   3172478.30747  22820219.2404                   22820219.5924
        42.0004         26.7504
 03  1 15 17  3 29.9980000  0  9G10G28G 7G26G 8G13G27G29G31
   1624911.24249   1262995.42146  23862711.0614                   23862712.3114
        39.2504         21.0004
  -7166201.16449  -5578675.23248  20150820.0374                   20150816.9004
        50.5004         41.2504
  -8048572.13749  -6256697.01747  22438245.2014                   22438245.9674
        45.5004         29.2504
  -3572767.04749  -2770427.13446  22951017.9204                   22951016.8774
        43.0004         25.5004
  -4768764.78149  -3713357.87648  19635825.1704                   19635822.6474
        51.0004         41.2504
   7474685.14549   5805206.01246  23292231.3974                   23292232.3424
        44.5004         24.5004
  -1980092.53949  -1541282.35747  20267443.4594                   20267441.8614
        51.0004         39.2504
 -12200875.11349  -9501183.42947  22284398.6934                   22284396.8304
        45.5004         30.0004
   4108786.41849   3196243.88947  22826023.1004                   22826023.8264
        43.5004         27.0004
 03  1 15 17  3 44.9980000  0  9G10G28G 7G26G 8G13G27G29G31
   1641314.96549   1275777.45646  23865832.9364                   23865833.9364
        39.2504         21.5004
  -7191042.02349  -5598031.75648  20146093.1624                   20146089.4754
        50.5004         41.0004
  -8113667.76249  -6307420.80847  22425858.7014                   22425858.7294
        47.0004         29.7504
  -3632430.28949  -2816918.00247  22939664.2564                   22939662.8694
        43.0004         27.2504
  -4782617.00449  -3724151.83048  19633188.9984                   19633187.1824
        50.5004         41.2504
   7514458.52749   5836198.08346  23299799.6544                   23299801.4204
        44.2504         22.7504
  -1981299.80949  -1542223.11548  20267213.8114                   20267212.2874
        51.2504         39.5004
 -12254924.74249  -9543300.02747  22274112.8424                   22274112.4394
        44.5004         30.0004
   4139367.98449   3220073.60947  22831843.0224                   22831843.0844
        41.5004         27.2504
 03  1 15 17  3 59.9980000  0  9G10G28G 7G26G 8G13G27G29G31
   1657774.30149   1288602.81546  23868965.2254                   23868965.4594
        38.5004         21.0004
  -7215808.00449  -5617329.93848  20141379.8264                   20141376.6544
        51.2504         41.5004
  -8178717.73449  -6358109.05347  22413479.4984                   22413480.0844
        46.0004         29.7504
  -3692016.69149  -2863348.97747  22928325.6864                   22928324.4244
        43.2504         27.0004
  -4796387.37149  -3734882.01348  19630568.7484                   19630567.0414
        50.5004         41.0004
   7554258.49649   5867210.90046  23307373.7404                   23307374.7484
        43.7504         22.5004
  -1982428.39149  -1543102.55147  20266998.8344                   20266997.1434
        50.2504         39.0004
 -12308883.29749  -9585345.66947  22263845.1474                   22263844.0724
        45.0004         30.0004
   4170031.89549   3243967.46047  22837678.5614                   22837678.6664
        42.0004         27.2504
 03  1 15 17  4 14.9980000  0  9G10G28G 7G26G 8G13G27G29G31
   1674288.81349   1301471.18546  23872106.5614                   23872108.9474
        36.0004         20.2504
  -7240499.63749  -5636570.16348  20136681.6074                   20136677.8694
        51.2504         41.7504
  -8243722.16449  -6408761.78247  22401109.2014                   22401110.3854
        45.2504         29.5004
  -3751526.29749  -2909720.07647  22917000.9124                   22917000.2364
        42.7504         27.0004
  -4810076.05149  -3745548.51648  19627963.7174                   19627962.1044
        50.7504         40.7504
   7594084.57849   5898244.06746  23314951.6624                   23314954.3384
        44.2504         23.7504
  -1983478.52049  -1543920.84947  20266799.3974                   20266797.0764
        51.0004         39.0004
 -12362750.89549  -9627320.43447  22253594.4824                   22253593.4284
        45.7504         30.7504
   4200777.37949   3267924.90847  22843528.4204                   22843528.9864
        43.2504         28.5004
 03  1 15 17  4 29.9980000  0  9G10G28G 7G26G 8G13G27G29G31
   1690858.68448   1314382.73046  23875259.8344                   23875261.6474
        34.5004         18.5004
  -7265116.30149  -5655751.98948  20131997.2874                   20131993.6154
        51.5004         41.2504
  -8308680.14849  -6459378.34947  22388748.4044                   22388748.7364
        45.7504         29.2504
  -3810958.11349  -2956030.61747  22905691.5064                   22905690.3224
        43.0004         27.5004
  -4823682.35549  -3756150.85148  19625374.8344                   19625372.8974
        50.2504         41.5004
   7633936.71149   5929297.46646  23322535.9124                   23322537.3614
        43.0004         22.5004
  -1984449.45349  -1544677.43947  20266614.4284                   20266612.6624
        50.7504         39.0004
 -12416526.80549  -9669223.74747  22243361.7644                   22243360.7174
        45.0004         31.2504
   4231604.76249   3291946.15847  22849394.9674                   22849394.8504
        41.0004         26.7504
 03  1 15 17  4 44.9980000  0  9G10G28G 7G26G 8G13G27G29G31
   1707483.44548   1327336.94946  23878422.8264                   23878425.7404
        34.7504         17.2504
  -7289658.11349  -5674875.50048  20127326.9904                   20127323.6864
        50.7504         41.2504
  -8373591.28149  -6509958.38047  22376395.4674                   22376396.1434
        46.2504         30.7504
  -3870311.72749  -3002280.19647  22894397.2174                   22894396.4364
        41.7504         27.5004
  -4837206.00049  -3766688.76548  19622801.1624                   19622798.9364
        50.2504         41.5004
   7673814.76649   5960371.17446  23330125.0144                   23330126.8184
        44.0004         24.2504
  -1985341.16049  -1545372.30948  20266444.8734                   20266442.7684
        50.5004         39.5004
 -12470210.50849  -9711055.20947  22233145.9754                   22233144.4594
        44.7504         32.0004
   4262513.69549   3316030.97547  22855277.0144                   22855276.8074
        42.7504         26.2504
 03  1 15 17  4 59.9980000  0  9G10G28G 7G26G 8G13G27G29G31
   1724163.10948   1340333.95746  23881597.2254                   23881599.2134
        35.0004         18.2504
  -7314125.00049  -5693940.61348  20122671.0844                   20122667.9554
        50.5004         41.2504
  -8438454.99649  -6560501.48547  22364052.4514                   22364053.4864
        46.2504         29.5004
  -3929586.72749  -3048468.49447  22883117.2794                   22883116.3184
        42.5004         26.5004
  -4850646.67649  -3777162.04448  19620243.7404                   19620241.5254
        51.5004         41.5004
   7713718.78149   5991465.06546  23337718.7874                   23337720.5534
        43.5004         25.0004
  -1986153.15249  -1546005.04948  20266290.2954                   20266288.0334
        50.5004         39.5004
 -12523801.48049  -9752814.42847  22222947.9044                   22222946.3264
        45.0004         32.2504
   4293504.09449   3340179.27147  22861174.3264                   22861173.6004
        43.7504         27.5004
 03  1 15 17  5 14.9980000  0  9G10G28G 7G26G 8G13G27G29G31
   1740896.68049   1353372.99346  23884781.8974                   23884784.2014
        36.0004         19.2504
  -7338517.33249  -5712947.63948  20118029.1784                   20118026.2524
        50.7504         41.2504
  -8503271.48049  -6611007.78147  22351718.6624                   22351719.6744
        45.7504         29.5004
  -3988783.04749  -3094595.50747  22871852.7874                   22871851.9084
        41.7504         27.0004
  -4864004.84849  -3787571.01748  19617701.3974                   19617699.5414
        51.2504         41.2504
   7753648.04349   6022578.56546  23345316.1864                   23345318.7324
        42.5004         22.0004
  -1986885.94149  -1546576.07147  20266150.8034                   20266148.7914
        50.5004         39.0004
 -12577299.77349  -9794501.39247  22212767.3264                   22212766.2254
        45.5004         31.2504
   4324575.15649   3364390.41247  22867086.7094                   22867086.6664
        42.5004         26.5004
 03  1 15 17  5 29.9980000  0  9G10G28G 7G26G 8G13G27G29G31
   1757683.13749   1366453.25946  23887976.9984                   23887978.4794
        37.0004         19.2504
  -7362835.83249  -5731897.13048  20113401.8654                   20113398.4284
        50.5004         41.5004
  -8568041.05949  -6661477.52147  22339393.2014                   22339393.6864
        45.7504         29.0004
  -4047901.04349  -3140661.45846  22860602.3344                   22860602.2834
        42.7504         25.5004
  -4877280.88749  -3797915.99148  19615175.1004                   19615173.1784
        51.0004         41.5004
   7793601.54749   6053711.02146  23352919.1704                   23352921.2994
        43.0004         22.5004
  -1987539.92249  -1547085.67547  20266026.1394                   20266024.3184
        50.0004         39.0004
 -12630705.89549  -9836116.56047  22202604.5454                   22202603.0334
        44.7504         30.0004
   4355725.95349   3388663.68347  22873014.7484                   22873014.6934
        44.0004         26.5004
 03  1 15 17  5 44.9980000  0  8G28G 7G26G 8G13G27G29G31
  -7387079.95349  -5750788.65848  20108787.9984                   20108784.8304
        50.7504         41.2504
  -8632762.82849  -6711910.03047  22327076.8184                   22327077.1824
        46.2504         30.0004
  -4106939.73849  -3186665.63547  22849368.0224                   22849366.9084
        41.5004         27.2504
  -4890474.06249  -3808196.40548  19612664.6474                   19612662.6704
        50.2504         41.0004
   7833579.60249   6084862.63646  23360526.8034                   23360529.1314
        42.7504         22.0004
  -1988114.46149  -1547533.40047  20265917.0534                   20265915.2754
        50.0004         39.0004
 -12684018.60549  -9877658.93147  22192459.4204                   22192457.8974
        45.2504         30.7504
   4386956.69949   3412999.22446  22878957.7404                   22878958.1154
        43.5004         25.5004
 03  1 15 17  5 59.9980000  0  8G28G 7G26G 8G13G27G29G31
  -7411250.34849  -5769622.73848  20104188.7404                   20104185.2794
        50.0004         41.0004
  -8697437.04749  -6762305.47247  22314769.5144                   22314770.0844
        46.0004         29.7504
  -4165899.51249  -3232608.33047  22838148.5454                   22838146.9124
        42.2504         26.0004
  -4903584.89149  -3818412.64148  19610169.8034                   19610167.5144
        51.2504         41.0004
   7873581.30949   6116032.61746  23368139.9824                   23368141.9594
        43.5004         22.5004
  -1988610.02049  -1547919.56247  20265822.5614                   20265820.7054
        51.0004         39.2504
 -12737238.37549  -9919128.90047  22182332.5224                   22182330.3894
        46.2504         30.7504
   4418266.52349   3437396.40347  22884916.1154                   22884916.2294
        43.5004         26.2504
 03  1 15 17  6 14.9980000  0  8G28G 7G26G 8G13G27G29G31
  -7435346.44549  -5788398.93448  20099603.4364                   20099600.3144
        50.0004         41.0004
  -8762062.68749  -6812663.04247  22302472.3574                   22302472.7484
        46.7504         30.2504
  -4224779.18749  -3278488.57346  22826944.0684                   22826942.8574
        42.0004         25.5004
  -4916612.47349  -3828564.02848  19607690.8574                   19607688.3574
        50.5004         41.2504
   7913607.32449   6147221.50946  23375756.7564                   23375758.4984
        43.2504         22.5004
  -1989025.79349  -1548243.57747  20265743.5764                   20265741.8734
        50.2504         39.2504
 -12790364.17649  -9960525.64047  22172222.9514                   22172221.1074
        45.0004         31.0004
   4449655.76649   3461855.47147  22890889.2324                   22890889.6004
        44.0004         27.0004
 03  1 15 17  6 29.9980000  0  8G28G 7G26G 8G13G27G29G31
  -7459367.53949  -5807116.69148  20095032.2404                   20095029.1394
        50.5004         41.0004
  -8826638.59849  -6862981.87747  22290184.1234                   22290184.3344
        47.0004         31.0004
  -4283577.64549  -3324305.57647  22815754.6474                   22815753.9864
        42.0004         26.0004
  -4929555.87149  -3838649.79248  19605227.8894                   19605225.3774
        50.2504         41.0004
   7953657.96549   6178429.66646  23383376.9204                   23383379.4824
        41.5004         21.7504
  -1989360.88349  -1548504.69447  20265679.6784                   20265678.1974
        50.7504         39.0004
 -12843394.85949 -10001848.26647  22162131.5374                   22162130.0024
        46.5004         31.7504
   4481124.96149   3486376.81947  22896877.6234                   22896877.8464
        42.0004         26.7504
 03  1 15 17  6 44.9980000  0  8G28G 7G26G 8G13G27G29G31
  -7483314.16449  -5825776.40148  20090475.1624                   20090472.0614
        50.2504         41.2504
  -8891164.92649  -6913262.07947  22277905.5144                   22277904.9754
        47.5004         30.5004
  -4342294.93049  -3370059.30846  22804581.5064                   22804580.1744
        42.0004         25.2504
  -4942415.45749  -3848670.25948  19602780.5764                   19602778.4204
        51.0004         40.7504
   7993732.36349   6209656.34346  23391003.2254                   23391004.7914
        41.2504         21.5004
  -1989615.69949  -1548703.29147  20265631.3264                   20265629.3894
        50.7504         39.2504
 -12896330.53949 -10043096.85547  22152058.1234                   22152056.5614
        45.0004         31.5004
   4512673.24649   3510959.83347  22902880.9514                   22902881.8544
        42.2504         26.0004
 03  1 15 17  6 59.9980000  0  8G28G 7G26G 8G13G27G29G31
  -7507185.10949  -5844377.13748  20085932.6704                   20085929.8224
        50.0004         41.0004
  -8955640.21949  -6963502.52547  22265635.3654                   22265635.9754
        46.5004         31.2504
  -4400929.60949  -3415748.67147  22793423.4754                   22793422.4124
        42.7504         26.2504
  -4955189.96949  -3858624.44348  19600349.8264                   19600347.2604
        51.0004         41.0004
   8033831.62949   6240902.33846  23398634.3114                   23398636.4594
        42.5004         22.5004
  -1989789.03949  -1548838.36948  20265597.9364                   20265596.9514
        50.2504         39.5004
 -12949169.82449 -10084270.31947  22142002.9674                   22142001.0614
        45.5004         31.5004
   4544301.26649   3535604.93947  22908899.1704                   22908900.4394
        42.2504         26.7504
 03  1 15 17  7 14.9980000  0  8G28G 7G26G 8G13G27G29G31
  -7530979.78549  -5862918.45948  20081405.1934                   20081401.7254
        50.5004         41.2504
  -9020063.55549  -7013702.45947  22253376.0454                   22253376.4044
        46.5004         30.2504
  -4459480.67649  -3461372.87447  22782281.6704                   22782280.5254
        42.5004         25.7504
  -4967878.73049  -3868511.80748  19597935.2014                   19597932.7604
        51.2504         41.2504
   8073955.96149   6272167.82846  23406270.6004                   23406272.3114
        42.0004         22.5004
  -1989879.97349  -1548909.25247  20265581.1154                   20265579.3074
        51.0004         39.0004
 -13001911.55949 -10125367.79247  22131966.6704                   22131965.0454
        47.0004         31.0004
   4576009.61349   3560312.64046  22914933.6624                   22914934.4394
        41.5004         24.2504
 03  1 15 17  7 29.9980000  0  8G28G 7G26G 8G13G27G29G31
  -7554699.27349  -5881401.18748  20076890.9984                   20076887.9204
        50.2504         41.2504
  -9084435.55549  -7063862.39847  22241126.6544                   22241127.1314
        46.2504         30.7504
  -4517948.92249  -3506932.57447  22771155.6394                   22771154.5024
        43.0004         25.7504
  -4980482.37949  -3878332.84148  19595536.7794                   19595534.7324
        50.5004         41.2504
   8114104.02749   6303451.89546  23413909.3574                   23413911.6544
        41.0004         22.2504
  -1989889.49649  -1548916.68848  20265578.9754                   20265577.5804
        50.5004         39.5004
 -13054556.62549 -10166389.91847  22121948.5064                   22121946.7914
        46.5004         32.2504
   4607796.90649   3585081.86346  22920982.3734                   22920983.7724
        42.0004         25.5004
 03  1 15 17  7 44.9980000  0  8G28G 7G26G 8G13G27G29G31
  -7578344.44549  -5899826.00448  20072391.7954                   20072388.5374
        50.7504         41.2504
  -9148756.75049  -7113982.78447  22228886.5684                   22228887.2214
        46.5004         30.7504
  -4576334.55149  -3552427.86546  22760044.8264                   22760043.7214
        42.7504         25.2504
  -4993001.66849  -3888088.14048  19593154.2014                   19593152.4204
        50.5004         41.0004
   8154274.77749   6334753.63946  23421554.1704                   23421555.8974
        41.5004         22.2504
  -1989818.32049  -1548861.25247  20265592.7954                   20265591.3574
        50.5004         39.0004
 -13107105.28549 -10207336.92047  22111948.6474                   22111947.3974
        46.0004         32.0004
   4639661.96149   3609911.69247  22927046.6314                   22927047.1864
        41.2504         26.7504
 03  1 15 17  7 59.9980000  0  8G28G 7G26G 8G13G27G29G31
  -7601914.59449  -5918192.37548  20067906.8814                   20067903.3464
        50.5004         41.7504
  -9213025.98849  -7164062.67147  22216656.1544                   22216657.0414
        47.0004         30.7504
  -4634636.62149  -3597858.06547  22748950.6864                   22748949.6394
        42.0004         26.0004
  -5005435.57049  -3897776.91648  19590788.0144                   19590786.2914
        50.2504         41.0004
   8194468.87949   6366073.53046  23429203.6004                   23429204.8184
        42.0004         21.7504
  -1989665.44149  -1548742.14747  20265621.7174                   20265620.6074
        50.5004         39.2504
 -13159556.47349 -10248207.99447  22101967.7484                   22101966.2174
        45.7504         31.5004
   4671605.33649   3634802.51647  22933125.4204                   22933125.8304
        42.5004         25.7504
 03  1 15 17  8 14.9980000  0  8G28G 7G26G 8G13G27G29G31
  -7625412.36349  -5936502.33048  20063434.9824                   20063432.0534
        50.7504         41.0004
  -9277245.58649  -7214103.84447  22204435.8894                   22204436.4824
        45.7504         31.5004
  -4692857.27049  -3643224.83547  22737871.5844                   22737871.0184
        43.0004         26.2504
  -5017786.73849  -3907401.21348  19588437.8894                   19588436.1434
        51.0004         41.5004
   8234683.39849   6397409.36646  23436856.0064                   23436857.6274
        40.7504         22.0004
  -1989433.50849  -1548561.44148  20265666.0844                   20265664.7134
        51.0004         39.7504
 -13211912.63749 -10289005.00347  22092004.2404                   22092002.8504
        46.2504         31.7504
   4703623.82049   3659751.89946  22939218.3264                   22939219.2214
        43.0004         25.2504
 03  1 15 17  8 29.9980000  0  8G28G 7G26G 8G13G27G29G31
  -7648836.03949  -5954754.55948  20058977.6474                   20058974.5374
        51.2504         41.0004
  -9341413.37549  -7264104.65747  22192224.9434                   22192225.6894
        45.7504         31.0004
  -4750994.39149  -3688526.48147  22726808.7484                   22726807.7364
        43.2504         27.0004
  -5030053.19549  -3916959.50648  19586103.5224                   19586101.2724
        50.5004         41.2504
   8274919.68849   6428762.15246  23444512.5764                   23444513.8614
        42.0004         22.0004
  -1989120.56649  -1548317.61948  20265725.8734                   20265723.7564
        50.7504         39.5004
 -13264171.48449 -10329726.19447  22082060.2874                   22082058.3774
        47.2504         32.5004
   4735719.13749   3684761.13346  22945325.0684                   22945326.8224
        42.0004         24.5004
 03  1 15 17  8 44.9980000  0  8G28G 7G26G 8G13G27G29G31
  -7672187.01649  -5972950.12048  20054534.1154                   20054530.6314
        50.5004         41.2504
  -9405530.36749  -7314065.90047  22180024.0454                   22180024.5724
        46.0004         31.5004
  -4809048.92649  -3733763.76547  22715761.1154                   22715760.2874
        43.0004         26.5004
  -5042236.06249  -3926452.65148  19583785.3654                   19583783.4364
        50.5004         41.0004
   8315176.43049   6460130.86646  23452173.9514                   23452174.7134
        42.2504         22.7504
  -1988727.71949  -1548011.51648  20265800.3894                   20265798.9944
        50.5004         39.5004
 -13316333.96149 -10370372.28047  22072134.0614                   22072132.4124
        47.5004         32.0004
   4767889.68449   3709828.98846  22951447.3504                   22951449.1074
        42.0004         24.7504
 03  1 15 17  8 59.9980000  0  8G28G 7G26G 8G13G27G29G31
  -7695466.08249  -5991089.66848  20050104.3034                   20050101.3734
        51.0004         41.2504
  -9469597.02349  -7363987.91447  22167832.2324                   22167832.4824
        46.5004         30.7504
  -4867021.27749  -3778937.01747  22704729.3574                   22704728.9324
        44.2504         26.0004
  -5054336.01649  -3935881.21748  19581482.8504                   19581480.6474
        51.2504         41.0004
   8355452.52049   6491514.68046  23459837.4754                   23459839.6194
        40.0004         21.0004
  -1988255.80149  -1547643.82348  20265890.0534                   20265888.7754
        50.2504         39.5004
 -13368400.66049 -10410943.73347  22062226.0294                   22062225.2724
        47.0004         32.7504
   4800134.19549   3734954.51346  22957583.4364                   22957584.5494
        42.0004         25.0004
 03  1 15 17  9 14.9980000  0  8G28G 7G26G 8G13G27G29G31
  -7718672.80549  -6009172.84148  20045688.1074                   20045685.1474
        50.7504         41.2504
  -9533612.58649  -7413870.12947  22155650.8734                   22155650.9164
        47.0004         30.7504
  -4924910.55549  -3824045.58247  22693713.0924                   22693713.2094
        42.5004         26.0004
  -5066352.31249  -3945244.58348  19579196.4824                   19579193.9754
        50.5004         41.0004
   8395748.14149   6522913.68946  23467505.9754                   23467507.8034
        41.7504         20.7504
  -1987704.07849  -1547213.91648  20265994.9904                   20265993.5294
        50.5004         39.5004
 -13420370.51249 -10451439.71547  22052336.3734                   22052335.2834
        46.5004         32.2504
   4832452.93849   3760137.87546  22963734.0224                   22963734.7644
        41.0004         23.0004
 03  1 15 17  9 29.9980000  0  8G28G 7G26G 8G13G27G29G31
  -7741809.05149  -6027201.08848  20041285.6934                   20041282.3264
        51.0004         41.5004
  -9597578.38749  -7463713.55047  22143478.2174                   22143478.9944
        46.5004         31.5004
  -4982718.35549  -3869090.61147  22682712.9124                   22682712.6784
        42.5004         26.2504
  -5078286.72349  -3954544.12648  19576925.2014                   19576923.1894
        50.2504         41.5004
   8436061.07449   6554326.20446  23475177.2404                   23475178.9984
        40.2504         22.0004
  -1987074.21949  -1546723.14747  20266115.0844                   20266113.3264
        50.5004         39.2504
 -13472245.19949 -10491861.56047  22042465.2874                   22042463.6704
        46.5004         31.7504
   4864843.83649   3785377.46746  22969897.4364                   22969898.4754
        40.7504         23.0004
 03  1 15 17  9 44.9980000  0  8G28G 7G26G 8G13G27G29G31
  -7764872.89149  -6045172.92248  20036896.6934                   20036893.7054
        51.5004         41.2504
  -9661492.31249  -7513516.55747  22131315.4674                   22131316.4004
        46.7504         31.5004
  -5040442.28949  -3914070.31047  22671727.8184                   22671727.2564
        43.2504         25.7504
  -5090137.30949  -3963778.36448  19574670.1544                   19574668.0144
        51.0004         41.5004
   8476393.00049   6585753.46346  23482852.5224                   23482853.9634
        40.7504         22.0004
  -1986364.22749  -1546169.92048  20266250.2724                   20266248.5614
        50.2504         39.5004
 -13524022.43449 -10532207.47347  22032611.8974                   22032610.7404
        47.5004         33.0004
   4897308.43849   3810674.45146  22976075.8504                   22976076.1044
        40.2504         22.0004
 03  1 15 17  9 59.9980000  0  8G28G 7G26G 8G13G27G29G31
  -7787863.76249  -6063087.90548  20032521.6784                   20032518.4164
        50.7504         41.5004
  -9725353.34049  -7563278.34047  22119163.1394                   22119164.1784
        46.5004         31.0004
  -5098081.44149  -3958983.93747  22660760.0454                   22660759.3304
        43.0004         25.7504
  -5101903.08649  -3972946.52048  19572431.1074                   19572429.0494
        50.0004         41.2504
   8516744.44149   6617196.03246  23490531.4284                   23490534.0294
        39.7504         22.0004
  -1985573.59449  -1545553.87047  20266400.8264                   20266398.6274
        50.2504         39.0004
 -13575701.24249 -10572476.67447  22022777.8974                   22022776.6974
        47.0004         32.0004
   4929846.93449   3836029.03546  22982267.4284                   22982267.5184
        40.5004         20.7504
 03  1 15 17 10 14.9980000  0  8G28G 7G26G 8G13G27G29G31
  -7810781.95349  -6080946.23448  20028160.4284                   20028157.1004
        51.2504         41.0004
  -9789161.34049  -7612998.81247  22107021.0144                   22107022.1274
        46.0004         31.2504
  -5155635.55149  -4003831.27947  22649807.7014                   22649807.3894
        43.2504         25.7504
  -5113584.14149  -3982048.65248  19570208.5454                   19570206.6864
        50.7504         41.0004
   8557114.80549   6648653.27946  23498213.6234                   23498216.3544
        40.2504         22.0004
  -1984702.12149  -1544874.82147  20266566.9824                   20266565.0294
        51.0004         39.2504
 -13627281.50449 -10612669.07247  22012962.6234                   22012961.0844
        47.2504         31.5004
   4962458.98849   3861440.94446  22988473.3974                   22988473.1934
        41.0004         20.0004
 03  1 15 17 10 29.9980000  0  8G28G 7G26G 8G13G27G29G31
  -7833629.02749  -6098749.15948  20023812.8504                   20023809.4164
        51.0004         41.0004
  -9852917.43749  -7662678.85447  22094888.5534                   22094889.5144
        47.0004         31.5004
  -5213105.84049  -4048613.34247  22638871.3114                   22638870.3574
        42.7504         27.0004
  -5125181.87949  -3991085.86948  19568001.6234                   19567999.3694
        50.5004         40.7504
   8597502.31349   6680123.95746  23505899.2724                   23505901.5414
        40.7504         21.7504
  -1983751.25449  -1544133.92448  20266747.6394                   20266746.5144
        50.7504         39.5004
 -13678764.34049 -10652785.56747  22003166.0454                   22003164.4514
        46.5004         32.5004
   4995142.66449   3886908.64846  22994692.9594                   22994692.9714
        41.5004         20.2504
 03  1 15 17 10 44.9980000  0  8G28G 7G26G 8G13G27G29G31
  -7856402.88749  -6116495.03948  20019479.1864                   20019476.0454
        50.7504         41.0004
  -9916619.32849  -7712316.63647  22082766.2874                   22082766.9984
        46.0004         31.0004
  -5270489.91049  -4093328.19547  22627951.7254                   22627950.9434
        41.7504         26.2504
  -5136694.10949  -4000056.44148  19565810.5224                   19565808.5064
        50.0004         41.2504
   8637908.75849   6711609.34046  23513588.5064                   23513591.3694
        41.7504         22.5004
  -1982718.83649  -1543329.44948  20266944.2794                   20266942.6544
        51.0004         39.5004
 -13730147.33249 -10692824.26247  21993387.5534                   21993386.3854
        47.5004         32.0004
   5027899.81649   3912433.56846  23000926.8034                   23000926.6624
        42.0004         19.5004
 03  1 15 17 10 59.9980000  0  8G28G 7G26G 8G13G27G29G31
  -7879104.99649  -6134184.99648  20015158.9594                   20015155.8774
        51.0004         41.5004
  -9980267.98049  -7761912.93047  22070654.6004                   22070655.3854
        46.0004         31.0004
  -5327788.58649  -4137976.50446  22617048.0144                   22617048.0964
        42.0004         25.5004
  -5148122.00449  -4008961.31148  19563636.4124                   19563633.8774
        51.0004         41.2504
   8678332.60549   6743108.27146  23521281.7794                   23521283.9634
        42.2504         21.5004
  -1981606.16849  -1542462.46748  20267155.8814                   20267154.4164
        50.5004         39.7504
 -13781431.55149 -10732785.99347  21983628.6784                   21983627.2754
        47.7504         32.5004
   5060728.77349   3938014.48046  23007173.4824                   23007173.5294
        41.5004         19.7504
 03  1 15 17 11 14.9980000  0  9G11G28G 7G26G 8G13G27G29G31
   -117072.57059    -79547.97356  23621303.6474                   23621304.6044
        41.2504         22.5004
  -7901736.80149  -6151820.17148  20010852.3344                   20010849.2214
        50.5004         41.2504
 -10043864.58249  -7811468.66147  22058552.1314                   22058553.7754
        45.5004         31.2504
  -5385003.17249  -4182559.31947  22606160.5844                   22606160.2094
        42.2504         25.7504
  -5159466.86749  -4017801.48148  19561477.3504                   19561474.9984
        50.7504         41.2504
   8718772.08649   6774619.43646  23528976.6624                   23528979.9084
        42.0004         21.7504
  -1980414.54349  -1541533.94047  20267382.4364                   20267381.0454
        50.7504         39.2504
 -13832618.08249 -10772671.61347  21973888.3034                   21973886.6004
        47.7504         33.0004
   5093627.58249   3963649.84146  23013433.6154                   23013434.2324
        40.5004         19.0004
 03  1 15 17 11 29.9980000  0  9G11G28G 7G26G 8G13G27G29G31
   -157864.21149   -111333.64346  23613540.6004                   23613542.0724
        39.0004         22.0004
  -7924300.93449  -6169402.62348  20006558.5144                   20006555.0454
        51.2504         41.2504
 -10107411.23449  -7860985.49047  22046459.6074                   22046460.4864
        46.2504         32.7504
  -5442135.73449  -4227078.16446  22595288.6234                   22595287.7054
        43.0004         22.2504
  -5170730.99649  -4026578.73448  19559333.7954                   19559331.3614
        51.0004         40.7504
   8759224.52349   6806140.58646  23536674.8114                   23536676.9904
        42.7504         21.7504
  -1979146.26249  -1540545.69947  20267623.6474                   20267622.3544
        51.0004         39.0004
 -13883709.05949 -10812482.75747  21964165.9984                   21964164.4594
        48.0004         32.2504
   5126593.59049   3989337.55246  23019707.3504                   23019707.0024
        41.0004         19.2504
 03  1 15 17 11 44.9980000  0  9G11G28G 7G26G 8G13G27G29G31
   -198590.68449   -143068.42646  23605790.9674                   23605791.7214
        39.5004         22.0004
  -7946796.28549  -6186931.47548  20002277.7324                   20002274.5104
        51.0004         41.7504
 -10170906.53149  -7910462.30547  22034377.3654                   22034377.7564
        46.5004         32.5004
  -5499184.78949  -4271531.99246  22584432.1704                   22584431.8224
        43.0004         25.2504
  -5181913.27049  -4035292.20048  19557205.5924                   19557203.5574
        50.7504         41.0004
   8799690.57849   6837672.50046  23544374.1544                   23544377.0764
        41.5004         21.5004
  -1977800.27749  -1539496.91247  20267880.0454                   20267878.2644
        50.5004         39.0004
 -13934703.11749 -10852218.39247  21954462.3034                   21954460.6894
        47.5004         32.0004
   5159627.68449   4015078.36946  23025994.2324                   23025993.3934
        41.5004         20.0004
 03  1 15 17 11 59.9980000  0  9G11G28G 7G26G 8G13G27G29G31
   -239252.62949   -174753.02346  23598052.7954                   23598053.5184
        39.7504         22.2504
  -7969223.96149  -6204407.59848  19998009.8654                   19998006.5254
        51.0004         41.2504
 -10234351.08249  -7959899.56447  22022304.2874                   22022304.9284
        47.5004         32.2504
  -5556150.90649  -4315921.18346  22573592.4124                   22573591.0414
        43.5004         25.2504
  -5193014.43749  -4043942.48448  19555093.2174                   19555091.3544
        51.0004         41.5004
   8840169.01649   6869213.95346  23552078.1314                   23552080.1474
        42.2504         21.2504
  -1976377.42649  -1538388.22547  20268150.9364                   20268149.4244
        50.5004         39.2504
 -13985600.91049 -10891879.01247  21944776.4754                   21944774.9284
        47.2504         32.0004
   5192728.39149   4040871.03746  23032292.8264                   23032292.9634
        41.0004         19.5004
 03  1 15 17 12 14.9980000  0  9G11G28G 7G26G 8G13G27G29G31
   -279849.90649   -206387.22546  23590327.4124                   23590328.3934
        39.5004         22.0004
  -7991584.19149  -6221831.15748  19993755.0374                   19993751.4594
        50.5004         40.7504
 -10297744.76249  -8009297.19047  22010241.0534                   22010241.0684
        47.7504         32.2504
  -5613033.93049  -4360245.59546  22562767.6624                   22562766.6154
        43.2504         24.0004
  -5204034.49649  -4052529.54848  19552996.2094                   19552994.1784
        50.7504         40.5004
   8880659.55949   6900764.96446  23559782.6544                   23559785.3544
        42.0004         21.5004
  -1974877.60249  -1537219.54348  20268436.3814                   20268434.9514
        50.7504         39.7504
 -14036402.10549 -10931464.36247  21935109.7254                   21935107.4794
        48.0004         33.2504
   5225895.22749   4066715.17346  23038604.3574                   23038605.4554
        40.2504         21.0004
 03  1 15 17 12 29.9980000  0  9G11G28G 7G26G 8G13G27G29G31
   -320382.34049   -237970.90746  23582615.1934                   23582616.4004
        40.7504         22.2504
  -8013877.18749  -6239202.33948  19989512.9514                   19989509.6784
        51.0004         41.2504
 -10361087.47749  -8058655.10947  21998187.1864                   21998187.0024
        47.0004         32.5004
  -5669833.86349  -4404505.27947  22551959.1864                   22551958.8114
        43.2504         26.2504
  -5214973.65249  -4061053.58748  19550914.6544                   19550912.5844
        51.2504         40.7504
   8921161.62949   6932324.89846  23567489.8424                   23567492.6544
        41.0004         22.0004
  -1973301.10949  -1535991.14047  20268735.9674                   20268734.5454
        50.2504         39.2504
 -14087106.85549 -10970974.56347  21925460.9904                   21925458.3224
        47.7504         32.5004
   5259127.61749   4092610.46546  23044928.4204                   23044929.6044
        39.5004         21.0004
 03  1 15 17 12 44.9980000  0  9G11G28G 7G26G 8G13G27G29G31
   -360844.94149   -269500.20046  23574914.9824                   23574914.9674
        40.5004         21.5004
  -8036098.43049  -6256517.58648  19985284.2794                   19985281.0884
        51.2504         41.2504
 -10424374.27749  -8107969.46247  21986144.0224                   21986144.2134
        47.7504         32.2504
  -5726545.54749  -4448696.21246  22541167.2954                   22541167.1544
        42.5004         24.5004
  -5225827.20349  -4069510.90548  19548849.3894                   19548847.3934
        50.7504         41.0004
   8961679.52349   6963897.12746  23575200.9124                   23575203.6544
        41.5004         22.5004
  -1971643.19149  -1534699.28647  20269052.1624                   20269050.4364
        50.5004         38.7504
 -14137710.15249 -11010405.71747  21915831.1234                   21915829.8074
        48.0004         33.2504
   5292429.84049   4118560.14246  23051265.2644                   23051266.9984
        39.0004         20.7504
 03  1 15 17 12 59.9980000  0  9G11G28G 7G26G 8G13G27G29G31
   -401240.04349   -300976.85346  23567227.7644                   23567228.2014
        41.0004         21.5004
  -8058250.61749  -6273779.04048  19981068.9824                   19981065.5574
        51.0004         41.0004
 -10487607.73849  -8157242.25347  21974111.3504                   21974111.1004
        48.2504         32.2504
  -5783171.46149  -4492820.26446  22530391.7564                   22530390.7954
        41.5004         25.2504
  -5236597.69149  -4077903.49948  19546799.5614                   19546797.8464
        50.7504         41.0004
   9002210.35249   6995479.44446  23582913.6544                   23582916.1504
        42.0004         22.0004
  -1969906.48449  -1533346.02247  20269382.3264                   20269380.7754
        50.5004         39.0004
 -14188214.28549 -11049759.58847  21906220.7094                   21906219.6824
        47.5004         33.5004
   5325799.00449   4144561.96246  23057614.8974                   23057616.4364
        40.7504         21.0004
 03  1 15 17 13 14.9980000  0  9G11G28G 7G26G 8G13G27G29G31
   -441568.41849   -332401.54946  23559554.0064                   23559554.9244
        39.7504         20.5004
  -8080335.02749  -6290987.67248  19976866.2644                   19976862.9554
        51.0004         41.0004
 -10550788.37949  -8206473.85847  21962087.8894                   21962088.8074
        47.7504         32.2504
  -5839712.32049  -4536878.04546  22519632.0614                   22519630.9474
        41.7504         24.7504
  -5247285.92249  -4086232.00048  19544765.9514                   19544763.8934
        50.7504         41.0004
   9042752.59049   7027070.69246  23590628.1544                   23590630.8034
        41.2504         21.2504
  -1968091.89549  -1531932.08747  20269727.3734                   20269725.7644
        51.0004         39.0004
 -14238620.04349 -11089036.78847  21896628.7014                   21896627.4754
        47.0004         32.5004
   5359233.60549   4170614.80946  23063977.9044                   23063978.4824
        40.7504         20.7504
 03  1 15 17 13 29.9980000  0  9G11G28G 7G26G 8G13G27G29G31
   -481827.57049   -363772.31446  23551891.8974                   23551893.0254
        40.2504         21.5004
  -8102349.42649  -6308141.75548  19972677.1154                   19972673.9364
        51.5004         41.5004
 -10613913.72349  -8255662.39647  21950075.6934                   21950076.0224
        48.2504         32.0004
  -5896165.55149  -4580867.56247  22508889.3424                   22508888.4324
        42.5004         25.7504
  -5257889.61349  -4094494.63448  19542748.1934                   19542745.9164
        51.2504         41.7504
   9083308.38349   7058672.50046  23598345.7564                   23598348.5454
        41.5004         22.7504
  -1966197.17649  -1530455.71247  20270087.8264                   20270086.7524
        50.2504         39.0004
 -14288924.81249 -11128235.32147  21887056.1864                   21887055.1934
        47.0004         33.0004
   5392735.72349   4196720.24146  23070353.4824                   23070353.7564
        40.0004         21.0004
 03  1 15 17 13 44.9980000  0  9G11G28G 7G26G 8G13G27G29G31
   -522019.85549   -395090.96046  23544244.4044                   23544245.6194
        40.5004         21.0004
  -8124296.64149  -6325243.47748  19968500.9824                   19968497.5684
        51.0004         41.5004
 -10676986.27049  -8304809.78847  21938073.3894                   21938073.6624
        47.7504         32.7504
  -5952533.54749  -4624790.69446  22498163.3424                   22498162.3344
        42.5004         25.0004
  -5268411.41449  -4102693.45748  19540745.7564                   19540743.9364
        50.7504         41.5004
   9123874.62949   7090282.42946  23606065.9204                   23606068.4474
        42.2504         22.0004
  -1964224.85249  -1528918.86247  20270463.6544                   20270462.1234
        50.5004         39.0004
 -14339131.12949 -11167357.12747  21877502.5064                   21877501.3464
        47.0004         33.5004
   5426302.00049   4222875.69646  23076740.6864                   23076741.7054
        41.5004         22.2504
 03  1 15 17 13 59.9980000  0  9G11G28G 7G26G 8G13G27G29G31
   -562145.38349   -426357.63846  23536607.9044                   23536610.1584
        39.0004         19.7504
  -8146177.11349  -6342293.20348  19964337.1474                   19964333.8384
        51.0004         41.2504
 -10740006.07849  -8353916.09847  21926081.0924                   21926081.6624
        47.7504         31.7504
  -6008816.38749  -4668647.46746  22487452.3974                   22487452.3184
        42.7504         24.2504
  -5278851.54749  -4110828.63848  19538759.2564                   19538757.1234
        50.5004         41.0004
   9164450.54349   7121899.93446  23613788.4284                   23613790.1624
        42.5004         22.0004
  -1962175.38349  -1527321.89747  20270853.4904                   20270852.0724
        50.2504         38.5004
 -14389239.02749 -11206402.23847  21867966.7094                   21867965.7444
        46.7504         32.2504
   5459931.81649   4249080.64746  23083140.0684                   23083140.8424
        40.7504         21.5004
 03  1 15 17 14 14.9980000  0  9G11G28G 7G26G 8G13G27G29G31
   -602203.25049   -457571.52846  23528985.7174                   23528986.3464
        40.0004         20.7504
  -8167990.45749  -6359290.62748  19960186.0764                   19960182.5844
        50.7504         41.0004
 -10802972.39849  -8402980.72347  21914098.8184                   21914098.6074
        47.5004         31.5004
  -6065013.25849  -4712437.20946  22476759.1074                   22476758.5844
        41.2504         25.0004
  -5289209.58249  -4118899.84248  19536788.2794                   19536785.4364
        51.0004         40.7504
   9205036.46949   7153525.24746  23621511.0684                   23621513.7294
        42.5004         22.0004
  -1960048.14549  -1525664.33847  20271258.4284                   20271257.3424
        50.2504         38.7504
 -14439247.81249 -11245370.11647  21858450.3344                   21858449.0724
        46.5004         33.0004
   5493625.50049   4275335.40946  23089551.8654                   23089553.1354
        39.7504         22.5004
 03  1 15 17 14 29.9970000  0  9G11G28G 7G26G 8G13G27G29G31
   -642189.05549   -488729.20446  23521376.1734                   23521376.9504
        40.7504         21.2504
  -8189733.88749  -6376233.55548  19956048.4074                   19956045.1144
        50.5004         41.2504
 -10865879.32049  -8451999.05747  21902128.3064                   21902127.9934
        47.7504         31.5004
  -6121118.74649  -4756155.77747  22466082.4234                   22466081.4784
        43.0004         26.5004
  -5299483.28149  -4126905.33948  19534833.0014                   19534831.0834
        51.0004         40.7504
   9245630.62949   7185156.96846  23629235.3454                   23629238.3844
        41.5004         21.7504
  -1957841.93449  -1523945.24347  20271678.1574                   20271677.0794
        50.2504         38.5004
 -14489152.40649 -11284256.81947  21848953.6104                   21848952.5834
        46.7504         33.0004
   5527381.57449   4301638.74746  23095975.6494                   23095976.8174
        41.2504         22.5004
 03  1 15 17 14 44.9970000  0  9G11G28G 7G26G 8G13G27G29G31
   -682109.75849   -519836.28446  23513779.6494                   23513780.9384
        39.7504         20.7504
  -8211412.37949  -6393125.89448  19951923.3684                   19951920.3494
        51.5004         41.0004
 -10928736.91849  -8500978.97747  21890166.3844                   21890166.2004
        47.7504         32.0004
  -6177141.99249  -4799810.21546  22455421.4784                   22455420.7314
        43.0004         25.5004
  -5309675.77049  -4134847.55948  19532893.6814                   19532891.5714
        51.0004         41.0004
   9286236.28149   7216797.64946  23636961.9384                   23636965.2634
        40.7504         21.5004
  -1955558.25449  -1522165.78747  20272112.6104                   20272111.2124
        50.5004         38.7504
 -14538961.29749 -11323068.94347  21839475.7354                   21839475.0444
        48.0004         32.7504
   5561202.17649   4327992.40346  23102411.7984                   23102413.0484
        42.2504         23.7504
 03  1 15 17 14 59.9970000  0  9G11G28G 7G26G 8G13G27G29G31
   -721960.27749   -550888.66046  23506197.0244                   23506197.5054
        41.5004         21.2504
  -8233022.47749  -6409964.92448  19947810.9934                   19947807.7984
        51.0004         41.0004
 -10991538.62549  -8549915.31947  21878215.4544                   21878216.2434
        47.0004         32.2504
  -6233076.70749  -4843395.71247  22444777.1104                   22444776.7204
        43.2504         27.0004
  -5319784.18049  -4142724.25648  19530969.9704                   19530968.1034
        51.0004         41.2504
   9326852.47749   7248446.53946  23644691.6884                   23644694.9314
        41.5004         22.2504
  -1953195.00849  -1520324.31647  20272562.2744                   20272560.6854
        50.5004         38.7504
 -14588668.51249 -11361801.84047  21830016.8294                   21830015.9624
        47.2504         33.2504
   5595086.72349   4354395.83946  23108859.9464                   23108861.4744
        42.7504         25.0004
 03  1 15 17 15 14.9970000  0  9G11G28G 7G26G 8G13G27G29G31
   -761742.69949   -581887.96946  23498627.2744                   23498626.9034
        41.7504         22.5004
  -8254566.61749  -6426752.58148  19943711.3294                   19943707.8454
        50.7504         41.2504
 -11054286.48849  -8598809.71647  21866274.9074                   21866275.6964
        47.7504         32.2504
  -6288925.14849  -4886914.00347  22434149.6184                   22434149.7944
        42.7504         26.7504
  -5329810.77749  -4150537.19148  19529061.8454                   19529060.2904
        50.7504         41.0004
   9367476.58649   7280101.57446  23652422.5714                   23652424.8764
        41.5004         21.2504
  -1950754.67649  -1518422.78047  20273026.6814                   20273025.2354
        50.7504         38.2504
 -14638276.27749 -11400457.23747  21820576.7514                   21820575.7204
        47.2504         33.0004
   5629032.97349   4380847.34347  23115319.9784                   23115320.8334
        42.2504         26.5004
 03  1 15 17 15 29.9970000  0  9G11G28G 7G26G 8G13G27G29G31
   -801455.22749   -612832.77446  23491068.9704                   23491070.8024
        41.0004         22.5004
  -8276043.49249  -6443487.79548  19939624.2514                   19939621.0954
        51.2504         41.2504
 -11116978.78149  -8647660.83547  21854345.3064                   21854345.3924
        47.7504         32.7504
  -6344685.31249  -4930363.47047  22423539.0244                   22423538.4544
        43.2504         26.5004
  -5339754.09049  -4158285.25248  19527169.8534                   19527168.2864
        51.0004         41.0004
   9408109.59849   7311763.63646  23660154.7674                   23660157.2514
        41.5004         22.7504
  -1948235.57849  -1516459.88647  20273506.4934                   20273504.8644
        50.5004         39.0004
 -14687782.82049 -11439033.77047  21811155.9854                   21811154.7904
        47.0004         32.5004
   5663041.75049   4407347.60146  23121791.5874                   23121792.6384
        42.0004         25.0004
 03  1 15 17 15 44.9970000  0  9G11G28G 7G26G 8G13G27G29G31
   -841096.50849   -643722.11646  23483525.5714                   23483527.4744
        41.0004         22.5004
  -8297452.01249  -6460169.76548  19935550.3064                   19935547.0794
        50.7504         41.0004
 -11179614.03949  -8696467.47547  21842426.2204                   21842425.9504
        47.7504         31.5004
  -6400355.90649  -4973743.12847  22412945.3214                   22412944.6774
        43.0004         27.2504
  -5349612.77349  -4165967.35748  19525293.9314                   19525291.6854
        51.0004         41.0004
   9448752.39849   7343433.27546  23667888.1344                   23667891.1494
        41.7504         21.2504
  -1945636.55949  -1514434.69547  20274000.7204                   20273999.3964
        50.2504         38.5004
 -14737186.57449 -11477530.19247  21801754.2824                   21801753.7714
        47.0004         33.0004
   5697113.87149   4433897.16146  23128275.1964                   23128277.1924
        41.2504         25.0004
 03  1 15 17 15 59.9970000  0  9G11G28G 7G26G 8G13G27G29G31
   -880668.54349   -674557.46546  23475995.4934                   23475996.3644
        38.7504         22.0004
  -8318794.69149  -6476800.41648  19931488.9784                   19931485.5054
        51.2504         41.0004
 -11242194.53149  -8745231.49047  21830517.0954                   21830517.4974
        47.2504         32.7504
  -6455939.01249  -5017054.62347  22402368.1034                   22402367.8534
        43.5004         27.2504
  -5359389.21949  -4173585.37648  19523433.1964                   19523431.1534
        50.5004         40.2504
   9489402.43049   7375108.56246  23675623.5954                   23675626.8134
        41.2504         20.7504
  -1942960.04749  -1512349.13247  20274510.3454                   20274508.6884
        50.2504         38.0004
 -14786489.98049 -11515948.43747  21792372.6184                   21792371.1964
        47.0004         32.5004
   5731246.44549   4460493.86246  23134770.7904                   23134772.1924
        41.5004         23.5004
 03  1 15 17 16 14.9970000  0  8G11G28G 7G26G 8G27G29G31
   -920169.28949   -705337.32046  23468478.7044                   23468479.7204
        39.5004         22.0004
  -8340069.96549  -6493378.56648  19927440.6184                   19927437.1424
        51.2504         40.7504
 -11304718.16449  -8793951.16547  21818619.0564                   21818619.5484
        47.5004         32.0004
  -6511432.58649  -5060296.33347  22391807.7674                   22391807.7354
        43.0004         27.7504
  -5369081.66849  -4181137.95648  19521589.0564                   19521586.8564
        51.0004         41.0004
  -1940204.18449  -1510201.73747  20275034.5874                   20275033.2634
        50.0004         38.0004
 -14835690.84449 -11554286.76347  21783009.7744                   21783009.0674
        47.7504         33.2504
   5765440.96549   4487138.87946  23141277.2824                   23141279.0484
        41.2504         22.7504
 03  1 15 17 16 29.9970000  0  8G11G28G 7G26G 8G27G29G31
   -959600.85549   -736063.25446  23460975.6424                   23460976.6464
        41.5004         22.2504
  -8361280.10549  -6509905.95848  19923404.2124                   19923401.1814
        51.2504         41.0004
 -11367186.92249  -8842628.08147  21806731.6034                   21806731.7314
        46.7504         32.0004
  -6566838.52749  -5103469.80447  22381264.8994                   22381264.2514
        43.5004         26.7504
  -5378692.08249  -4188626.60848  19519760.4544                   19519758.3604
        51.2504         40.7504
  -1937371.23049  -1507994.26847  20275574.1034                   20275572.1384
        50.0004         38.5004
 -14884791.16849 -11592546.75247  21773666.1344                   21773665.3174
        47.2504         33.5004
   5799694.69549   4513829.99046  23147795.6884                   23147797.0994
        41.2504         22.7504
 03  1 15 17 16 44.9970000  0  8G11G28G 7G26G 8G27G29G31
   -998959.99249   -766732.69946  23453485.2984                   23453486.6344
        40.0004         22.5004
  -8382422.46549  -6526380.52748  19919381.1654                   19919377.7634
        50.5004         41.5004
 -11429597.73849  -8891259.86947  21794856.0244                   21794855.6064
        47.7504         32.5004
  -6622153.84049  -5146572.65947  22370738.5564                   22370738.3964
        42.5004         27.5004
  -5388217.79349  -4196049.24348  19517947.6424                   19517945.5634
        51.0004         40.5004
  -1934458.34449  -1505724.51947  20276128.1034                   20276126.8104
        50.5004         38.5004
 -14933787.84049 -11630725.98447  21764342.5484                   21764341.3724
        47.7504         33.0004
   5834010.21549   4540569.23346  23154325.7594                   23154327.3294
        42.2504         25.5004
 03  1 15 17 16 59.9970000  0  8G11G28G 7G26G 8G27G29G31
  -1038247.03149   -797346.08446  23446009.3534                   23446011.0174
        38.2504         22.0004
  -8403497.89549  -6542802.93448  19915370.4314                   19915367.0954
        50.7504         41.5004
 -11491951.06649  -8939846.85347  21782990.3764                   21782989.9464
        47.0004         32.0004
  -6677378.77349  -5189605.05047  22360230.3844                   22360229.2824
        43.2504         27.7504
  -5397659.23449  -4203406.23048  19516151.1344                   19516148.9664
        51.0004         40.7504
  -1931466.09049  -1503392.91647  20276697.6034                   20276696.0634
        50.2504         38.5004
 -14982681.33249 -11668824.80447  21755038.5324                   21755036.8844
        47.2504         32.5004
   5868386.32849   4567355.71747  23160867.6654                   23160869.8804
        42.5004         26.7504
 03  1 15 17 17 14.9970000  0  8G11G28G 7G26G 8G27G29G31
  -1077460.67249   -827902.15946  23438546.9154                   23438548.7634
        40.2504         22.5004
  -8424505.43749  -6559172.46648  19911372.9464                   19911369.5714
        51.0004         41.0004
 -11554245.55549  -8988387.99947  21771135.8764                   21771136.1734
        47.7504         32.7504
  -6732512.14549  -5232566.12247  22349738.1814                   22349736.7634
        41.5004         26.7504
  -5407015.48049  -4210696.83648  19514370.6264                   19514368.6264
        51.0004         41.0004
  -1928393.46149  -1500998.68147  20277282.1734                   20277280.7904
        50.0004         38.5004
 -15031470.39149 -11706842.25947  21745753.8764                   21745752.2474
        47.0004         32.5004
   5902823.82049   4594190.03047  23167420.8684                   23167422.7984
        43.5004         27.0004
 03  1 15 17 17 29.9970000  0  8G11G28G 7G26G 8G27G29G31
  -1116602.14549   -858402.02346  23431099.1034                   23431099.0524
        39.7504         21.2504
  -8445446.73849  -6575490.35648  19907387.8294                   19907384.9354
        51.0004         41.2504
 -11616482.64149  -9036884.41047  21759292.2044                   21759292.4194
        47.0004         31.2504
  -6787555.26249  -5275456.86647  22339263.7744                   22339262.7314
        42.5004         26.5004
  -5416287.95749  -4217922.14948  19512605.7594                   19512604.0794
        51.2504         41.0004
  -1925242.04349  -1498543.05347  20277881.7044                   20277880.7434
        50.2504         38.5004
 -15080156.34449 -11744779.36547  21736489.6654                   21736487.8884
        47.2504         32.7504
   5937320.61349   4621070.51647  23173985.9234                   23173987.6264
        42.5004         26.5004
 03  1 15 17 17 44.9970000  0  8G11G28G 7G26G 8G27G29G31
  -1155669.57449   -888844.13546  23423664.5174                   23423665.9744
        41.2504         23.0004
  -8466320.34449  -6591755.51548  19903415.4854                   19903412.5484
        51.5004         41.5004
 -11678660.34449  -9085334.52247  21747460.4544                   21747460.1384
        47.0004         32.0004
  -6842506.13349  -5318275.72247  22328806.1264                   22328806.2434
        41.7504         26.0004
  -5425474.98449  -4225080.89248  19510857.5794                   19510855.6614
        50.5004         40.5004
  -1922010.11349  -1496024.70047  20278496.8924                   20278495.5484
        50.0004         38.7504
 -15128737.20749 -11782634.57247  21727245.1104                   21727243.6184
        47.2504         33.0004
   5971877.98849   4647998.24046  23180561.5404                   23180563.8064
        43.0004         25.5004
 03  1 15 17 17 59.9970000  0  8G11G28G 7G26G 8G27G29G31
  -1194663.00049   -919228.67046  23416244.8604                   23416246.0324
        40.0004         21.5004
  -8487126.54349  -6607968.14848  19899456.3844                   19899453.3104
        50.2504         41.5004
 -11740778.58649  -9133738.34847  21735639.8994                   21735639.4154
        47.5004         32.7504
  -6897364.64549  -5361022.58647  22318367.9074                   22318367.2634
        44.0004         27.7504
  -5434576.57449  -4232173.06248  19509126.0634                   19509123.9744
        51.0004         40.5004
  -1918697.88349  -1493443.77547  20279127.1734                   20279125.8254
        50.2504         38.2504
 -15177212.95349 -11820407.88047  21718020.5634                   21718019.1654
        47.2504         34.0004
   6006495.29749   4674972.63646  23187149.1104                   23187151.0134
        42.0004         25.5004
 03  1 15 17 18 14.9970000  0  8G11G28G 7G26G 8G27G29G31
  -1233583.20349   -949556.16446  23408838.4384                   23408838.7824
        41.0004         21.5004
  -8507866.46949  -6624129.12648  19895509.8374                   19895506.4154
        50.5004         41.5004
 -11802838.23449  -9182096.48047  21723830.3454                   21723830.4854
        48.0004         32.5004
  -6952131.60549  -5403698.12447  22307946.1654                   22307944.1304
        42.5004         26.7504
  -5443593.76649  -4239199.45348  19507409.8134                   19507407.8254
        50.5004         41.0004
  -1915306.31649  -1490801.01247  20279772.9704                   20279771.4314
        50.0004         38.2504
 -15225584.34049 -11858099.86347  21708815.7514                   21708813.9854
        47.0004         33.5004
   6041171.29349   4701992.80646  23193747.7124                   23193749.1184
        42.0004         24.5004
 03  1 15 17 18 29.9970000  0  8G11G28G 7G26G 8G27G29G31
  -1272429.21949   -979825.75546  23401446.7354                   23401446.9314
        42.0004         21.7504
  -8528539.62549  -6640238.08848  19891575.9074                   19891572.6064
        50.7504         42.0004
 -11864838.44949  -9230408.33647  21712031.6884                   21712032.0174
        47.5004         32.5004
  -7006806.17249  -5446301.68047  22297541.7204                   22297540.8884
        43.5004         28.5004
  -5452525.95349  -4246159.61948  19505710.1104                   19505708.3294
        50.5004         41.5004
  -1911834.73849  -1488095.91947  20280433.5324                   20280432.3884
        49.5004         38.5004
 -15273850.64149 -11895709.95047  21699630.6964                   21699629.2634
        47.5004         33.5004
   6075906.13749   4729058.77746  23200358.0244                   23200359.2824
        42.0004         23.7504
 03  1 15 17 18 44.9970000  0  8G11G28G 7G26G 8G27G29G31
  -1311202.37549  -1010038.67646  23394067.3994                   23394068.9784
        40.2504         22.0004
  -8549147.83249  -6656296.44448  19887653.8534                   19887651.1384
        50.5004         41.5004
 -11926780.43749  -9278674.79947  21700244.7674                   21700244.6494
        48.0004         32.5004
  -7061389.50849  -5488834.12847  22287154.6574                   22287153.8064
        43.0004         28.0004
  -5461374.62149  -4253054.70848  19504026.4384                   19504024.5754
        51.5004         41.5004
  -1908284.78949  -1485329.75047  20281109.0324                   20281107.6494
        50.2504         38.0004
 -15322013.01249 -11933239.07147  21690466.0714                   21690464.2354
        48.2504         34.5004
   6110697.93049   4756169.12646  23206978.4784                   23206979.8134
        42.0004         22.2504
 03  1 15 17 18 59.9970000  0  8G11G28G 7G26G 8G27G29G31
  -1349903.82449  -1040195.64746  23386703.2594                   23386704.3454
        39.2504         22.0004
  -8569692.77749  -6672305.49548  19883744.5714                   19883741.8644
        51.0004         41.5004
 -11988665.52349  -9326896.92447  21688468.4784                   21688468.4784
        48.0004         31.7504
  -7115882.98849  -5531296.56747  22276784.7744                   22276784.0364
        43.2504         27.2504
  -5470141.20349  -4259885.83148  19502357.9154                   19502356.3104
        51.0004         41.5004
  -1904657.89849  -1482503.62947  20281799.2674                   20281797.6064
        50.0004         37.7504
 -15370072.84449 -11970688.29547  21681320.2434                   21681318.6574
        47.2504         33.2504
   6145544.68049   4783322.29146  23213609.6264                   23213611.2594
        41.5004         24.2504
 03  1 15 17 19 14.9970000  0  8G11G28G 7G26G 8G27G29G31
  -1388532.10949  -1070295.64546  23379352.5634                   23379353.3454
        41.0004         22.2504
  -8590173.17649  -6688264.26848  19879847.2824                   19879844.3294
        50.5004         41.2504
 -12050492.22349  -9375073.56447  21676703.2354                   21676703.4544
        48.0004         32.2504
  -7170285.00849  -5573687.76247  22266432.7124                   22266431.2984
        43.2504         29.2504
  -5478824.47349  -4266652.03648  19500705.8534                   19500704.0874
        51.0004         41.0004
  -1900952.85549  -1479616.62247  20282504.1884                   20282502.8064
        50.0004         38.0004
 -15418028.65249 -12008056.45547  21672194.3604                   21672193.3494
        47.0004         34.0004
   6180447.11749   4810518.88046  23220250.6814                   23220253.3104
        40.5004         24.5004
 03  1 15 17 19 29.9970000  0  8G11G28G 7G26G 8G27G29G31
  -1427087.47749  -1100338.72946  23372015.6884                   23372016.8884
        40.0004         22.0004
  -8610589.77049  -6704173.30348  19875962.0324                   19875959.1494
        50.7504         41.7504
 -12112260.80549  -9423204.91747  21664948.8844                   21664949.0954
        46.5004         32.7504
  -7224595.89849  -5616007.95947  22256097.7594                   22256095.9384
        44.7504         28.5004
  -5487424.78149  -4273353.59148  19499069.1574                   19499067.6494
        50.5004         41.2504
  -1897170.14849  -1476669.07947  20283223.7284                   20283222.5994
        49.5004         38.0004
 -15465880.82049 -12045343.83447  21663088.8994                   21663087.2354
        47.5004         33.2504
   6215404.43449   4837758.28746  23226903.4784                   23226905.8804
        40.0004         24.0004
 03  1 15 17 19 44.9970000  0  8G11G28G 7G26G 8G27G29G31
  -1465568.21149  -1130323.76346  23364693.3684                   23364694.7354
        43.5004         22.5004
  -8630941.32849  -6720031.66948  19872089.1884                   19872086.5404
        50.7504         41.0004
 -12173969.78549  -9471289.82147  21653205.8924                   21653206.3644
        47.0004         33.5004
  -7278813.97749  -5658255.78747  22245780.2204                   22245779.2784
        41.5004         28.0004
  -5495940.61749  -4279989.32948  19497448.7124                   19497447.0214
        50.7504         41.2504
  -1893308.37549  -1473659.94147  20283958.9934                   20283957.6654
        50.0004         38.5004
 -15513627.50449 -12082549.05247  21654002.9234                   21654001.4114
        47.7504         33.5004
   6250417.57049   4865041.07946  23233566.3374                   23233569.4034
        41.0004         23.2504
 03  1 15 17 19 59.9970000  0  8G11G28G 7G26G 8G27G29G31
  -1503973.53949  -1160249.96946  23357385.0404                   23357386.3174
        42.0004         22.7504
  -8651227.51249  -6735839.10448  19868229.2824                   19868226.1734
        50.5004         41.0004
 -12235618.33249  -9519327.63247  21641474.4934                   21641474.9074
        47.0004         33.2504
  -7332938.61749  -5700430.81447  22235480.9704                   22235479.5954
        42.5004         28.0004
  -5504371.69149  -4286559.01948  19495844.4704                   19495842.5054
        50.5004         41.5004
  -1889367.09449  -1470588.84447  20284709.2514                   20284707.7284
        50.2504         38.0004
 -15561268.11349 -12119671.59947  21644937.1264                   21644935.6064
        47.7504         34.0004
   6285486.55949   4892367.44446  23240240.3684                   23240242.7714
        42.5004         23.7504
 03  1 15 17 20 14.9970000  0  8G11G28G 7G26G 8G27G29G31
  -1542304.19149  -1190118.00346  23350090.8134                   23350091.7904
        42.0004         22.0004
  -8671449.35549  -6751596.39048  19864381.2204                   19864378.1064
        51.0004         41.5004
 -12297207.11749  -9567318.87047  21629755.2124                   21629754.9894
        47.5004         33.5004
  -7386970.25849  -5742533.37247  22225198.6574                   22225198.0444
        42.5004         27.7504
  -5512718.72749  -4293063.23048  19494256.1574                   19494253.8564
        50.7504         40.7504
  -1885347.10249  -1467456.42047  20285474.3454                   20285472.8374
        50.2504         38.5004
 -15608803.31649 -12156712.01147  21635891.6034                   21635890.2394
        47.2504         34.0004
   6320610.42249   4919736.56746  23246924.2744                   23246926.2984
        41.5004         22.7504
 03  1 15 17 20 29.9970000  0  8G11G28G 7G26G 8G27G29G31
  -1580561.58249  -1219928.98546  23342811.4854                   23342812.5524
        41.7504         22.2504
  -8691608.55949  -6767304.87048  19860544.9154                   19860541.9504
        50.5004         42.0004
 -12358737.48849  -9615264.60647  21618046.1034                   21618046.1854
        47.7504         33.5004
  -7440910.42249  -5784564.64347  22214934.0634                   22214933.4544
        43.0004         28.7504
  -5520983.42249  -4299503.25248  19492683.2124                   19492681.3804
        51.0004         40.0004
  -1881250.18049  -1464264.03147  20286253.4544                   20286252.3374
        50.2504         38.5004
 -15656234.39849 -12193671.29247  21626865.6734                   21626864.6224
        47.5004         34.2504
   6355786.93049   4947146.67346  23253617.9384                   23253619.7394
        43.0004         22.5004
 03  1 15 17 20 44.9970000  0  8G11G28G 7G26G 8G27G29G31
  -1618743.80549  -1249681.35746  23335544.9934                   23335545.4704
        40.7504         22.5004
  -8711703.74249  -6782963.47548  19856721.2904                   19856717.8454
        51.0004         41.2504
 -12420207.78149  -9663163.52547  21606348.3764                   21606348.5754
        47.5004         33.0004
  -7494757.16049  -5826523.14047  22204687.0014                   22204686.4194
        42.5004         28.7504
  -5529163.97349  -4305877.73248  19491126.4784                   19491124.5444
        51.0004         40.5004
  -1877074.55549  -1461010.31547  20287048.2514                   20287047.0604
        49.7504         38.2504
 -15703559.77049 -12230548.19947  21617860.0324                   21617858.9354
        47.5004         34.5004
   6391017.08249   4974598.57046  23260322.2284                   23260323.7634
        41.5004         22.0004
 03  1 15 17 20 59.9970000  0  8G11G28G 7G26G 8G27G29G31
  -1656851.06649  -1279375.31546  23328293.5794                   23328293.8174
        41.7504         22.0004
  -8731735.36349  -6798572.54648  19852909.1494                   19852905.8684
        50.5004         41.2504
 -12481618.02749  -9711015.63747  21594662.2124                   21594662.5094
        47.5004         33.7504
  -7548510.73449  -5868409.02747  22194458.4314                   22194457.5244
        43.2504         28.5004
  -5537260.93049  -4312187.08348  19489585.6184                   19489583.5714
        51.0004         41.0004
  -1872820.77749  -1457695.71547  20287857.7744                   20287856.5094
        49.2504         38.0004
 -15750779.58249 -12267342.84847  21608874.4384                   21608873.2944
        47.7504         34.0004
   6426300.39849   5002091.98746  23267036.8134                   23267038.6464
        42.5004         22.0004
 03  1 15 17 21 14.9970000  0  7G11G28G 7G26G 8G27G29
  -1694882.79749  -1309010.50946  23321055.7284                   23321056.9894
        41.5004         21.7504
  -8751703.15649  -6814131.87548  19849109.3064                   19849106.3564
        50.7504         41.0004
 -12542967.64549  -9758820.50347  21582988.2434                   21582988.1534
        46.7504         33.5004
  -7602170.28549  -5910221.65747  22184247.3214                   22184246.3254
        42.2504         27.2504
  -5545273.62549  -4318430.75848  19488061.1494                   19488059.2164
        51.0004         41.0004
  -1868488.28549  -1454319.77447  20288682.0714                   20288680.9784
        50.2504         38.0004
 -15797892.93749 -12304054.55547  21599909.3764                   21599907.5914
        48.0004         33.0004
 03  1 15 17 21 29.9970000  0  7G11G28G 7G26G 8G27G29
  -1732837.61349  -1338585.67846  23313833.0324                   23313834.4784
        39.7504         21.2504
  -8771606.49249  -6829640.98748  19845321.8064                   19845318.7514
        51.0004         41.5004
 -12604255.55149  -9806577.30947  21571325.7044                   21571324.9464
        47.5004         33.2504
  -7655734.89549  -5951960.30747  22174054.5094                   22174053.1184
        41.5004         26.7504
  -5553201.34049  -4324608.20648  19486552.6104                   19486550.3994
        51.0004         41.0004
  -1864076.39149  -1450881.96247  20289521.8534                   20289520.3104
        49.7504         38.0004
 -15844898.94949 -12340682.60247  21590963.7594                   21590962.7044
        47.2504         33.2504
 03  1 15 17 21 44.9970000  0  7G11G28G 7G26G 8G27G29
  -1770714.87549  -1368100.44146  23306626.1654                   23306626.6064
        39.0004         22.0004
  -8791445.21149  -6845099.73948  19841546.7204                   19841543.6344
        50.5004         42.0004
 -12665481.21149  -9854285.59847  21559674.4314                   21559675.0214
        47.0004         33.5004
  -7709203.86349  -5993624.41347  22163878.9074                   22163877.8964
        42.5004         27.2504
  -5561043.60249  -4330719.07948  19485060.3844                   19485058.3104
        51.2504         41.0004
  -1859584.46549  -1447381.80747  20290376.3134                   20290374.7434
        50.2504         37.7504
 -15891797.16049 -12377226.63947  21582039.7124                   21582038.3604
        46.7504         34.0004
 03  1 15 17 21 59.9970000  0  7G11G28G 7G26G 8G27G29
  -1808514.03149  -1397554.31446  23299431.9234                   23299433.0634
        38.2504         22.0004
  -8811218.92649  -6860507.84048  19837783.9154                   19837780.8994
        51.5004         41.5004
 -12726643.86349  -9901944.78447  21548035.2904                   21548036.1304
        47.0004         33.0004
  -7762576.48449  -6035213.44947  22153723.1034                   22153721.3724
        42.5004         27.0004
  -5568799.85549  -4336762.94348  19483584.3064                   19483582.0174
        51.2504         40.5004
  -1855012.35549  -1443819.14847  20291246.5954                   20291245.0244
        49.5004         37.5004
 -15938586.63749 -12413685.98447  21573135.9854                   21573134.3334
        47.0004         34.0004
 03  1 15 17 22 14.9970000  0  7G11G28G 7G26G 8G27G29
  -1846234.84449  -1426947.17046  23292254.1184                   23292255.3134
        40.2504         21.0004
  -8830927.84049  -6875865.45648  19834033.5714                   19834030.5014
        51.0004         41.7504
 -12787743.22749  -9949554.65447  21536408.7204                   21536408.6384
        46.5004         33.7504
  -7815852.60949  -6076727.29747  22143584.9234                   22143583.6224
        43.0004         28.0004
  -5576470.25849  -4342739.89248  19482124.9074                   19482122.5634
        51.7504         40.7504
  -1850359.93049  -1440193.92347  20292131.7904                   20292130.7394
        49.2504         38.0004
 -15985267.40649 -12450060.60947  21564252.5794                   21564251.6064
        47.5004         34.0004
 03  1 15 17 22 29.9970000  0  7G11G28G 7G26G 8G27G29
  -1883876.42649  -1456278.28546  23285092.0634                   23285092.4034
        41.7504         20.2504
  -8850571.48449  -6891172.20648  19830295.5714                   19830292.3844
        51.0004         41.5004
 -12848778.65649  -9997114.70847  21524794.2594                   21524793.9704
        46.0004         33.2504
  -7869031.26249  -6118165.22247  22133465.4544                   22133463.9194
        42.5004         27.5004
  -5584053.78549  -4348649.15948  19480681.6734                   19480679.6304
        51.5004         40.5004
  -1845626.60549  -1436505.65447  20293032.5094                   20293031.6884
        50.0004         38.5004
 -16031838.43749 -12486349.73747  21555390.4314                   21555389.2204
        46.2504         33.7504
 03  1 15 17 22 44.9970000  0  7G11G28G 7G26G 8G27G29
  -1921438.45749  -1485547.32546  23277943.6104                   23277944.5524
        40.0004         20.2504
  -8870149.79749  -6906428.05748  19826569.5174                   19826566.8964
        51.0004         41.5004
 -12909749.60549 -10044624.50847  21513191.9234                   21513191.5094
        46.5004         33.2504
  -7922112.07049  -6159526.85447  22123364.4074                   22123364.0484
        43.0004         29.2504
  -5591550.67249  -4354490.90948  19479255.0244                   19479253.2244
        50.5004         40.7504
  -1840812.25449  -1432754.24447  20293948.9784                   20293948.0364
        50.5004         38.5004
 -16078299.39849 -12522553.07547  21546548.8764                   21546548.1304
        45.5004         34.5004
 03  1 15 17 22 59.9970000  0  7G11G28G 7G26G 8G27G29
  -1958919.86749  -1514753.64646  23270811.2124                   23270813.1264
        40.2504         20.5004
  -8889662.13749  -6921632.48448  19822856.7594                   19822853.5244
        50.5004         41.2504
 -12970655.37549 -10092083.51447  21501601.2984                   21501601.6814
        45.2504         34.0004
  -7975094.12149  -6200811.56947  22113282.3374                   22113281.7204
        42.0004         28.7504
  -5598960.07849  -4360264.48348  19477845.0324                   19477843.1614
        50.7504         41.2504
  -1835916.13349  -1428939.10647  20294880.8214                   20294879.7594
        50.0004         38.5004
 -16124649.61349 -12558670.10347  21537729.3374                   21537727.6774
        45.7504         34.0004
 03  1 15 17 23 14.9970000  0  7G11G28G 7G26G 8G27G29
  -1996320.57849  -1543897.07146  23263694.8294                   23263695.5794
        39.0004         19.7504
  -8909108.77749  -6936785.71548  19819156.4854                   19819152.9784
        51.0004         41.0004
 -13031495.57849 -10139491.42147  21490023.8294                   21490024.5564
        45.0004         33.5004
  -8027977.08249  -6242019.05947  22103219.0244                   22103217.4504
        42.2504         28.2504
  -5606281.82049  -4365969.75148  19476451.7044                   19476449.8134
        50.5004         41.2504
  -1830938.31649  -1425060.33647  20295828.0014                   20295826.6144
        50.2504         38.0004
 -16170888.65649 -12594700.53547  21528930.0634                   21528928.6264
        46.7504         34.0004
 03  1 15 17 23 29.9970000  0  7G11G28G 7G26G 8G27G29
  -2033642.84849  -1572979.28246  23256591.9154                   23256593.5014
        39.7504         20.0004
  -8928492.56249  -6951889.98248  19815467.5014                   19815464.2904
        50.7504         41.2504
 -13092272.73449 -10186850.22047  21478458.9384                   21478458.4034
        47.5004         33.2504
  -8080763.52349  -6283151.34047  22093174.2904                   22093172.3414
        44.2504         29.5004
  -5613518.53149  -4371608.76948  19475074.8064                   19475072.6654
        51.0004         41.0004
  -1825881.44149  -1421119.95847  20296790.7514                   20296788.8564
        50.0004         38.2504
 -16217019.02349 -12630646.26747  21520151.5634                   21520150.1184
        47.0004         33.7504
 03  1 15 17 23 44.9970000  0  7G11G28G 7G26G 8G27G29
  -2070842.06249  -1601965.65946  23249512.7594                   23249514.0714
        40.0004         21.2504
  -8947769.28149  -6966910.82048  19811799.4464                   19811796.2354
        50.7504         41.5004
 -13152942.30549 -10234125.16147  21466914.1654                   21466913.3644
        47.5004         33.7504
  -8133408.81649  -6324173.65947  22083156.2594                   22083154.3924
        43.2504         27.5004
  -5620625.98449  -4377147.07548  19473722.1424                   19473720.3994
        51.0004         41.7504
  -1820701.24249  -1417083.48447  20297776.2674                   20297774.9234
        50.5004         38.2504
 -16262996.31649 -12666472.73147  21511402.7204                   21511400.8994
        47.0004         34.0004
 03  1 15 17 23 59.9970000  0  7G11G28G 7G26G 8G27G29
  -2107982.21149  -1630906.01346  23242445.4704                   23242446.8604
        40.5004         21.5004
  -8967003.23449  -6981898.32148  19808139.1264                   19808136.1104
        50.7504         41.7504
 -13213568.12549 -10281366.02147  21455376.8844                   21455376.5714
        48.0004         33.7504
  -8185976.87949  -6365135.77447  22073152.7514                   22073151.8534
        43.2504         28.2504
  -5627668.31249  -4382634.60648  19472382.0094                   19472380.4354
        50.5004         41.5004
  -1815461.84849  -1413000.87247  20298773.2204                   20298771.8334
        50.0004         38.2504
 -16308884.21549 -12702229.54247  21502670.1814                   21502668.8294
        47.5004         34.2504
 03  1 15 17 24 14.9970000  0  7G11G28G 7G26G 8G27G29
  -2145072.89849  -1659807.85946  23235387.5014                   23235388.8924
        41.2504         22.7504
  -8986204.43049  -6996860.30848  19804485.4314                   19804482.0014
        50.5004         41.7504
 -13274159.88349 -10328580.35047  21443846.5174                   21443846.3134
        47.2504         34.2504
  -8238477.21549  -6406045.10647  22063161.8134                   22063161.1424
        43.7504         28.5004
  -5634655.31249  -4388079.03148  19471052.4784                   19471050.6924
        50.7504         41.0004
  -1810173.09449  -1408879.78947  20299779.4464                   20299778.5214
        50.7504         38.5004
 -16354692.55149 -12737924.33147  21493953.1034                   21493952.1814
        46.7504         34.0004
 03  1 15 17 24 29.9970000  0  7G11G28G 7G26G 8G27G29
  -2182114.10949  -1688671.08146  23228339.6884                   23228340.1304
        39.5004         22.7504
  -9005373.33249  -7011797.13548  19800837.5874                   19800834.6884
        51.0004         41.5004
 -13334717.71149 -10375768.21747  21432322.6574                   21432322.2474
        47.5004         33.7504
  -8290910.00449  -6446901.81947  22053184.1034                   22053183.7744
        43.2504         27.5004
  -5641587.03549  -4393480.39648  19469733.4464                   19469732.1494
        50.2504         41.0004
  -1804835.27749  -1404720.50947  20300795.0874                   20300793.7944
        50.5004         38.5004
 -16400421.34049 -12773557.13747  21485251.4384                   21485250.2944
        47.0004         34.5004
 03  1 15 17 24 44.9970000  0  7G11G28G 7G26G 8G27G29
  -2219098.16049  -1717489.73946  23221300.7674                   23221302.4114
        40.5004         23.7504
  -9024502.44149  -7026702.94348  19797197.2434                   19797194.4034
        51.0004         41.7504
 -13395233.74249 -10422923.51747  21420807.1494                   21420806.9034
        48.7504         34.0004
  -8343267.30949  -6487699.70147  22043221.5484                   22043220.5404
        42.5004         29.5004
  -5648456.11749  -4398832.94948  19468426.5094                   19468424.7744
        51.0004         41.7504
  -1799440.87949  -1400517.11147  20301821.8374                   20301820.6694
        49.7504         38.5004
 -16446062.71549 -12809121.85647  21476565.9624                   21476565.0484
        48.0004         34.0004
 03  1 15 17 24 59.9970000  0  7G11G28G 7G26G 8G27G29
  -2255959.39149  -1746212.81546  23214285.6814                   23214287.8564
        40.2504         22.0004
  -9043526.69949  -7041527.05148  19793577.3604                   19793574.1064
        51.0004         41.2504
 -13455642.43049 -10469995.18247  21409311.4544                   21409310.9624
        48.2504         33.2504
  -8395483.64149  -6528387.72847  22033285.2904                   22033284.2084
        43.7504         29.0004
  -5655197.09449  -4404085.67648  19467143.7284                   19467141.7474
        50.7504         41.7504
  -1793924.50849  -1396218.68447  20302871.8064                   20302870.4074
        50.0004         38.2504
 -16491551.23049 -12844567.44847  21467909.7904                   21467908.8684
        47.5004         34.0004
 03  1 15 17 25 14.9970000  0  7G11G28G 7G26G 8G27G29
  -2292746.69949  -1774878.20346  23207286.3214                   23207287.2634
        40.0004         22.7504
  -9062495.28549  -7056307.78048  19789967.8684                   19789964.8294
        51.0004         42.0004
 -13515992.78549 -10517021.41147  21397827.4544                   21397827.0834
        48.5004         32.7504
  -8447607.75849  -6569003.91747  22023365.8064                   22023365.2554
        42.7504         29.2504
  -5661859.10949  -4409276.87548  19465875.8994                   19465873.9194
        50.2504         41.5004
  -1788335.35949  -1391863.55347  20303935.0564                   20303933.8804
        50.0004         38.7504
 -16536935.83249 -12879932.07547  21459273.5874                   21459272.2434
        48.5004         34.2504
 03  1 15 17 25 29.9970000  0  7G11G28G 7G26G 8G27G29
  -2329465.10549  -1803489.92346  23200298.6574                   23200300.3844
        41.5004         22.7504
  -9081413.54349  -7071049.28448  19786367.7284                   19786364.6144
        50.7504         41.5004
 -13576289.64149 -10564005.92647  21386353.0244                   21386353.2044
        49.0004         33.2504
  -8499644.69549  -6609552.16947  22013463.5794                   22013462.8644
        43.0004         29.0004
  -5668447.24249  -4414410.49748  19464622.2434                   19464620.0564
        51.0004         41.0004
  -1782678.55949  -1387455.69547  20305011.8684                   20305010.1494
        49.7504         38.7504
 -16582221.40649 -12915219.52347  21450656.2124                   21450654.8134
        47.7504         34.5004
 03  1 15 17 25 44.9970000  0  7G11G28G 7G26G 8G27G29
  -2366108.16449  -1832042.88846  23193325.7124                   23193326.4544
        42.5004         22.5004
  -9100275.52049  -7085746.93748  19782778.5874                   19782775.5954
        51.0004         41.5004
 -13636526.76249 -10610943.89547  21374889.7674                   21374890.2944
        48.7504         34.0004
  -8551588.11349  -6650027.58247  22003579.1034                   22003578.5014
        45.0004         31.0004
  -5674955.33649  -4419481.76148  19463383.7824                   19463382.0564
        50.7504         41.7504
  -1776948.05549  -1382990.40747  20306102.2904                   20306101.0284
        50.7504         38.5004
 -16627401.70349 -12950424.93547  21442058.5484                   21442057.2124
        49.0004         34.2504
 03  1 15 17 25 59.9970000  0  7G11G28G 7G26G 8G27G29
  -2402671.26649  -1860533.55746  23186367.3064                   23186368.4814
        39.7504         21.0004
  -9119077.00049  -7100397.44648  19779200.2984                   19779197.4074
        50.5004         41.0004
 -13696699.59449 -10657831.76247  21363439.3604                   21363439.5444
        47.5004         33.7504
  -8603433.40649  -6690426.47747  21993713.3684                   21993713.0404
        43.2504         28.7504
  -5681379.14549  -4424487.33748  19462161.3994                   19462160.1184
        50.7504         41.5004
  -1771139.65649  -1378464.41947  20307207.3534                   20307206.9194
        50.2504         39.0004
 -16672472.30949 -12985544.90447  21433482.3294                   21433480.8134
        48.0004         34.5004
 03  1 15 17 26 14.9970000  0  7G11G28G 7G26G 8G27G29
  -2439153.46949  -1888961.24746  23179425.3924                   23179426.9504
        40.2504         22.7504
  -9137817.42649  -7115000.38748  19775634.4704                   19775631.4154
        50.7504         41.0004
 -13756807.13349 -10704668.76547  21352002.0714                   21352001.2434
        48.7504         33.7504
  -8655179.72349  -6730748.26547  21983866.4854                   21983865.3174
        44.5004         30.5004
  -5687717.88749  -4429426.63948  19460954.8534                   19460953.4784
        51.0004         41.5004
  -1765252.33649  -1373876.95747  20308328.2124                   20308327.3104
        50.5004         38.5004
 -16717432.02749 -13020578.45647  21424926.4464                   21424924.8764
        48.2504         34.5004
 03  1 15 17 26 29.9970000  0  7G11G28G 7G26G 8G27G29
  -2475554.78549  -1917325.85546  23172498.6654                   23172500.0994
        41.5004         22.7504
  -9156497.13749  -7129556.01548  19772079.7514                   19772076.9894
        50.0004         41.5004
 -13816849.40649 -10751454.91547  21340576.0014                   21340575.2674
        49.0004         34.0004
  -8706826.80949  -6770992.74647  21974038.3684                   21974037.1494
        43.2504         30.2504
  -5693971.64149  -4434299.71148  19459765.0954                   19459763.5324
        49.7504         41.0004
  -1759286.53949  -1369228.31047  20309463.0794                   20309462.6574
        49.7504         38.7504
 -16762281.02349 -13055525.70747  21416391.8764                   21416390.3494
        47.7504         35.0004
 03  1 15 17 26 44.9970000  0  7G11G28G 7G26G 8G27G29
  -2511875.53549  -1945627.70146  23165586.8134                   23165588.5954
        41.0004         22.7504
  -9175116.82849  -7144064.87348  19768536.3294                   19768533.5404
        50.5004         41.5004
 -13876826.81649 -10798190.52647  21329162.4854                   21329162.2204
        48.0004         33.7504
  -8758375.21949  -6811160.33347  21964228.8924                   21964227.6854
        42.5004         29.0004
  -5700140.98849  -4439107.01448  19458590.9234                   19458589.3764
        50.2504         41.2504
  -1753242.85549  -1364518.99647  20310612.7744                   20310612.7474
        50.0004         38.0004
 -16807019.60949 -13090386.95947  21407878.2984                   21407877.2204
        47.7504         35.0004
 03  1 15 17 26 59.9970000  0  7G11G28G 7G26G 8G27G29
  -2548113.42649  -1973864.97646  23158690.5874                   23158692.7864
        39.5004         22.2504
  -9193674.67249  -7158525.53248  19765005.0404                   19765001.9934
        50.0004         41.7504
 -13936737.03549 -10844873.76047  21317761.9464                   21317761.8134
        48.2504         34.7504
  -8809822.41449  -6851249.04947  21954438.9234                   21954438.5604
        44.0004         30.5004
  -5706223.85949  -4443846.92448  19457433.9154                   19457432.0484
        50.5004         41.0004
  -1747119.19949  -1359747.36947  20311778.5484                   20311777.6304
        49.5004         38.0004
 -16851645.69549 -13125160.52447  21399386.3454                   21399384.8534
        47.5004         34.5004
 03  1 15 17 27 14.9970000  0  7G11G28G 7G26G 8G27G29
  -2584266.92249  -2002036.49946  23151810.7984                   23151812.1854
        40.5004         22.0004
  -9212169.46949  -7172937.06848  19761485.6574                   19761482.7434
        50.7504         41.5004
 -13996578.46549 -10891503.40647  21306375.1964                   21306374.5874
        49.0004         34.0004
  -8861167.09449  -6891257.88747  21944667.9314                   21944667.6734
        44.2504         29.2504
  -5712218.85549  -4448518.37648  19456292.6424                   19456291.2284
        51.0004         41.2504
  -1740914.22349  -1354912.35247  20312959.2984                   20312958.5674
        49.0004         37.7504
 -16896157.40249 -13159844.98047  21390916.1424                   21390914.6814
        47.7504         34.5004
 03  1 15 17 27 29.9970000  0  7G11G28G 7G26G 8G27G29
  -2620334.27049  -2030140.87446  23144947.9234                   23144949.2434
        40.7504         22.0004
  -9230599.87949  -7187298.43548  19757978.6964                   19757975.3764
        50.2504         42.0004
 -14056349.53549 -10938078.23047  21295000.0014                   21295000.1854
        48.2504         33.5004
  -8912407.38749  -6931185.35947  21934917.5954                   21934916.5994
        44.2504         28.7504
  -5718124.51649  -4453120.21348  19455169.0174                   19455167.0134
        51.0004         41.0004
  -1734626.53549  -1350012.89847  20314155.8994                   20314155.0484
        49.0004         37.5004
 -16940553.28949 -13194439.17547  21382467.8604                   21382466.3494
        47.5004         34.7504
 03  1 15 17 27 44.9970000  0  7G11G28G 7G26G 8G27G29
  -2656319.07449  -2058180.94246  23138099.9234                   23138100.8134
        43.0004         22.7504
  -9248969.90649  -7201612.74348  19754482.7044                   19754479.7434
        50.0004         41.5004
 -14116053.85549 -10984601.02147  21283638.6734                   21283638.7824
        48.5004         34.0004
  -8963546.91449  -6971034.33647  21925185.4074                   21925185.3644
        42.5004         29.7504
  -5723944.59849  -4457655.36648  19454061.8844                   19454059.6734
        50.5004         41.2504
  -1728259.93049  -1345051.96347  20315367.7674                   20315366.5794
        50.5004         38.0004
 -16984836.93749 -13228945.90747  21374040.8924                   21374039.1494
        47.0004         34.2504
 03  1 15 17 27 59.9970000  0  7G11G28G 7G26G 8G27G29
  -2692216.72749  -2086153.10446  23131269.4314                   23131270.2594
        43.5004         23.5004
  -9267275.32449  -7215876.70148  19750999.2824                   19750996.5794
        50.5004         41.5004
 -14175686.87949 -11031068.27047  21272291.6104                   21272290.9154
        48.0004         34.0004
  -9014581.14549  -7010801.25547  21915474.1034                   21915474.1104
        43.0004         29.2504
  -5729674.89549  -4462120.54748  19452971.1264                   19452969.4354
        50.2504         41.2504
  -1721810.14149  -1340026.19547  20316594.7434                   20316593.8564
        50.7504         38.2504
 -17029003.96549 -13263361.79747  21365635.9704                   21365634.5214
        46.2504         34.0004
 03  1 15 17 28 14.9970000  0  7G11G28G 7G26G 8G27G29
  -2728027.56249  -2114057.57046  23124454.1344                   23124456.3064
        42.5004         25.0004
  -9285516.75449  -7230090.80548  19747528.1424                   19747524.9664
        50.7504         41.5004
 -14235248.75049 -11077480.09047  21260957.2284                   21260956.9664
        47.7504         34.0004
  -9065510.27749  -7050486.29447  21905782.9154                   21905782.4194
        42.7504         29.2504
  -5735315.83249  -4466516.10848  19451897.7044                   19451895.9784
        50.5004         41.2504
  -1715277.58249  -1334935.94547  20317838.0094                   20317837.6304
        49.5004         37.5004
 -17073054.53549 -13297686.91747  21357253.7744                   21357252.2314
        45.5004         34.0004
 03  1 15 17 28 29.9970000  0  7G11G28G 7G26G 8G27G29
  -2763753.78149  -2141896.14146  23117656.1574                   23117657.2714
        42.7504         23.5004
  -9303696.84849  -7244257.11748  19744068.3064                   19744066.0714
        50.0004         41.0004
 -14294741.94549 -11123838.37347  21249635.3764                   21249635.7744
        46.5004         34.2504
  -9116336.54349  -7090091.17747  21896110.8454                   21896110.1924
        43.0004         31.0004
  -5740869.71549  -4470843.82748  19450840.6734                   19450838.8134
        50.5004         41.2504
  -1708664.82849  -1329783.19447  20319096.3454                   20319095.6614
        48.7504         37.0004
 -17116990.80149 -13331922.97847  21348893.0244                   21348891.4234
        45.5004         34.0004
 03  1 15 17 28 44.9970000  0  7G11G28G 7G26G 8G27G29
  -2799391.59049  -2169665.84446  23110874.6184                   23110874.8844
        43.0004         23.0004
  -9321812.13349  -7258372.92148  19740621.2284                   19740618.3994
        50.0004         41.5004
 -14354162.52049 -11170140.08047  21238328.0874                   21238328.3604
        47.2504         34.5004
  -9167056.18749  -7129612.93647  21886458.9704                   21886458.6064
        44.0004         29.7504
  -5746332.87549  -4475100.84648  19449801.0874                   19449799.5284
        50.7504         41.5004
  -1701968.19149  -1324565.07447  20320370.6494                   20320369.6104
        50.5004         37.0004
 -17160809.21149 -13366067.19847  21340554.1814                   21340553.2244
        47.2504         34.0004
 03  1 15 17 28 59.9970000  0  7G11G28G 7G26G 8G27G29
  -2834942.62149  -2197367.92346  23104108.8374                   23104109.8064
        41.2504         23.0004
  -9339864.84849  -7272439.97748  19737185.7984                   19737183.0754
        50.7504         41.7504
 -14413512.33249 -11216386.65547  21227034.4314                   21227034.5174
        48.5004         34.0004
  -9217670.86749  -7169052.95447  21876827.8534                   21876826.8134
        44.2504         29.7504
  -5751707.46149  -4479288.85448  19448778.4464                   19448776.4114
        50.7504         41.0004
  -1695189.76649  -1319283.23047  20321660.5874                   20321659.1574
        50.5004         37.5004
 -17204511.46149 -13400120.89547  21332238.3994                   21332237.0134
        48.0004         34.2504
 03  1 15 17 29 14.9970000  0  7G11G28G 7G26G 8G27G29
  -2870408.78149  -2225003.88346  23097359.7904                   23097360.4854
        39.2504         24.0004
  -9357857.11749  -7286459.93548  19733762.1494                   19733759.3134
        50.5004         41.2504
 -14472793.21149 -11262579.50047  21215753.4704                   21215753.5524
        46.2504         34.5004
  -9268182.59849  -7208412.76347  21867215.8134                   21867214.7514
        45.2504         30.7504
  -5756995.46149  -4483409.39848  19447772.1814                   19447770.1264
        50.7504         41.2504
  -1688331.70749  -1313939.32847  20322965.6104                   20322965.1424
        50.0004         37.0004
 -17248099.33249 -13434085.47747  21323943.5634                   21323942.8724
        44.7504         34.5004
 03  1 15 17 29 29.9970000  0  7G11G28G 7G26G 8G27G29
  -2905787.22349  -2252571.45846  23090628.0954                   23090628.4504
        40.7504         22.5004
  -9375786.46549  -7300430.85648  19730350.3064                   19730347.4814
        50.5004         41.5004
 -14532002.25449 -11308716.38647  21204486.4464                   21204486.3724
        46.0004         34.5004
  -9318588.24649  -7247689.87047  21857623.6734                   21857623.5604
        44.0004         30.0004
  -5762194.23849  -4487460.39948  19446782.8604                   19446781.1064
        49.7504         40.5004
  -1681391.33249  -1308531.27447  20324286.5174                   20324286.0484
        49.5004         37.7504
 -17291570.13349 -13467958.82047  21315671.2594                   21315670.6384
        43.7504         34.5004
 03  1 15 17 29 44.9970000  0  7G11G28G 7G26G 8G27G29
  -2941075.58649  -2280068.87646  23083912.5794                   23083913.1614
        41.7504         23.2504
  -9393650.84849  -7314351.15748  19726950.6424                   19726947.9544
        50.7504         41.7504
 -14591137.21949 -11354795.54647  21193233.3454                   21193232.7354
        47.0004         34.5004
  -9368885.73449  -7286882.71147  21848052.3534                   21848051.7744
        43.5004         29.0004
  -5767301.59449  -4491440.18348  19445810.9234                   19445809.3174
        50.0004         41.0004
  -1674366.59049  -1303057.51047  20325623.0094                   20325623.0994
        49.5004         37.7504
 -17334921.52049 -13501739.12647  21307421.8454                   21307421.0994
        46.2504         33.7504
 03  1 15 17 29 59.9970000  0  7G11G28G 7G26G 8G27G29
  -2976276.43049  -2307498.10046  23077214.0324                   23077214.6614
        42.0004         25.2504
  -9411453.29749  -7328223.20048  19723563.2984                   19723560.4814
        49.2504         41.2504
 -14650200.64849 -11400818.97047  21181994.3534                   21181993.6964
        48.5004         34.5004
  -9419077.41449  -7325993.10547  21838501.4784                   21838500.3684
        45.0004         28.2504
  -5772320.27749  -4495350.86148  19444855.8534                   19444854.6344
        50.0004         41.0004
  -1667260.16849  -1297520.08747  20326975.9934                   20326975.2984
        50.0004         37.2504
 -17378156.03949 -13535428.37147  21299194.4074                   21299193.2944
        47.5004         34.7504
 03  1 15 17 30 14.9970000  0  7G11G28G 7G26G 8G27G29
  -3011386.53149  -2334856.62846  23070533.4624                   23070533.6184
        42.7504         24.0004
  -9429191.01649  -7342044.80548  19720188.0484                   19720184.6814
        50.0004         41.0004
 -14709189.33249 -11446784.15147  21170769.0014                   21170768.3924
        48.0004         35.2504
  -9469160.08249  -7365018.56047  21828970.8294                   21828970.0634
        44.5004         30.0004
  -5777247.26249  -4499190.08148  19443918.4854                   19443916.8374
        50.2504         41.0004
  -1660069.12949  -1291916.70847  20328344.1424                   20328343.0604
        49.5004         37.5004
 -17421270.49249 -13569024.04647  21290990.2674                   21290989.0524
        47.2504         34.5004
 03  1 15 17 30 29.9970000  0  7G11G28G 7G26G 8G27G29
  -3046406.26249  -2362144.71646  23063868.9234                   23063869.8174
        42.2504         24.5004
  -9446864.76649  -7355816.56848  19716824.8764                   19716821.5874
        50.0004         41.0004
 -14768103.67249 -11492691.39847  21159557.9704                   21159557.6464
        48.7504         35.5004
  -9519134.18049  -7403959.41847  21819461.1494                   21819460.2514
        44.2504         30.0004
  -5782083.16449  -4502958.33948  19442998.3374                   19442996.7634
        49.7504         41.0004
  -1652794.18749  -1286247.95647  20329728.4314                   20329727.4504
        49.5004         37.2504
 -17464265.34849 -13602526.55547  21282808.8994                   21282807.0834
        47.0004         34.7504
 03  1 15 17 30 44.9970000  0  7G11G28G 7G26G 8G27G29
  -3081337.20349  -2389363.62247  23057222.1034                   23057222.9114
        42.0004         25.7504
  -9464476.40649  -7369539.92548  19713472.9934                   19713470.6104
        50.7504         41.5004
 -14826945.23849 -11538541.92747  21148360.2904                   21148359.9234
        49.0004         35.2504
  -9569001.22349  -7442816.85147  21809971.4544                   21809970.9544
        43.7504         29.5004
  -5786829.79349  -4506657.03548  19442094.7744                   19442093.4274
        50.2504         40.7504
  -1645437.15249  -1280515.24547  20331128.5714                   20331127.4424
        49.5004         37.0004
 -17507142.22749 -13635937.10147  21274649.2124                   21274648.3644
        48.0004         34.5004
 03  1 15 17 30 59.9970000  0  7G11G28G 7G26G 8G27G29
  -3116176.83649  -2416511.38546  23050591.9784                   23050592.9194
        41.7504         25.0004
  -9482023.75849  -7383213.19648  19710134.2434                   19710131.3684
        49.7504         41.5004
 -14885711.63349 -11584333.87947  21137177.5484                   21137177.2084
        48.5004         35.0004
  -9618758.69549  -7481588.90547  21800502.8844                   21800502.2714
        43.5004         30.5004
  -5791484.85549  -4510284.37648  19441209.0094                   19441207.4354
        50.0004         40.7504
  -1637995.76249  -1274716.80447  20332544.6424                   20332543.8024
        50.0004         37.5004
 -17549898.69549 -13669253.84247  21266513.1264                   21266512.1694
        48.0004         34.5004
 03  1 15 17 31 14.9970000  0  7G11G28G 7G26G 8G27G29
  -3150925.39849  -2443588.14046  23043978.9854                   23043980.7164
        41.7504         25.5004
  -9499507.48049  -7396836.87848  19706807.2824                   19706804.0364
        50.0004         41.5004
 -14944402.98849 -11630067.39547  21126008.9854                   21126008.3884
        49.0004         35.0004
  -9668406.91049  -7520275.82247  21791055.4074                   21791054.7984
        42.5004         29.2504
  -5796048.51249  -4513840.49648  19440341.1264                   19440338.9424
        50.2504         41.0004
  -1630470.41449  -1268852.94347  20333976.6494                   20333976.0214
        50.2504         37.5004
 -17592534.92249 -13702476.87847  21258399.3374                   21258398.9274
        48.0004         34.5004
 03  1 15 17 31 29.9970000  0  7G11G28G 7G26G 8G27G29
  -3185584.21149  -2470595.01346  23037384.2204                   23037384.6964
        43.7504         25.2504
  -9516929.29749  -7410412.32148  19703491.9934                   19703488.8564
        50.5004         41.0004
 -15003020.75049 -11675743.54647  21114854.5324                   21114853.7554
        49.2504         36.0004
  -9717947.17249  -7558878.60247  21781628.1034                   21781627.5754
        43.0004         29.5004
  -5800522.75449  -4517326.92948  19439489.2354                   19439487.6464
        50.5004         41.0004
  -1622862.81649  -1262924.99247  20335424.5794                   20335423.7944
        49.7504         37.5004
 -17635052.36749 -13735607.36547  21250308.8684                   21250307.8604
        48.0004         34.7504
 03  1 15 17 31 44.9970000  0  7G11G28G 7G26G 8G27G29
  -3220153.02049  -2497531.73046  23030806.0714                   23030807.1424
        43.5004         23.5004
  -9534289.23449  -7423939.55148  19700188.3454                   19700185.2514
        50.2504         41.7504
 -15061564.65649 -11721362.15047  21103713.9234                   21103713.6734
        50.0004         36.2504
  -9767379.12549  -7597396.99147  21772221.2124                   21772221.2314
        43.0004         28.5004
  -5804907.14849  -4520743.36248  19438655.3454                   19438653.6574
        50.7504         41.0004
  -1615172.82849  -1256932.81147  20336887.5564                   20336886.9974
        49.7504         37.5004
 -17677450.75049 -13768645.04947  21242240.8684                   21242239.6774
        48.7504         34.0004
 03  1 15 17 31 59.9970000  0  7G11G28G 7G26G 8G27G29
  -3254628.21949  -2524395.50046  23024245.5484                   23024246.7474
        42.0004         23.7504
  -9551584.09849  -7437416.08148  19696897.2204                   19696894.3964
        50.5004         41.0004
 -15120031.02349 -11766920.32647  21092587.8374                   21092587.8764
        49.0004         35.5004
  -9816699.16449  -7635828.18447  21762836.4704                   21762835.1734
        43.0004         29.7504
  -5809198.39149  -4524087.20648  19437838.5014                   19437837.1694
        50.5004         41.0004
  -1607397.08249  -1250873.84147  20338367.5634                   20338366.4464
        49.7504         36.7504
 -17719726.45749 -13801587.16147  21234195.8064                   21234195.0134
        48.0004         34.0004
 03  1 15 17 32 14.9970000  0  7G11G28G 7G26G 8G27G29
  -3289011.01249  -2551187.37046  23017703.2514                   23017703.3104
        43.5004         23.7504
  -9568815.47749  -7450843.14548  19693618.0324                   19693615.0484
        51.0004         41.0004
 -15178421.18449 -11812419.13047  21081476.9314                   21081476.4544
        49.5004         35.2504
  -9865908.62149  -7674173.22847  21753472.3764                   21753471.2314
        43.7504         30.0004
  -5813397.86349  -4527359.55748  19437039.2904                   19437037.5604
        50.5004         41.5004
  -1599537.07049  -1244749.20747  20339863.2904                   20339862.6034
        49.7504         37.2504
 -17761880.62949 -13834434.57547  21226174.2284                   21226173.4114
        48.0004         34.5004
 03  1 15 17 32 29.9970000  0  7G11G28G 7G26G 8G27G29
  -3323301.36349  -2577907.07946  23011177.6574                   23011178.1184
        43.0004         24.5004
  -9585983.74249  -7464221.01748  19690351.3844                   19690348.3844
        50.0004         41.0004
 -15236735.01249 -11857858.45847  21070379.7744                   21070379.6184
        49.7504         35.5004
  -9915007.30549  -7712431.93447  21744128.7204                   21744128.1464
        42.2504         30.5004
  -5817505.85549  -4530560.61148  19436257.6574                   19436256.0634
        50.0004         41.5004
  -1591593.02349  -1238559.08247  20341375.0404                   20341375.1964
        50.0004         38.0004
 -17803913.52749 -13867187.47247  21218176.1184                   21218174.7714
        48.7504         34.5004
